GFSGL_700_spd_000.txt.gz
Wind_Speed
28 26 28 27 30 32 32 26 24 21 25 16 17 27 25 25 22 21 22 19 18 16 15 14 14 15 16 17 17 22 24 25 23 18 24 27 30 34 29 28 29 30 29
21 21 23 28 34 36 38 32 28 28 31 23 27 25 22 26 28 23 23 22 18 16 15 13 15 18 16 17 21 22 23 26 27 32 22 26 32 35 36 32 30 32 33
24 25 24 26 29 37 41 42 35 42 40 44 46 45 40 32 29 24 23 23 20 17 14 15 16 20 17 19 22 23 25 30 30 32 30 31 29 33 33 32 33 31 33
28 27 27 29 34 35 36 42 51 48 55 55 44 41 36 38 30 23 25 24 23 20 18 19 19 21 21 24 26 27 31 33 29 29 29 27 33 31 27 31 28 28 32
28 29 29 33 34 33 35 39 45 52 47 46 39 36 37 37 33 26 27 27 25 24 23 22 23 26 28 30 32 30 32 33 32 32 30 30 37 33 28 33 35 32 36
30 31 31 29 26 26 29 36 41 39 36 34 27 34 35 36 37 31 29 29 28 27 28 26 29 29 30 30 32 32 33 36 35 33 34 36 37 33 31 34 39 39 38
32 31 28 27 28 29 29 29 28 28 29 31 29 34 32 32 35 32 30 32 33 33 32 33 32 31 32 30 30 32 35 36 35 35 38 38 36 37 36 38 38 38 40
33 32 29 29 24 22 20 18 20 25 26 23 26 29 29 31 35 34 36 35 35 33 33 35 38 37 37 27 29 35 37 36 37 36 39 42 40 36 35 38 39 41 41
35 35 31 21 12 14 14 18 17 24 27 23 25 24 26 30 35 33 35 34 36 33 36 44 42 42 39 28 31 36 37 37 37 38 37 39 36 34 37 41 39 42 43
36 33 25 17 14 17 19 22 21 22 23 20 22 23 24 27 31 28 28 31 34 37 37 48 40 34 32 29 34 37 38 36 36 35 38 35 32 33 34 37 38 40 41
28 26 22 23 25 30 31 36 21 18 16 17 19 22 24 26 24 26 27 29 35 41 44 40 35 29 34 34 36 37 36 35 36 34 30 28 31 33 34 35 35 38 41
21 21 26 29 29 31 27 29 21 13 13 13 16 19 21 22 26 27 28 32 37 37 35 35 33 34 34 33 35 35 35 35 34 30 28 30 32 33 34 35 35 37 39
25 31 31 28 21 19 21 20 18 14 14 15 17 21 21 26 27 28 32 34 35 35 31 31 33 33 32 35 33 33 34 34 31 28 27 31 32 33 33 33 34 33 32
32 28 22 20 17 18 18 18 16 14 17 15 20 25 25 27 29 28 29 30 32 29 30 30 31 33 33 32 33 32 32 27 21 24 26 30 31 31 31 30 30 29 27
27 25 21 20 19 18 19 19 19 18 15 15 16 21 27 24 22 22 21 23 26 28 27 29 31 30 29 30 29 29 21 18 21 25 29 31 31 30 29 28 28 25 24
23 20 21 21 19 20 18 15 16 19 18 18 15 18 19 23 21 19 20 23 23 23 26 30 31 30 28 27 25 23 23 25 29 30 29 29 29 28 26 25 24 22 24
19 19 19 18 18 17 16 17 19 20 19 18 17 15 16 19 22 22 22 23 23 25 26 29 25 25 24 25 25 26 26 28 29 29 26 26 26 24 22 22 22 21 21
17 18 18 17 18 19 19 18 18 18 19 17 16 17 19 21 21 23 23 23 25 25 25 22 21 22 23 23 23 24 24 26 26 25 24 23 21 19 18 19 21 21 20
17 18 17 18 20 20 20 18 17 18 17 17 15 18 21 22 23 23 23 24 25 26 24 22 22 23 22 21 20 21 22 23 23 22 19 17 16 15 16 17 19 19 20
19 19 19 20 22 22 19 16 18 17 16 18 21 25 24 23 24 23 23 23 24 24 21 22 23 23 19 20 19 20 20 20 19 16 14 13 12 13 15 16 16 17 17
21 22 22 23 25 23 17 16 16 16 19 23 25 27 23 23 21 22 25 25 25 25 22 22 21 19 19 19 19 18 17 16 14 12 11 11 12 12 14 15 15 15 16
24 23 25 25 20 20 20 18 20 21 23 25 24 25 23 23 23 24 25 26 26 24 23 23 22 21 20 19 18 17 15 13 11 10 10 11 11 12 13 15 15 15 14
24 23 22 24 18 17 17 20 21 24 25 24 23 25 24 24 24 25 27 27 25 23 23 23 21 22 20 18 17 15 13 11 10 10 10 11 11 11 13 14 15 14 12
25 18 21 19 18 19 20 21 22 24 23 23 23 23 24 25 24 23 24 23 24 24 24 22 21 20 17 16 14 13 11 10 9 9 10 12 13 11 12 13 13 13 10
19 21 19 21 22 21 23 23 23 20 20 21 18 23 23 24 23 22 23 24 23 22 21 20 19 17 14 13 13 12 11 10 9 9 10 11 12 11 10 11 11 11 9
18 19 21 23 24 26 26 26 24 23 22 23 23 22 24 24 21 20 24 23 21 21 19 17 16 16 15 14 13 13 12 11 10 9 9 9 10 9 8 9 9 8 8

GFSGL_700_spd_003.txt.gz
Wind_Speed
28 28 26 24 24 28 29 29 29 28 25 29 31 32 30 32 29 34 29 24 25 21 15 14 11 10 12 14 11 13 17 17 17 18 22 26 29 29 31 32 33 33 30
28 28 28 29 30 29 30 31 31 33 32 35 34 38 40 37 30 34 30 30 26 23 19 16 14 14 14 13 13 18 20 24 25 26 26 25 26 27 31 32 33 34 31
28 26 25 26 28 32 29 29 29 38 38 35 40 43 43 43 43 42 32 34 28 23 19 17 16 15 13 11 14 17 22 27 27 29 28 25 21 26 29 33 34 31 30
30 30 26 26 28 31 31 29 30 36 36 36 38 43 47 47 46 45 41 34 29 25 23 21 19 21 22 21 20 23 25 27 30 29 33 33 33 28 27 32 35 29 35
35 34 31 31 33 35 32 28 29 33 35 36 36 35 40 42 46 44 42 31 32 29 25 25 22 24 26 25 27 29 24 28 31 32 34 35 32 27 32 34 34 33 35
39 33 34 34 33 31 31 28 28 31 35 35 36 34 32 35 41 41 45 33 34 32 29 29 29 28 29 31 31 35 35 32 29 32 32 34 34 35 33 33 36 39 40
35 34 35 33 30 30 28 29 27 26 26 28 24 25 33 36 36 35 40 32 37 36 33 30 33 28 30 33 35 39 40 35 28 31 34 35 36 35 36 37 37 37 37
33 34 35 34 29 24 24 23 22 15 11 14 21 30 32 32 36 32 35 33 35 35 35 33 35 31 35 36 44 45 41 38 33 34 37 36 35 37 39 38 34 34 35
36 37 35 31 28 24 21 16 13 12 17 30 24 35 29 30 33 26 26 31 34 35 36 35 36 36 38 38 42 31 31 34 33 38 39 34 35 36 32 31 32 35 36
35 36 32 28 25 23 17 14 16 20 22 28 29 30 25 26 26 23 22 26 29 32 32 30 30 33 37 35 33 31 37 36 37 36 36 36 35 30 27 30 34 37 39
35 35 30 27 22 20 21 19 23 23 27 25 23 22 22 24 24 23 22 22 23 26 26 28 32 30 33 30 31 35 36 36 36 34 33 33 32 31 32 36 37 38 41
32 29 26 22 21 22 25 27 26 23 23 20 18 18 19 20 23 22 19 18 19 24 30 34 36 31 30 33 34 34 33 34 32 32 33 31 28 27 30 33 34 36 36
28 26 25 22 24 25 26 26 23 19 16 17 18 18 18 19 22 23 17 19 21 26 30 30 30 30 34 34 33 33 32 30 30 30 27 23 25 28 30 32 32 32 31
22 19 21 25 26 25 23 20 17 15 16 18 20 20 19 22 22 20 23 23 23 28 27 27 28 31 34 34 36 32 30 28 27 22 20 24 29 31 31 32 30 29 28
20 22 23 20 21 21 21 18 17 17 18 20 19 18 20 22 23 26 21 19 21 20 23 26 26 29 32 35 35 33 29 26 23 22 27 31 31 30 29 30 28 26 25
19 16 16 16 17 18 18 19 20 19 19 19 19 20 17 18 18 21 21 21 22 22 23 24 26 29 29 30 28 29 31 30 29 27 28 29 28 28 28 26 24 23 23
13 14 14 14 16 18 20 20 18 17 16 19 19 20 20 18 18 20 22 22 21 22 22 24 27 28 27 28 28 29 29 29 28 27 27 26 26 25 24 22 21 20 21
15 13 13 11 15 17 16 15 19 19 21 20 21 22 21 20 20 20 22 22 22 23 23 24 26 26 25 26 25 25 26 25 25 25 24 24 22 20 19 19 19 20 20
11 12 16 16 15 17 17 18 20 13 13 22 17 18 19 19 20 23 21 21 21 21 23 25 23 22 23 25 23 21 22 22 21 22 21 19 17 16 17 18 18 18 19
17 17 19 18 22 19 20 21 21 18 15 21 21 20 20 22 23 21 21 21 21 22 25 23 23 22 23 22 21 20 19 19 18 17 16 15 14 15 16 18 18 18 18
20 21 22 23 21 21 22 22 15 12 12 15 21 25 19 19 21 19 24 21 19 23 24 22 23 24 24 23 21 19 18 17 15 14 13 13 13 14 15 17 19 18 18
15 16 18 14 17 23 23 18 22 15 14 14 24 25 25 21 20 23 25 24 24 23 23 24 22 26 24 22 22 19 17 15 13 12 12 12 13 14 15 17 19 18 16
15 15 19 20 20 20 20 23 22 13 13 22 24 25 23 22 22 26 22 21 24 25 24 22 23 23 24 21 21 19 16 14 12 11 11 12 13 14 15 17 18 17 14
20 17 15 14 20 16 11 12 15 19 17 22 25 27 24 25 26 23 22 21 23 25 25 23 22 21 23 20 18 16 14 12 11 10 11 12 14 15 15 16 17 15 12
20 18 23 26 15 13 12 14 14 14 22 24 22 19 22 22 23 23 25 23 24 24 24 22 19 19 17 18 17 15 12 11 10 10 11 12 13 14 15 15 15 13 11
5 12 12 15 15 18 19 19 18 18 17 16 14 15 21 25 24 23 22 22 21 19 18 20 17 17 18 16 15 14 13 12 11 10 11 12 12 13 14 14 13 12 10

GFSGL_700_spd_006.txt.gz
Wind_Speed
28 28 24 21 16 16 18 17 18 22 17 23 23 24 27 28 30 30 34 37 41 29 27 23 19 15 12 10 12 10 11 13 14 15 18 19 22 24 24 26 29 31 30
27 28 25 22 21 21 20 16 18 23 22 27 29 31 33 34 36 36 37 39 41 36 34 31 20 17 15 14 12 10 12 14 17 20 19 21 21 22 22 27 31 30 29
26 24 23 27 27 25 21 20 20 23 25 29 33 35 39 41 41 43 44 43 41 37 36 31 23 20 20 19 15 15 15 17 23 24 20 27 27 23 23 25 26 29 26
28 25 26 26 25 24 21 19 23 25 27 31 34 38 40 42 43 44 46 44 39 35 36 32 31 26 24 23 20 18 18 21 25 27 30 25 29 27 27 28 29 30 31
29 29 27 26 24 25 24 20 24 27 26 30 34 35 35 38 41 45 48 44 41 37 35 36 32 30 26 25 26 20 26 29 31 34 36 32 33 28 29 30 33 33 32
32 31 27 27 28 28 26 26 27 29 29 31 33 33 29 26 38 42 46 43 42 37 33 34 31 33 28 28 24 27 29 31 35 43 43 41 28 27 29 32 34 35 37
33 31 28 28 30 31 28 28 28 30 31 33 32 27 21 27 36 42 48 43 40 38 35 31 32 33 30 27 24 29 33 37 37 38 28 27 29 28 30 32 33 37 36
35 36 32 29 33 31 27 27 30 29 29 29 26 22 25 21 36 42 44 38 41 37 34 29 32 29 30 28 28 29 33 35 33 31 32 32 30 29 31 34 35 34 30
35 36 32 33 38 30 28 29 28 28 26 22 21 24 24 29 30 37 34 35 36 33 32 32 30 28 28 26 26 28 33 30 28 32 33 36 34 32 33 36 33 34 32
33 32 37 36 33 31 30 28 26 23 19 19 22 24 27 29 29 29 27 27 26 27 27 26 22 22 20 22 28 30 29 29 30 32 33 34 33 31 32 33 31 29 30
36 36 37 37 34 31 30 26 21 18 19 22 23 25 26 24 24 23 23 23 24 23 24 22 18 20 24 29 30 27 29 30 31 34 35 32 30 31 26 28 29 29 33
40 38 40 34 32 28 20 17 16 19 23 21 23 23 22 19 20 21 21 20 19 17 17 21 25 25 25 26 27 30 30 31 33 33 31 29 28 23 21 24 29 33 35
38 37 35 29 24 25 27 17 20 22 21 20 19 20 19 19 18 17 20 21 17 20 23 22 24 26 26 25 28 29 30 33 33 30 26 25 19 20 24 29 31 30 31
35 31 27 26 22 19 18 16 16 17 18 18 19 18 19 20 15 17 20 19 22 24 23 24 23 24 26 28 28 29 30 28 23 22 21 21 23 27 30 31 31 28 28
29 26 21 17 13 14 15 15 17 16 16 18 17 18 19 18 17 18 21 23 18 18 22 23 23 23 25 26 27 28 30 30 29 25 23 24 26 27 28 28 29 26 24
18 16 12 11 12 14 15 16 17 17 18 17 18 17 15 18 19 19 19 20 21 21 21 21 22 23 24 21 27 28 29 30 30 26 24 24 25 26 27 25 24 21 20
14 12 9 11 13 14 14 16 19 18 18 15 14 17 16 18 20 21 22 22 20 20 21 22 23 24 24 24 24 24 26 28 27 25 24 24 24 24 23 21 19 19 18
5 8 9 9 12 15 17 16 14 16 19 17 17 18 19 23 23 23 22 19 21 21 22 22 20 20 22 23 23 21 22 22 23 23 23 23 22 20 18 18 17 18 18
11 11 10 16 19 16 14 13 17 15 17 16 18 19 20 22 21 20 20 22 22 21 21 19 23 23 22 22 23 22 21 21 21 21 21 19 17 16 16 17 17 17 17
13 14 14 17 16 17 17 19 16 17 18 16 20 21 23 20 21 21 21 21 20 18 18 20 25 23 22 20 22 22 23 22 20 19 17 16 14 14 15 16 17 18 17
15 15 15 19 21 19 22 21 17 16 20 22 22 21 23 22 21 19 19 18 15 15 18 21 22 22 23 22 21 20 21 20 19 17 15 13 13 14 15 16 19 19 17
17 17 23 22 21 19 20 18 21 21 20 18 22 26 27 26 23 23 21 20 20 21 20 20 19 19 21 24 21 23 22 19 17 15 13 12 13 14 15 17 19 19 17
17 17 15 24 22 19 20 19 19 17 17 23 28 28 29 29 26 26 27 25 24 22 19 21 20 18 20 23 19 20 18 17 15 12 11 12 13 15 16 17 18 17 15
18 22 21 16 19 18 13 12 16 17 20 25 24 29 29 24 32 32 26 26 21 20 20 21 21 19 20 19 19 17 14 14 12 11 11 12 13 14 15 16 16 15 15
19 24 23 27 14 16 13 18 13 15 21 17 21 27 28 25 20 21 20 20 19 20 21 21 22 19 15 15 18 15 14 13 12 12 11 12 13 14 14 15 15 14 14
16 18 19 10 13 15 12 7 13 15 12 13 22 22 20 25 27 26 22 19 18 17 16 15 17 14 13 14 15 15 14 13 13 13 13 13 12 13 14 15 15 14 13

GFSGL_700_spd_009.txt.gz
Wind_Speed
20 18 21 21 21 21 20 18 13 11 11 10 14 20 21 22 24 24 25 31 32 32 29 28 27 28 22 18 16 13 14 11 10 10 12 13 10 14 15 19 20 21 22
22 20 23 25 24 22 19 15 14 11 12 14 15 21 24 26 29 29 30 34 33 33 32 29 27 27 22 19 19 14 15 15 15 15 16 19 19 23 22 21 23 21 20
24 22 24 28 27 23 20 17 15 14 16 18 19 20 25 29 31 32 34 36 36 33 31 29 29 29 24 21 21 18 18 19 17 19 18 20 23 27 29 30 25 25 23
25 25 24 25 25 24 21 19 16 17 19 22 25 27 30 32 34 35 35 38 37 36 33 32 30 27 23 23 22 23 20 21 22 21 26 27 30 28 29 34 29 29 26
26 26 25 23 23 24 24 23 22 22 20 23 27 29 31 32 33 32 33 35 37 37 34 34 32 31 24 23 24 24 24 22 22 22 27 30 31 31 27 27 30 31 31
28 26 25 25 26 27 26 23 22 22 23 26 28 30 30 31 31 29 31 33 39 35 32 35 35 34 25 24 26 27 24 22 22 26 30 31 29 22 25 29 32 33 32
26 28 27 28 28 27 27 26 26 24 26 29 31 32 31 29 28 27 29 33 41 38 33 35 31 25 25 25 28 24 23 23 24 29 32 28 27 26 29 28 31 34 33
28 30 29 31 31 30 30 30 30 30 30 30 31 32 29 24 22 25 30 37 42 36 32 33 30 25 27 25 26 26 25 21 24 30 30 27 30 29 31 32 34 34 34
29 33 30 31 32 32 33 30 30 30 28 27 28 26 24 23 22 28 33 39 38 28 29 28 27 22 25 21 21 18 19 23 28 30 29 30 31 31 32 34 34 35 33
30 35 31 32 30 33 36 30 26 27 29 30 26 22 22 22 25 30 33 31 25 21 23 25 24 24 18 18 19 23 25 26 28 29 31 29 32 32 31 32 33 33 25
33 38 37 37 35 37 38 31 30 29 25 23 22 22 24 24 28 28 25 22 19 19 21 20 18 18 18 18 21 26 26 28 28 33 31 31 32 32 31 32 29 22 27
34 38 39 38 40 40 36 31 29 19 22 29 25 25 25 25 24 23 20 17 18 17 19 18 14 17 20 21 24 26 26 28 31 32 32 32 29 28 28 26 23 26 31
39 42 42 42 39 38 35 32 27 24 23 24 26 24 25 24 24 20 19 17 18 19 18 17 18 20 21 23 24 26 28 29 29 29 28 25 24 24 22 23 25 28 29
40 46 49 43 38 36 30 29 25 20 20 23 23 23 23 21 19 18 18 17 18 18 19 21 19 21 24 25 26 26 26 26 25 24 21 19 20 21 23 25 27 27 28
36 40 40 37 31 28 27 22 18 18 21 22 19 19 21 17 18 19 18 18 19 19 18 19 21 22 23 24 24 25 23 24 24 22 23 21 19 20 21 23 25 25 24
32 30 30 29 26 22 19 17 18 19 21 20 17 18 18 17 16 16 15 17 19 19 19 20 19 20 22 22 21 21 24 24 24 21 19 19 21 23 23 23 22 20 18
27 24 22 20 19 17 17 17 18 19 17 17 17 15 15 16 16 16 18 19 18 19 20 21 20 22 22 20 20 22 24 24 24 23 22 21 21 22 21 19 17 17 16
21 20 18 17 16 17 14 14 16 17 20 19 17 16 15 15 16 18 21 20 17 19 20 21 22 24 17 15 17 19 21 22 22 21 22 21 22 21 18 16 16 17 18
19 17 17 20 20 16 17 15 17 21 17 15 16 14 14 12 14 19 20 19 20 21 22 22 24 21 17 18 20 20 20 20 20 20 20 20 20 18 16 15 16 17 18
18 19 17 17 17 16 16 12 16 18 14 12 10 17 16 17 18 14 15 19 20 22 24 23 23 21 20 19 22 21 21 22 20 19 18 17 16 14 14 15 16 18 19
15 21 17 17 21 17 17 16 18 16 13 12 13 16 20 21 19 19 16 18 20 20 19 21 24 25 21 20 19 18 20 20 20 19 16 15 13 12 13 15 17 18 20
16 14 14 22 21 17 17 16 18 17 16 16 16 20 21 24 23 22 22 21 20 20 20 20 22 22 20 21 18 17 19 18 18 15 12 13 12 12 13 15 17 18 18
16 16 18 21 21 21 20 19 18 21 22 23 23 23 22 22 24 25 26 25 25 24 21 24 21 20 20 21 19 16 18 18 15 12 13 13 11 12 13 14 15 16 17
19 19 19 21 18 23 20 16 18 22 24 26 24 22 22 22 22 22 26 28 24 21 22 21 22 22 20 18 16 14 14 16 14 13 12 12 12 13 12 13 14 15 16
19 17 16 17 20 21 16 15 17 20 22 17 20 19 17 22 23 20 18 17 17 18 19 19 20 19 18 15 16 15 14 15 15 14 13 14 14 13 11 12 14 15 14
18 19 19 20 16 17 18 17 18 21 21 20 25 22 24 25 30 25 21 19 18 18 16 16 17 16 14 13 16 17 16 15 14 14 14 15 14 13 11 12 13 14 15

GFSGL_700_spd_012.txt.gz
Wind_Speed
22 19 19 21 24 24 21 19 22 22 20 17 16 18 17 18 17 17 19 21 23 25 25 23 21 21 23 19 15 17 16 13 13 13 11 11 10 13 12 16 20 23 21
23 22 19 22 25 25 21 20 22 20 18 17 16 16 19 21 22 21 22 24 26 28 28 25 19 17 24 19 15 17 20 16 16 18 15 13 14 15 19 23 23 25 26
26 27 24 24 27 27 23 22 21 20 18 18 17 15 15 20 21 23 24 27 29 30 31 30 22 18 16 19 19 15 20 21 19 20 17 17 22 23 24 26 28 27 27
27 30 29 26 27 29 25 23 23 23 20 19 18 19 20 22 23 24 27 29 30 32 31 31 24 22 19 18 19 18 19 23 20 24 27 26 24 23 30 31 28 26 28
27 30 29 28 27 30 30 27 26 26 24 23 23 25 25 26 25 24 26 27 31 32 31 30 26 23 21 21 20 17 21 24 23 27 25 24 25 27 32 31 29 27 28
22 29 27 31 30 30 31 30 29 27 26 27 29 30 29 28 25 24 25 25 29 32 34 30 25 24 24 23 20 17 20 24 27 24 26 28 27 30 31 31 30 32 34
22 24 27 31 33 32 33 32 31 29 28 29 29 29 29 28 28 26 23 27 26 33 33 26 24 24 27 22 19 19 21 21 25 26 27 28 29 29 29 32 32 34 34
23 27 29 29 33 33 36 35 34 31 31 31 31 31 26 31 27 25 23 27 29 33 29 24 24 23 20 21 22 21 22 24 27 28 28 30 32 29 32 35 36 37 37
23 24 34 34 34 37 36 37 35 35 35 33 31 29 23 18 22 25 29 29 33 33 30 27 19 18 19 21 23 22 19 17 21 26 30 32 31 32 34 36 36 39 38
31 26 29 38 34 33 38 38 37 36 31 29 25 21 34 27 21 25 30 29 33 30 23 17 16 18 20 19 25 19 19 20 25 30 32 33 34 36 36 37 37 35 34
32 29 28 31 37 33 33 38 39 33 30 27 23 28 26 22 23 27 26 29 29 20 18 16 16 18 16 17 20 20 22 24 28 30 30 31 34 35 36 36 34 33 32
30 35 36 34 34 37 38 38 30 29 31 23 23 28 23 25 25 27 26 28 22 18 16 14 15 15 16 16 19 22 26 29 29 30 30 31 31 31 30 29 28 28 28
37 39 37 34 33 41 43 40 34 34 30 27 33 27 25 27 29 27 25 23 19 16 15 14 14 16 21 20 22 24 25 27 28 29 29 29 28 26 27 27 28 29 30
41 37 30 31 35 41 43 40 38 37 30 30 27 24 27 27 26 23 22 19 17 16 15 16 17 18 19 21 23 24 24 25 25 24 22 22 23 22 22 25 26 27 28
42 36 30 29 30 37 42 43 39 33 28 31 28 28 26 23 22 22 20 19 17 16 16 17 18 19 21 22 22 22 23 22 22 20 20 21 23 22 21 22 23 25 25
37 33 31 35 36 39 34 34 28 32 32 30 28 26 23 21 19 19 18 17 17 17 17 18 20 20 20 20 19 20 19 20 20 20 22 22 21 21 20 21 23 22 22
36 33 30 35 28 38 38 36 28 32 29 26 20 21 20 18 18 17 16 17 17 17 18 19 18 20 21 19 18 17 19 19 19 20 21 20 19 18 19 20 20 20 20
29 34 37 36 28 22 17 21 31 27 23 22 20 18 19 19 21 18 18 19 17 17 18 19 21 21 18 17 15 17 19 19 19 22 22 21 19 18 19 19 19 19 20
22 23 24 24 24 25 25 24 24 22 19 22 23 24 23 22 19 12 14 16 16 17 19 20 20 18 17 16 15 17 18 20 21 22 22 21 19 18 18 17 18 19 21
25 24 23 24 24 23 23 23 23 19 19 24 22 19 20 21 12 11 12 12 15 17 18 18 19 17 17 18 18 19 18 20 20 20 19 19 17 15 15 15 17 19 21
25 23 22 17 21 23 21 17 22 29 25 16 17 16 15 17 17 15 13 13 16 17 17 18 19 20 19 20 20 20 19 21 21 18 17 16 14 13 12 14 16 18 20
19 25 19 16 15 18 26 38 41 19 18 19 19 19 16 14 12 15 17 17 18 18 20 20 23 24 20 21 21 20 18 19 18 17 15 15 12 11 11 14 15 17 20
27 29 26 23 26 16 20 18 18 16 19 21 22 20 17 16 18 19 18 20 20 21 21 21 21 21 22 20 20 19 19 19 17 16 14 13 12 12 11 13 14 16 19
11 6 7 10 17 20 17 17 15 13 17 18 19 20 20 22 23 20 18 18 21 20 18 18 19 19 21 21 22 19 19 20 17 15 14 13 13 12 11 12 14 16 18
17 14 16 16 18 21 14 17 15 18 18 20 23 25 23 19 19 19 19 18 17 16 17 18 19 19 19 20 20 21 18 17 17 16 14 14 14 12 12 13 13 15 17
19 19 18 13 12 14 19 21 20 18 18 18 18 21 23 19 19 20 26 24 21 19 17 17 19 19 18 18 20 20 18 17 17 16 15 14 14 13 12 12 13 14 16

GFSGL_700_spd_015.txt.gz
Wind_Speed
24 22 23 26 28 27 27 23 22 27 31 29 24 22 19 16 16 15 16 17 16 19 21 23 22 20 17 17 11 11 10 11 12 11 13 12 13 15 15 15 19 20 22
26 24 25 23 27 29 28 24 25 29 34 29 27 25 22 19 19 19 19 20 20 21 22 24 25 23 20 19 15 14 11 13 15 14 13 12 16 17 19 21 25 26 28
28 28 28 27 26 28 28 25 26 31 33 31 28 26 24 24 21 20 20 21 23 23 25 26 25 26 22 21 19 15 14 14 16 16 16 17 17 21 25 26 28 28 30
30 33 32 31 27 23 28 27 26 32 33 32 30 26 23 21 20 20 21 21 24 26 26 26 25 26 21 21 22 19 18 18 20 20 17 21 23 26 27 30 30 32 30
33 37 37 33 30 26 30 30 29 32 32 32 30 28 24 23 22 21 22 24 26 26 26 27 26 24 22 21 23 21 19 20 22 22 23 25 26 30 31 33 33 31 27
34 37 36 35 35 32 31 34 32 32 33 33 31 28 26 25 23 23 23 25 28 26 28 28 26 26 21 22 23 22 20 19 22 25 24 28 28 29 31 32 35 34 32
33 36 34 34 36 37 33 35 38 37 37 36 33 31 28 27 24 23 26 31 34 26 31 30 26 25 20 23 22 22 21 20 21 25 25 27 30 32 32 34 38 37 37
32 33 33 31 35 38 40 36 37 40 40 39 36 33 30 29 25 20 21 22 20 24 28 28 27 27 19 21 24 21 22 22 25 26 28 26 25 29 35 37 36 37 39
32 34 34 31 32 36 39 38 39 41 42 40 38 35 32 28 26 21 14 21 28 22 28 28 29 26 22 19 21 23 23 23 29 26 23 25 31 34 38 38 37 40 41
32 31 29 31 33 36 36 42 39 41 41 40 38 36 34 31 33 28 27 26 27 28 29 32 28 21 18 19 21 24 22 24 25 25 25 29 32 32 33 35 38 39 40
34 34 34 32 33 35 38 38 42 43 43 43 41 38 35 31 28 27 35 30 30 32 30 26 21 17 16 17 18 19 20 22 24 24 28 30 31 32 32 34 35 36 36
37 41 38 37 37 34 39 39 41 40 45 44 43 40 33 31 30 27 28 30 34 29 25 19 18 16 15 16 17 18 20 22 25 25 27 29 30 31 32 30 30 31 31
41 40 39 45 43 39 36 37 43 45 38 38 43 39 35 32 30 22 29 33 28 25 20 17 16 16 16 16 19 20 20 23 24 24 25 27 28 28 27 28 28 28 28
47 48 44 53 47 53 46 43 44 47 46 44 41 37 36 31 23 22 31 27 24 21 17 17 17 17 17 18 19 19 21 22 22 22 23 25 24 24 26 26 25 26 26
54 51 56 54 53 54 51 48 45 48 47 45 42 35 27 21 20 32 29 24 22 19 17 17 17 17 17 18 18 18 20 21 21 21 22 23 22 23 25 27 26 27 26
57 55 57 61 59 54 49 45 45 40 38 44 41 24 22 18 22 26 24 21 19 19 17 17 17 17 17 17 16 19 21 21 20 20 20 19 20 23 24 25 25 26 25
64 62 58 55 63 59 49 46 47 42 36 27 24 28 21 23 26 30 21 21 20 19 19 17 16 17 16 15 17 20 20 20 19 19 18 18 20 22 23 23 23 23 23
63 66 69 50 58 51 38 37 37 41 48 42 33 24 26 25 23 22 22 21 20 19 18 16 18 15 15 16 16 17 17 18 19 18 17 18 20 20 21 21 21 20 21
71 59 50 36 61 38 45 21 23 33 36 21 30 29 27 27 28 22 19 19 17 17 16 17 16 15 15 15 15 15 16 18 19 18 18 18 19 20 20 18 18 19 19
25 6 53 36 27 25 24 22 25 25 26 28 24 20 18 18 21 23 18 15 14 15 16 15 14 14 15 16 17 16 19 19 19 18 18 18 20 20 19 18 18 17 19
19 19 19 22 20 19 20 22 23 24 23 21 16 17 18 23 21 21 16 16 16 13 15 15 16 17 18 18 18 21 21 19 18 18 18 18 19 19 18 17 17 17 18
11 15 16 18 21 20 19 18 17 15 16 21 27 32 28 26 22 21 19 15 15 15 16 17 18 20 22 20 21 24 20 19 19 20 18 18 18 18 17 16 16 17 18
3 10 12 14 12 10 11 13 16 23 26 19 17 16 18 16 15 16 16 15 16 17 17 17 20 24 23 18 19 21 18 19 19 18 17 18 18 18 16 16 16 16 16
9 19 19 20 21 24 28 29 26 23 23 22 17 17 18 17 16 17 19 20 18 17 17 18 20 19 16 18 20 20 19 17 19 18 17 18 18 17 16 16 16 15 15
21 14 9 8 6 4 12 16 16 16 19 19 19 15 17 18 24 20 18 18 16 18 18 17 16 16 18 20 21 22 21 16 18 19 18 19 18 17 16 16 16 15 15
9 9 9 5 12 10 9 17 18 20 22 19 14 17 19 21 22 20 20 19 19 20 19 18 16 17 20 22 23 23 21 19 18 18 18 18 19 17 16 16 15 15 16

GFSGL_700_spd_018.txt.gz
Wind_Speed
24 22 22 23 22 24 27 25 22 23 28 33 33 31 27 24 22 20 17 15 13 14 15 16 18 19 17 16 16 15 16 14 11 9 10 11 12 13 15 16 16 17 21
24 22 23 22 24 25 26 27 26 26 30 34 35 32 29 26 23 20 19 17 16 16 16 18 19 20 20 19 18 16 17 17 15 13 11 14 15 16 18 20 23 25 27
27 26 25 25 27 28 24 28 28 29 33 37 37 36 32 28 24 22 20 18 17 17 19 19 20 23 21 21 20 20 19 19 18 18 16 17 18 17 17 21 23 26 29
29 29 29 29 30 28 24 28 30 31 34 37 39 36 33 30 26 23 24 21 20 20 21 22 25 25 22 23 22 23 23 22 23 21 20 20 20 23 22 23 25 28 29
26 29 31 31 32 31 28 28 30 32 33 38 41 38 34 31 28 26 24 21 23 22 22 19 27 25 24 25 23 24 26 24 24 22 22 23 24 26 28 29 29 29 30
32 31 32 33 35 35 32 30 32 34 34 37 41 40 38 35 30 27 26 27 25 24 23 24 25 28 27 24 24 24 26 28 27 24 22 24 24 26 28 30 31 31 33
33 31 34 36 36 37 37 34 33 36 36 38 40 41 39 36 32 28 27 27 26 22 24 26 32 30 29 25 25 27 28 29 27 26 24 24 25 27 28 28 30 33 35
39 36 33 36 37 38 41 39 37 37 40 39 41 41 40 37 34 31 29 30 30 19 20 22 28 30 27 25 26 30 31 27 26 27 27 26 28 27 25 29 32 34 36
38 38 34 35 37 40 42 41 41 41 41 44 43 43 42 38 36 34 32 33 30 24 25 23 27 26 27 30 31 31 26 28 26 27 25 26 26 27 29 31 33 34 36
34 38 34 34 36 36 36 41 43 44 44 43 45 45 42 40 40 38 37 35 34 31 27 21 26 29 29 33 29 27 23 25 28 28 27 26 27 28 31 32 33 33 33
33 36 36 33 35 32 33 38 39 41 46 47 45 43 44 44 43 41 41 38 36 28 22 26 30 31 29 29 26 22 20 23 23 26 25 24 26 30 30 30 30 29 28
36 39 39 37 35 37 34 34 36 42 42 43 49 46 48 48 46 45 43 41 37 29 24 29 31 32 28 26 23 18 19 21 21 20 22 25 28 29 28 28 26 24 25
40 39 42 45 42 43 44 45 45 45 43 41 41 43 52 52 50 47 45 41 28 24 25 30 30 28 25 25 18 18 19 20 19 21 22 23 26 27 27 26 24 23 24
37 36 41 43 52 45 47 41 40 45 36 43 41 44 51 49 49 46 41 37 19 23 31 26 26 23 26 19 18 18 19 19 18 21 22 21 24 25 26 24 22 23 23
38 40 43 46 46 56 56 56 54 54 50 47 51 54 53 45 46 41 39 25 18 25 32 24 23 23 20 18 18 17 18 18 20 21 21 21 23 23 23 22 21 23 24
45 48 51 54 56 57 58 57 55 58 63 61 52 45 41 42 42 31 9 24 22 29 26 22 21 20 21 19 18 17 17 18 21 20 19 20 22 22 22 22 21 23 24
53 57 61 64 66 68 69 65 60 62 58 55 48 52 54 49 57 39 47 31 21 29 21 23 20 19 19 19 19 17 18 20 20 18 18 20 22 21 21 21 20 21 22
34 40 48 51 65 78 77 69 59 56 53 49 49 55 53 43 32 23 23 24 31 24 25 22 21 20 20 18 18 17 19 19 17 19 19 20 21 20 20 20 19 20 20
26 26 25 31 41 61 70 58 41 38 38 46 31 24 23 21 28 26 32 23 23 22 21 18 21 22 20 21 18 16 19 18 18 20 19 20 20 19 19 17 17 17 17
15 15 20 11 9 7 42 42 48 46 41 34 37 39 41 37 36 31 24 27 24 21 19 20 21 21 21 20 16 17 19 20 20 20 19 21 19 17 16 16 15 15 16
11 14 19 13 29 31 30 10 13 28 29 31 30 35 22 23 28 21 17 19 22 21 20 21 21 19 21 19 18 18 20 22 20 19 19 19 17 16 14 15 14 14 16
13 14 14 15 4 3 8 14 14 17 20 25 29 28 28 21 15 18 19 25 25 21 21 20 17 19 21 21 21 20 22 23 21 19 18 19 16 14 14 15 14 15 15
5 9 13 14 9 7 10 14 19 22 19 17 17 19 18 18 23 23 20 25 22 18 16 16 17 19 20 19 20 21 23 22 21 17 18 19 16 14 15 16 16 15 16
8 7 8 7 3 4 7 9 10 11 13 14 21 29 35 28 19 20 20 19 18 17 16 15 16 16 16 17 17 19 20 18 16 16 18 18 17 15 15 16 17 17 16
11 9 9 10 17 15 9 14 19 27 27 21 22 21 24 28 28 26 22 19 18 16 15 14 14 13 14 15 15 15 17 18 16 17 19 18 17 16 15 16 17 17 18
3 4 5 5 9 7 3 5 9 13 19 23 23 27 29 31 22 18 19 20 17 14 16 15 14 14 14 16 18 18 19 20 19 18 19 19 17 17 15 15 17 17 18

GFSGL_700_spd_021.txt.gz
Wind_Speed
28 26 24 21 20 22 25 25 25 22 22 25 32 34 34 32 29 24 21 18 16 14 12 14 15 16 16 15 14 13 14 13 15 15 18 17 14 14 15 16 16 17 19
27 26 25 24 24 25 25 24 26 26 25 26 32 36 37 35 32 27 24 21 18 17 16 16 17 21 18 18 17 16 16 15 14 14 17 20 20 19 18 20 21 19 21
32 29 29 29 29 26 25 25 26 27 27 30 33 37 39 37 34 30 26 24 20 20 20 17 12 25 16 17 19 19 19 18 18 16 17 20 23 23 24 23 23 24 23
36 33 32 30 30 29 25 25 26 28 30 32 34 38 40 38 36 34 30 26 24 22 21 22 23 24 19 17 20 21 23 22 22 20 20 20 23 25 27 27 28 26 27
36 36 35 32 31 32 31 28 26 29 29 31 35 39 41 41 39 36 32 28 26 25 24 27 26 28 27 20 21 23 25 26 26 25 23 21 22 25 26 27 27 28 31
32 29 29 34 34 34 35 33 30 30 29 33 37 39 42 42 41 38 34 32 30 31 27 29 29 31 31 28 24 25 26 28 29 29 26 23 24 24 25 25 27 30 31
30 27 29 27 28 34 35 35 35 33 32 33 38 39 41 43 42 39 37 36 35 34 31 30 30 31 34 32 29 27 28 28 30 30 27 23 24 24 26 27 28 28 28
32 35 32 29 27 29 36 36 36 35 35 34 37 39 40 42 45 43 42 41 40 38 35 32 31 31 30 25 26 27 27 27 29 29 28 23 27 27 28 27 27 28 30
33 35 35 33 32 31 32 36 38 38 38 39 38 41 40 41 41 44 45 45 45 43 39 35 35 32 32 26 25 25 26 27 27 28 29 28 27 27 28 28 27 29 33
32 30 30 31 32 34 31 32 35 39 39 39 42 42 44 43 45 47 48 50 49 46 43 39 37 31 32 30 25 23 26 27 27 27 29 28 29 28 27 26 29 31 31
30 31 31 33 35 37 34 32 31 32 37 41 43 46 46 47 48 50 51 53 52 49 45 42 39 33 35 30 25 23 23 28 26 26 28 27 25 26 27 27 27 28 29
40 36 36 35 36 41 38 35 35 37 38 36 39 42 46 49 50 54 54 54 54 51 47 45 41 37 31 29 28 22 24 26 25 26 26 24 24 26 26 27 25 26 27
35 39 40 36 36 41 42 40 39 39 44 39 45 46 43 43 50 53 52 53 55 54 52 47 40 35 28 24 33 26 23 25 26 26 24 24 25 26 26 26 25 25 24
28 30 33 37 37 38 41 44 45 46 49 45 47 48 45 43 50 48 54 54 55 55 49 45 40 39 27 36 40 26 25 27 27 24 24 24 25 24 25 25 25 23 23
29 30 32 34 36 38 42 44 48 47 50 51 52 51 57 63 48 50 56 57 57 51 47 45 45 25 20 33 29 25 27 27 26 24 25 24 23 23 24 24 23 24 23
29 31 33 35 37 41 48 52 51 52 53 54 53 57 56 55 52 56 48 48 48 46 28 23 43 38 32 30 26 27 29 26 24 24 24 24 23 22 24 23 22 23 23
34 37 39 43 49 55 59 62 63 63 63 62 61 61 56 53 45 42 47 50 51 45 40 23 24 30 28 27 28 29 27 25 24 25 23 23 21 22 24 21 22 22 22
34 38 44 49 52 52 52 57 64 72 76 76 73 68 60 48 33 45 48 49 46 45 33 26 25 30 31 28 29 29 26 25 24 24 23 21 20 21 22 21 21 22 21
34 33 34 37 40 41 39 43 49 59 60 69 59 60 52 46 39 37 33 36 32 27 30 34 35 34 31 30 28 26 26 25 23 22 21 20 19 20 21 21 21 20 20
23 22 25 29 34 32 37 30 25 39 43 42 62 77 64 57 43 26 22 23 19 19 32 35 35 32 26 26 26 27 25 23 23 21 21 21 20 20 20 21 21 20 19
13 15 15 17 17 12 13 22 17 22 12 12 18 18 23 25 28 28 27 29 19 25 34 34 29 28 23 25 26 24 23 22 22 23 22 21 21 21 20 20 20 20 19
6 5 6 4 1 3 4 9 11 13 15 5 4 17 15 6 4 13 18 23 29 33 32 26 25 23 23 21 21 23 23 23 25 24 25 22 22 22 21 20 21 21 19
4 2 2 6 5 6 8 10 11 17 15 15 15 16 14 15 18 21 22 26 29 28 26 24 21 20 19 20 21 23 24 27 27 25 23 22 23 22 20 20 21 21 19
15 10 9 8 4 5 9 11 9 5 6 8 4 6 8 13 15 14 21 26 29 24 22 21 19 19 19 20 20 22 25 27 26 24 22 22 22 22 21 20 20 20 19
8 10 15 16 13 11 10 11 11 10 11 12 12 21 20 21 23 24 25 21 22 21 20 19 18 17 18 18 19 20 20 21 21 21 19 20 21 20 21 20 20 20 19
2 3 4 9 11 14 14 14 18 21 23 25 27 28 24 23 23 25 24 24 23 22 21 19 19 19 17 18 18 17 18 19 19 18 20 20 20 21 21 21 20 21 21

GFSGL_700_spd_024.txt.gz
Wind_Speed
28 24 24 28 32 31 31 28 27 24 23 23 25 29 34 34 33 30 26 25 21 17 14 13 14 17 15 13 16 13 13 13 13 15 14 15 15 17 21 20 18 17 20
26 28 27 26 23 25 28 28 28 29 26 25 25 29 35 38 37 34 31 28 24 20 17 17 18 20 19 16 16 16 14 15 17 17 20 21 19 19 20 22 23 23 22
30 30 31 31 31 27 26 25 25 25 26 28 29 31 33 38 39 36 34 31 29 24 23 22 24 22 21 21 19 18 16 16 16 20 22 21 21 23 22 23 25 26 27
36 36 35 33 30 30 29 29 29 28 28 26 31 31 33 36 40 39 37 35 32 29 27 25 27 26 24 26 24 21 20 18 18 20 23 24 24 23 21 22 25 25 28
38 39 39 34 34 34 33 33 31 33 32 30 29 33 34 36 39 41 40 38 36 33 32 29 28 28 27 28 28 25 24 21 23 21 24 25 25 23 24 22 21 25 28
43 41 37 39 37 36 36 35 36 36 34 34 31 30 34 36 36 38 40 40 39 38 36 34 32 31 31 31 32 33 29 28 25 24 24 27 26 25 23 21 21 24 25
38 44 39 38 40 40 40 38 36 38 38 36 34 32 33 35 35 37 40 41 42 42 40 38 37 35 35 34 33 31 34 32 29 25 25 28 28 27 22 24 24 25 25
35 36 39 36 37 37 36 35 36 39 41 39 36 36 33 31 34 36 41 44 48 46 44 42 42 40 38 36 35 31 32 30 28 27 26 25 24 27 26 25 24 27 26
36 33 37 37 34 34 34 33 35 39 40 40 38 36 37 35 33 35 40 47 51 51 48 46 46 45 42 38 39 35 33 30 27 26 27 24 23 28 27 27 27 27 26
31 36 36 38 38 36 30 29 31 34 39 43 42 39 36 38 36 36 40 48 53 54 52 51 50 50 46 42 41 35 33 30 30 26 24 23 24 27 28 27 28 25 27
32 32 34 37 41 39 35 36 38 37 39 41 41 42 41 37 40 41 43 45 51 55 57 56 55 52 49 45 42 36 31 32 35 29 26 21 24 28 29 27 25 26 28
36 38 36 34 37 38 38 39 39 41 42 42 41 40 39 39 42 43 46 50 50 54 56 58 56 53 50 47 45 39 37 33 32 31 26 23 27 29 31 28 27 27 27
36 37 37 36 34 36 36 35 39 39 45 45 46 43 39 41 40 41 41 47 53 56 57 59 59 52 53 53 47 42 38 34 29 30 28 27 30 30 31 29 27 28 26
28 29 34 39 40 42 42 41 39 38 44 46 46 46 42 47 44 41 45 45 49 56 61 64 59 56 57 56 52 41 44 27 29 29 28 30 33 30 31 28 28 28 24
30 29 28 27 26 29 30 31 34 34 37 39 39 46 51 56 55 51 51 50 54 60 59 63 60 63 59 55 50 46 55 51 41 34 34 36 30 31 30 28 29 27 22
30 29 29 28 29 30 31 35 37 38 42 43 44 46 47 51 61 61 57 56 60 63 62 59 59 62 58 49 42 40 46 44 33 35 35 36 30 32 29 28 28 25 22
31 29 29 29 31 33 36 39 43 48 50 56 58 60 60 62 63 60 61 66 64 64 59 56 61 60 51 45 45 51 36 34 34 34 37 33 32 32 27 29 26 24 22
27 28 30 34 36 40 43 47 52 55 55 57 61 63 65 68 71 72 66 61 64 67 62 56 58 53 41 33 31 30 35 34 35 37 35 33 33 29 26 27 24 23 21
27 29 32 34 37 41 45 45 47 49 49 51 54 60 65 69 72 65 66 63 60 63 59 58 55 48 41 39 35 36 35 37 35 34 33 33 31 26 27 25 23 23 21
27 29 31 33 37 41 40 40 39 41 38 33 36 41 43 47 45 52 66 77 74 56 52 52 40 39 37 36 39 35 35 36 34 32 32 31 29 27 26 25 23 23 21
20 21 23 25 27 27 27 26 24 20 20 22 23 20 19 18 27 23 29 23 48 43 26 28 30 31 35 38 34 33 30 32 31 32 31 29 28 27 25 25 24 22 22
12 16 15 13 12 11 11 11 13 14 13 12 11 13 10 11 7 12 24 21 7 11 24 29 32 34 34 32 31 27 30 32 32 30 30 28 27 25 25 23 26 24 23
11 11 10 8 6 8 7 5 3 3 4 3 4 5 4 3 8 2 6 10 16 24 31 32 31 30 29 32 26 26 31 31 30 29 28 28 27 25 25 26 27 25 24
18 17 15 13 9 8 10 10 8 2 3 5 7 8 5 6 8 13 15 19 23 23 22 25 26 28 25 23 23 26 29 29 29 28 28 27 27 28 27 26 26 25 24
11 13 14 13 13 14 16 17 16 16 12 11 11 6 3 3 8 13 16 17 18 21 24 26 27 26 20 22 23 24 27 26 24 28 26 27 26 27 25 26 25 25 24
5 6 6 8 11 14 17 20 23 23 22 19 19 23 23 17 15 17 20 21 24 29 30 29 22 19 21 21 22 25 22 22 25 24 22 24 25 26 26 26 26 25 25

GFSGL_700_spd_027.txt.gz
Wind_Speed
20 21 25 26 26 27 26 25 25 23 22 23 20 21 21 25 28 29 28 26 23 19 18 17 15 15 14 13 12 13 14 13 11 9 15 18 18 16 21 16 17 16 18
24 22 21 21 26 29 31 30 28 28 27 24 25 23 24 25 29 31 30 30 27 23 21 21 21 18 17 18 17 13 14 16 14 16 14 21 20 21 20 21 17 18 19
29 27 26 25 25 24 25 29 30 32 33 30 29 29 26 26 28 31 32 33 32 29 26 25 24 23 20 21 21 21 17 17 17 17 20 21 22 23 22 23 20 17 19
33 32 30 27 25 25 25 24 26 26 28 27 26 26 28 28 28 28 30 33 34 33 29 29 28 27 24 22 26 22 24 22 20 20 20 23 24 24 23 22 19 21 18
23 32 35 32 31 32 31 28 29 29 27 27 29 28 26 29 30 31 32 35 36 35 35 34 34 32 29 27 28 27 26 24 23 25 23 24 26 20 22 25 20 19 21
23 23 29 39 37 35 33 31 32 32 30 31 31 29 29 28 28 28 30 34 37 40 41 40 39 39 36 31 33 32 30 28 24 23 25 26 27 27 24 24 21 19 19
27 27 28 38 40 41 37 34 33 34 35 34 35 35 34 30 29 27 28 33 37 40 42 43 43 43 40 36 36 36 34 33 28 22 23 26 29 29 28 23 23 23 23
32 29 28 34 43 41 40 39 38 37 37 38 38 38 37 32 30 29 27 31 36 41 44 44 45 46 47 43 39 40 39 38 33 29 24 23 26 30 28 24 24 24 26
32 31 27 34 40 43 40 41 41 42 42 42 41 40 39 34 30 32 32 34 37 41 45 47 49 49 50 50 44 45 43 42 39 33 28 26 25 27 29 26 24 24 26
31 33 30 32 36 39 41 40 42 39 38 41 41 40 40 37 38 34 36 39 39 41 44 48 51 52 52 54 51 48 49 45 42 38 33 29 26 24 28 24 24 25 25
35 36 32 27 35 36 41 42 41 41 43 43 42 41 42 40 37 38 38 43 44 44 45 46 51 50 52 55 55 53 53 49 46 43 41 36 29 24 29 26 22 24 24
34 32 33 30 32 38 39 43 45 44 41 40 41 42 46 46 42 39 39 45 46 49 50 50 53 53 53 54 57 56 53 53 50 46 46 41 32 25 30 28 24 24 26
32 27 28 31 32 34 36 38 41 41 39 35 38 39 40 47 49 45 44 44 51 53 51 55 58 58 57 58 60 56 55 54 51 47 44 38 32 29 39 33 22 27 27
31 28 24 27 30 32 34 36 37 38 39 40 38 36 37 43 48 49 49 47 49 55 57 59 63 65 63 59 66 56 55 55 50 47 42 35 34 33 52 46 28 27 29
28 30 31 28 28 29 29 31 33 34 33 32 33 32 31 31 34 43 50 56 53 54 61 67 68 67 68 65 69 63 57 53 49 46 40 38 42 44 53 35 31 28 30
29 28 29 28 29 28 28 28 29 29 30 29 30 33 35 37 35 40 43 46 48 52 59 64 61 64 76 70 72 73 63 63 58 46 50 57 54 50 38 34 30 30 27
34 32 32 29 30 31 31 31 30 32 33 34 37 40 44 48 49 51 54 55 58 58 63 67 69 68 68 72 73 72 69 56 45 37 43 49 40 37 33 32 31 31 27
32 30 30 29 30 31 31 30 31 34 37 39 43 48 52 51 53 56 57 60 63 67 69 71 73 70 66 65 68 69 64 50 43 42 42 37 38 35 34 32 32 29 27
29 28 29 29 28 27 28 31 34 36 38 41 45 50 55 54 54 55 59 62 67 71 67 65 73 77 70 69 63 65 57 44 34 46 38 39 37 35 32 32 27 28 29
29 27 26 27 29 29 28 29 33 39 44 47 46 46 46 46 47 46 49 47 41 45 49 50 56 78 87 93 63 56 43 31 37 39 37 35 34 30 30 28 27 29 27
24 25 26 26 25 27 31 33 33 33 34 36 39 39 36 35 33 33 28 24 20 21 31 42 44 36 36 56 44 37 28 30 34 38 34 32 31 30 26 27 28 26 27
17 19 20 19 19 21 21 23 24 27 31 31 27 23 21 20 22 23 18 16 17 17 11 16 22 20 21 16 22 22 25 34 32 31 30 30 28 27 27 27 26 25 25
23 21 20 19 16 14 15 16 17 18 18 18 16 14 13 16 18 19 13 11 6 7 7 11 10 12 17 20 21 23 28 26 24 25 26 26 26 26 26 25 25 27 27
22 21 20 21 19 17 15 17 17 16 15 14 11 10 11 12 12 10 7 7 5 7 4 6 10 15 16 17 20 21 20 24 23 24 26 26 26 27 26 26 26 27 26
17 17 16 16 16 18 19 21 22 22 24 24 22 17 13 12 11 8 9 5 4 3 7 9 12 12 16 16 18 21 28 23 19 24 24 27 27 28 26 26 27 25 24
6 7 7 8 10 13 16 19 21 24 24 24 26 29 29 27 26 23 20 17 15 14 18 20 21 22 25 28 29 28 26 21 22 25 25 26 27 28 28 26 24 24 23

GFSGL_700_spd_030.txt.gz
Wind_Speed
25 24 25 26 24 23 26 25 22 19 17 19 17 13 15 16 17 20 22 24 22 18 17 16 14 15 13 12 10 11 11 9 9 12 18 18 15 16 17 16 13 13 12
19 20 23 25 25 25 25 23 22 21 20 18 22 18 17 17 18 20 22 25 25 23 21 21 18 16 17 18 16 13 15 14 13 13 16 19 19 18 20 18 17 15 14
24 23 23 23 24 25 26 26 25 25 24 24 24 26 23 22 21 21 22 25 28 27 26 27 27 22 21 21 21 21 18 19 17 16 16 19 20 20 21 20 18 14 15
27 27 27 26 25 24 24 24 25 24 25 25 26 25 24 20 24 23 23 24 27 30 30 31 31 31 28 24 25 24 26 23 21 20 17 19 21 21 21 21 20 18 18
31 28 27 26 27 27 27 26 25 25 22 22 24 23 21 22 20 21 22 24 25 26 31 34 33 33 31 28 28 27 28 30 27 24 22 21 20 22 21 22 24 24 20
27 25 25 32 31 31 29 29 29 27 26 25 24 25 24 23 22 21 20 21 25 28 29 33 36 35 33 33 32 32 33 33 33 31 27 25 21 22 23 23 23 24 25
21 20 21 21 23 30 37 34 32 30 30 28 26 27 26 24 22 22 23 24 24 27 30 32 36 37 37 37 37 37 38 38 37 35 34 30 27 24 23 25 22 22 24
27 25 25 24 22 24 32 38 37 34 33 32 30 29 28 27 27 26 27 29 30 28 31 33 37 38 40 41 41 42 41 44 42 39 37 33 30 30 27 25 24 22 22
32 29 28 29 27 25 27 33 36 36 36 36 35 34 33 31 33 35 36 37 35 33 33 35 37 40 42 44 45 45 45 46 46 45 42 40 38 32 35 30 28 19 23
36 34 32 32 31 29 26 30 37 38 36 37 38 40 38 36 38 39 42 45 44 40 40 39 39 41 42 44 47 47 49 47 47 47 47 45 43 38 37 34 32 27 19
31 31 32 33 33 32 30 31 32 40 41 39 41 43 43 41 38 40 43 46 45 48 49 46 46 46 47 47 48 49 49 48 48 48 47 48 47 44 43 38 34 32 21
34 33 33 32 34 36 34 33 34 35 42 44 43 42 42 41 43 43 43 47 48 51 51 53 55 53 51 51 53 53 52 53 54 51 51 51 51 46 44 41 36 32 27
34 33 31 33 33 34 36 35 34 35 39 43 42 43 44 44 42 43 45 46 49 52 53 52 57 61 59 58 57 56 57 59 59 58 56 53 50 43 44 44 39 32 27
35 31 30 32 29 29 32 33 31 34 38 39 41 41 41 40 40 40 39 38 38 44 50 52 56 59 62 65 65 63 62 63 66 66 60 54 44 45 46 47 40 39 31
36 33 29 30 28 26 28 31 31 33 36 37 38 37 37 38 37 37 33 33 32 34 38 41 47 51 54 55 60 66 68 70 71 70 69 58 50 49 54 47 46 43 40
33 33 31 30 30 29 28 27 27 28 29 28 26 27 28 30 28 30 31 32 37 43 46 50 54 55 56 58 59 60 67 74 79 77 71 64 59 56 55 44 47 54 49
31 33 33 31 31 30 28 25 22 25 27 29 29 27 26 27 29 33 35 38 39 45 51 55 57 62 65 63 65 68 66 65 71 78 76 69 56 59 46 43 47 45 38
27 31 33 32 33 33 31 28 26 25 26 27 26 27 28 30 33 37 41 45 47 45 48 53 57 63 69 71 68 69 67 66 64 68 81 79 57 44 25 37 36 29 30
26 26 30 31 30 27 27 26 27 27 27 28 27 26 31 34 38 40 44 45 46 49 50 52 56 60 58 55 60 64 70 70 72 80 82 83 57 34 45 27 26 30 28
25 26 28 28 28 29 28 28 28 29 28 28 31 31 34 36 38 41 42 44 47 48 49 50 50 47 37 40 45 55 59 74 83 88 65 52 22 23 30 27 27 29 25
24 25 27 27 25 25 25 25 26 26 27 29 33 32 33 34 35 36 36 34 35 36 35 33 35 33 27 27 31 37 41 43 38 35 15 4 13 24 28 27 25 24 24
21 21 21 20 20 18 18 20 23 26 27 27 29 29 28 27 25 24 26 26 28 26 24 24 22 18 18 20 14 7 12 10 17 11 6 19 24 26 26 23 19 23 24
17 12 13 15 18 20 20 20 22 22 23 24 23 23 21 20 21 22 22 21 21 18 17 17 15 14 14 15 15 12 14 9 4 10 17 19 22 20 17 15 23 24 24
15 14 14 16 17 20 21 21 22 23 22 22 21 20 20 21 20 19 18 16 15 14 13 15 16 17 13 11 11 13 10 6 6 11 17 14 13 14 15 21 25 23 23
13 13 13 15 16 19 21 22 22 23 24 25 25 26 25 24 23 22 20 19 19 19 20 23 19 17 14 10 7 4 7 12 15 17 19 19 17 16 20 23 22 22 23
7 7 7 9 10 11 13 15 17 19 19 21 22 23 26 27 27 28 29 29 29 28 29 26 24 22 16 14 15 17 18 22 24 23 24 24 22 20 22 22 23 25 25

GFSGL_700_spd_033.txt.gz
Wind_Speed
27 24 26 25 24 23 22 20 20 17 15 14 9 8 7 9 9 10 12 17 18 17 16 16 13 13 9 9 8 8 9 11 11 13 13 12 12 12 12 13 14 14 13
25 26 27 27 25 24 23 20 20 18 16 16 15 12 10 10 11 10 11 15 19 20 19 20 18 19 17 15 13 11 12 13 12 14 15 14 12 11 13 13 14 15 13
24 25 26 26 26 25 23 21 21 19 18 18 20 18 13 13 15 16 14 14 16 20 22 23 22 22 21 20 20 17 16 17 16 14 16 16 16 15 14 13 14 13 14
24 23 22 23 23 23 22 22 21 20 20 21 21 19 17 14 15 18 19 17 17 19 21 23 25 26 24 23 25 24 23 22 21 20 18 19 17 16 18 15 15 14 12
28 26 23 21 21 21 22 23 22 22 22 22 22 23 20 18 15 15 17 18 18 20 22 23 24 25 25 25 27 28 28 28 29 26 24 23 24 21 20 18 18 18 14
30 28 27 26 25 24 23 22 23 24 23 23 23 21 21 18 16 15 16 17 17 19 21 25 26 26 26 28 29 31 32 34 33 33 32 30 28 27 27 24 23 21 20
24 25 26 29 30 27 27 28 28 27 27 26 24 23 22 20 18 17 19 21 21 21 22 23 26 30 30 29 30 34 35 37 38 38 38 36 34 32 32 33 26 25 23
17 20 24 24 23 22 23 27 33 34 32 30 29 28 26 23 25 25 25 26 27 28 28 27 28 29 32 34 34 36 37 38 39 41 42 40 38 34 38 37 32 30 28
24 23 23 23 22 21 20 19 22 28 35 36 33 32 30 28 28 30 34 36 34 33 34 35 35 35 34 35 38 40 40 42 40 40 42 42 42 42 42 42 39 35 31
30 29 28 27 26 25 24 22 20 19 25 33 34 33 33 32 32 33 35 38 40 41 42 40 39 39 41 43 43 44 44 43 42 40 41 42 42 44 46 45 41 39 36
26 26 28 31 31 31 29 28 27 25 24 29 33 34 32 34 36 37 38 41 42 43 42 42 42 43 45 46 48 49 45 46 47 47 46 46 47 48 47 49 46 43 39
33 36 33 31 33 33 33 32 33 32 30 29 32 34 37 37 38 39 40 40 41 44 43 44 45 46 47 49 51 51 52 52 54 53 54 55 54 54 53 47 46 45 42
38 39 36 34 31 33 34 34 34 34 33 31 33 34 35 39 41 41 41 40 43 45 45 47 49 48 48 48 49 50 52 55 56 61 61 60 59 58 53 48 48 48 50
46 44 40 35 32 32 34 35 34 33 33 34 33 37 37 39 41 41 41 41 42 43 43 40 34 29 30 34 35 36 40 43 51 57 60 63 64 61 61 53 52 52 54
27 32 35 34 32 30 30 32 31 31 32 31 30 32 34 35 38 37 37 36 34 29 30 30 31 35 37 39 43 47 49 51 53 57 60 65 69 69 66 61 57 54 56
26 24 27 31 34 32 30 33 30 29 31 31 31 32 32 31 31 32 29 26 26 26 28 30 35 39 44 48 51 55 57 57 58 57 58 65 62 75 72 65 63 58 60
23 25 24 29 33 34 33 33 33 33 31 29 29 28 28 29 26 24 24 26 26 28 31 33 38 43 47 51 54 58 61 63 63 61 65 65 68 67 81 71 71 72 62
26 28 25 25 28 30 30 30 30 29 29 28 26 24 24 23 23 24 24 26 28 31 33 36 38 42 46 50 54 58 62 64 60 63 60 66 63 70 74 80 83 65 63
21 22 23 22 23 24 26 27 30 31 28 27 26 26 26 26 25 26 28 30 32 34 36 39 43 44 45 47 49 54 54 55 48 44 51 51 68 76 76 80 86 67 35
21 22 24 24 26 28 30 31 32 34 33 31 29 27 27 25 25 27 29 30 32 33 35 38 38 39 42 40 38 38 38 39 36 41 37 33 42 46 40 48 53 32 23
26 26 24 25 26 25 26 28 29 29 28 27 26 26 26 27 27 28 28 28 29 31 33 35 36 37 35 31 28 26 27 24 22 22 22 7 14 10 12 11 8 15 17
28 29 28 27 27 27 26 26 25 25 24 23 23 23 24 26 27 27 27 27 26 28 30 28 26 28 28 24 21 21 21 23 25 27 21 14 16 28 4 14 17 18 16
27 26 26 26 23 20 18 18 18 19 19 20 23 24 25 25 25 26 25 24 24 23 21 19 16 20 21 21 19 18 16 16 16 16 13 7 2 6 6 13 19 8 9
28 26 26 25 24 21 18 18 19 20 20 21 22 23 25 25 24 23 25 25 23 22 22 23 23 24 25 21 19 17 13 13 9 8 6 4 1 8 12 13 13 12 14
20 23 20 21 20 21 20 20 21 22 23 23 25 27 28 29 30 31 30 31 32 32 32 30 28 27 27 29 27 23 13 12 7 6 4 5 8 14 16 12 12 13 13
16 18 20 19 20 19 19 19 19 20 20 20 21 22 23 22 22 24 25 26 29 32 34 33 34 33 32 27 27 25 22 19 14 12 15 16 17 17 15 16 16 16 16

GFSGL_700_spd_036.txt.gz
Wind_Speed
32 31 30 27 27 27 24 22 20 19 19 18 15 13 11 9 7 8 12 17 16 16 14 12 11 10 7 5 5 6 5 7 9 10 11 11 9 8 9 9 10 10 10
29 29 29 28 29 29 26 22 21 21 20 17 16 13 11 10 9 6 7 11 16 17 18 17 15 15 14 13 11 9 10 11 12 12 11 11 10 10 11 11 14 13 11
28 30 31 31 30 28 26 24 22 21 22 20 17 13 13 11 10 9 8 9 10 14 18 20 20 21 19 19 18 17 16 17 16 14 17 17 16 15 14 12 14 14 14
28 28 29 29 27 25 24 24 24 22 22 22 19 16 14 14 14 13 13 13 13 14 15 18 21 24 24 24 25 24 24 24 24 23 21 22 21 21 20 17 18 17 18
24 25 25 24 24 24 23 23 23 24 22 21 20 18 17 16 15 15 14 15 16 16 17 18 19 21 23 26 28 29 30 30 31 30 29 28 28 27 24 23 25 22 20
23 24 23 22 21 21 22 22 23 23 22 23 22 20 18 18 16 15 15 15 16 17 17 16 17 19 20 22 25 27 30 34 36 37 36 36 33 32 31 30 29 31 27
24 24 23 23 22 21 20 22 22 22 22 23 23 23 22 21 20 19 17 17 19 19 20 21 21 22 21 21 22 25 27 29 34 36 40 40 39 36 35 37 37 36 34
19 22 25 28 27 26 26 26 26 25 26 26 26 25 25 25 25 24 23 24 25 24 24 25 26 26 27 29 30 32 32 33 32 34 38 38 40 38 39 40 42 42 43
20 20 21 22 24 27 27 26 26 29 31 32 33 32 31 30 31 31 32 32 31 29 28 27 28 30 32 34 37 39 40 39 39 38 38 38 39 39 38 41 46 48 48
25 21 18 19 19 22 23 23 21 21 21 22 29 35 38 38 37 35 37 38 35 33 33 29 30 31 34 36 38 40 41 39 44 45 45 44 45 45 46 47 45 48 49
30 27 24 22 25 26 24 23 23 23 22 22 22 26 33 37 40 41 41 40 36 36 35 34 34 36 37 39 41 41 42 43 46 47 47 49 49 52 53 54 52 53 53
32 32 32 33 31 30 29 29 29 28 27 26 26 25 27 32 37 39 41 39 38 38 36 35 36 38 41 41 39 39 35 33 37 42 44 43 47 49 49 54 54 57 57
30 31 32 33 32 30 30 30 33 33 33 32 32 31 30 32 36 37 38 38 39 39 38 39 40 41 40 38 35 27 27 30 34 38 44 46 47 50 51 52 54 53 53
32 30 30 32 34 34 35 36 35 33 34 35 35 35 35 36 36 36 36 36 37 37 38 39 37 36 29 24 26 27 31 36 42 47 50 54 52 57 61 60 61 59 59
38 37 36 36 38 41 44 41 36 33 34 34 34 34 34 35 34 34 34 35 36 34 32 30 28 27 26 27 31 33 37 42 48 50 52 56 58 61 63 64 67 68 68
43 43 40 35 33 36 38 36 36 33 30 30 30 31 31 31 29 29 30 32 29 27 29 28 26 27 29 32 36 40 43 48 54 57 57 60 60 62 61 66 71 73 75
35 34 33 30 27 28 32 34 35 34 32 30 29 30 27 27 27 26 24 26 29 30 28 27 28 31 34 38 41 43 47 50 53 54 56 58 57 56 52 54 58 74 69
29 31 32 29 28 29 27 28 31 32 30 28 27 27 27 26 24 27 29 29 28 28 29 31 32 35 37 39 42 45 47 49 52 52 52 52 49 44 43 51 58 53 65
19 25 29 28 28 28 24 23 25 26 26 25 25 23 23 23 25 26 28 30 31 31 32 33 35 36 37 38 41 43 46 46 47 48 46 45 40 41 47 38 36 35 47
15 18 21 23 23 23 24 25 26 29 29 29 27 28 28 28 29 31 32 32 31 32 33 34 34 34 37 39 39 41 41 40 38 39 39 38 41 44 42 42 39 29 17
18 18 21 24 24 25 25 26 30 31 31 30 30 31 33 34 32 30 29 31 31 31 30 32 35 36 38 38 36 33 32 31 31 32 32 29 32 33 33 30 13 21 6
30 26 25 27 28 28 27 29 31 32 34 35 35 33 32 30 28 28 28 28 30 32 33 33 34 35 34 32 27 26 26 27 25 25 22 21 18 16 16 15 13 6 8
46 35 28 31 31 30 30 29 29 30 30 29 29 28 27 27 28 28 28 29 30 32 31 32 32 31 31 29 28 27 26 25 22 19 14 17 10 8 8 8 7 5 3
36 35 34 34 33 31 29 29 28 27 27 27 27 27 29 28 28 28 29 31 32 32 33 35 34 34 35 34 33 29 27 29 22 21 18 15 5 8 6 13 14 10 11
43 35 31 31 31 29 29 28 27 25 24 25 26 27 28 29 29 30 31 32 34 36 37 39 40 40 41 41 37 35 34 29 24 20 19 15 16 13 12 15 16 15 15
37 37 36 32 28 31 31 27 25 24 24 24 25 25 24 24 23 23 23 23 24 25 26 27 28 28 27 29 28 27 27 25 22 23 25 24 23 20 18 18 19 20 15

GFSGL_700_spd_039.txt.gz
Wind_Speed
30 31 32 31 29 29 28 27 25 23 21 19 17 15 13 12 14 15 18 19 18 18 16 15 12 10 7 6 5 4 4 5 4 4 3 5 7 9 10 10 12 12 12
27 31 32 31 31 31 29 27 26 25 23 21 19 16 14 14 13 13 15 18 20 20 19 17 16 16 14 13 12 11 11 12 11 10 11 11 10 10 11 11 14 15 16
26 32 32 32 33 32 29 28 28 26 24 23 22 19 17 16 13 11 11 12 13 16 20 21 20 21 21 20 19 18 18 19 20 20 18 19 19 17 18 18 17 18 19
26 32 33 33 32 31 29 29 28 26 24 24 23 22 21 19 17 15 13 12 12 12 14 16 19 23 24 24 24 25 25 26 27 27 26 26 27 26 25 24 23 24 24
24 29 31 31 30 29 29 29 27 26 24 23 23 22 22 22 19 17 15 14 14 14 15 17 17 18 19 22 25 27 29 31 33 33 33 33 32 32 32 32 34 31 32
21 24 25 27 27 26 25 25 26 25 24 23 22 21 20 20 18 16 16 16 16 17 18 17 17 18 19 20 21 23 25 28 32 33 35 36 35 36 35 37 38 40 42
15 14 17 20 22 22 21 22 22 22 22 23 22 22 21 21 20 18 17 18 18 19 19 19 20 20 20 20 21 22 24 26 29 32 35 36 35 32 34 36 38 40 44
18 18 17 16 16 17 19 20 20 21 21 22 23 23 23 23 22 21 21 22 22 21 21 21 23 23 25 27 29 32 32 33 35 36 39 37 39 39 40 41 41 42 45
15 17 19 19 20 22 23 23 22 24 24 24 25 25 26 26 27 27 28 29 29 27 26 27 27 28 30 32 34 36 35 34 39 42 44 44 43 43 47 50 50 51 52
22 17 19 16 16 19 21 25 26 28 28 28 29 31 33 34 35 36 37 36 34 32 31 30 30 31 32 33 34 35 35 33 35 37 37 38 41 40 41 48 51 57 58
25 25 20 16 15 17 17 19 21 22 24 24 24 26 27 29 33 36 39 42 40 38 35 35 34 35 35 36 36 36 35 35 36 36 32 34 34 32 35 38 43 46 51
31 31 28 25 22 21 21 22 24 26 26 26 26 27 27 27 27 30 35 41 42 41 40 39 38 37 36 36 36 35 35 32 29 28 28 31 34 39 43 46 50 50 52
35 31 33 32 31 29 27 26 27 29 26 27 27 28 28 27 28 30 31 34 39 41 40 39 39 38 37 35 33 33 30 28 30 32 36 39 43 49 54 57 58 59 58
37 36 37 38 37 36 35 33 28 26 26 28 28 28 28 30 31 31 32 33 34 34 34 34 34 32 31 31 31 29 28 29 33 36 41 45 50 55 58 58 58 58 64
38 39 40 39 37 36 35 34 32 32 34 34 33 32 32 32 32 32 32 32 32 32 33 29 27 28 29 30 28 28 28 31 35 40 45 49 53 57 58 54 55 56 59
34 33 34 35 36 36 37 36 36 39 40 38 34 33 31 31 31 31 31 31 30 30 28 25 24 27 29 29 29 29 32 35 39 43 47 51 54 56 55 54 54 54 55
31 40 43 42 41 40 41 40 37 35 35 35 33 33 31 30 31 29 28 28 27 26 25 26 29 28 27 29 31 32 35 38 40 44 50 53 54 52 50 50 50 49 49
22 26 32 38 40 37 33 33 32 31 32 34 34 34 34 32 29 28 26 26 25 26 27 27 27 28 30 32 33 35 37 38 44 46 49 51 50 48 47 45 46 49 50
24 22 25 27 31 33 35 34 34 32 29 29 30 30 28 24 22 24 26 25 25 25 27 29 31 32 33 34 35 35 37 44 46 47 46 44 44 43 42 42 43 43 44
23 24 24 21 20 25 30 30 25 24 24 25 28 26 25 25 24 25 26 27 30 32 32 32 32 32 33 33 33 39 41 43 43 39 35 36 38 39 37 37 34 30 29
17 15 13 10 11 13 17 21 22 21 25 26 28 29 29 29 27 28 29 32 32 31 30 31 32 31 32 35 36 37 40 39 36 34 35 32 31 29 31 28 21 21 26
25 21 18 18 20 21 21 23 25 25 26 28 31 31 31 31 34 35 31 29 29 29 29 30 32 34 35 34 35 34 34 34 35 34 32 28 27 26 23 13 15 20 24
28 29 30 30 28 29 28 26 30 31 29 29 30 30 31 30 29 28 27 27 28 31 33 34 34 35 34 34 35 36 36 37 36 35 31 29 27 21 17 12 14 19 18
31 34 35 30 29 32 35 30 34 34 32 31 30 31 30 29 28 28 29 31 33 35 35 35 36 37 38 39 40 43 44 44 41 36 33 32 27 21 17 15 16 17 18
35 33 33 30 29 29 27 31 31 35 34 33 30 29 29 30 30 32 33 35 35 36 37 36 35 35 34 33 33 33 33 35 37 36 29 26 23 25 20 18 19 19 19
36 33 30 33 32 24 29 33 32 29 28 28 29 30 31 32 33 34 35 34 32 30 28 28 28 28 29 30 29 29 28 28 24 23 24 21 24 27 27 24 24 22 21

GFSGL_700_spd_042.txt.gz
Wind_Speed
32 32 31 30 29 27 26 25 24 24 23 21 19 18 16 16 17 18 20 20 20 19 19 16 15 13 10 8 6 4 3 3 2 3 3 5 7 9 10 10 12 13 15
29 30 31 31 31 30 28 26 26 25 24 23 21 19 17 16 16 16 20 22 21 21 19 18 17 17 15 14 12 10 10 12 12 10 12 13 14 14 15 17 17 18 19
29 30 32 32 33 32 30 28 28 27 26 25 24 21 19 17 17 16 16 18 20 22 22 21 19 20 18 18 18 18 18 19 21 21 18 20 21 23 24 24 24 25 25
31 31 33 34 34 32 31 30 29 28 27 26 24 22 21 20 18 17 16 15 14 16 19 21 23 23 22 22 23 23 23 24 26 28 28 28 27 27 31 31 31 32 34
31 31 33 33 33 33 33 32 30 29 26 25 25 24 24 23 22 19 16 15 14 14 15 16 17 18 20 22 24 24 26 28 29 30 32 33 30 31 32 33 36 36 37
25 26 27 31 31 31 32 31 30 27 26 26 25 24 24 25 23 21 20 18 17 17 17 17 17 18 19 21 22 23 25 27 30 30 29 31 28 29 28 31 35 37 40
27 25 23 26 28 27 28 29 29 27 27 25 23 23 22 23 23 22 20 20 20 19 19 18 19 19 20 20 21 22 25 26 28 30 32 32 34 36 39 42 42 43 46
23 18 18 20 23 23 25 25 25 25 24 23 22 20 19 20 20 20 20 22 22 20 20 20 21 21 22 24 26 29 29 32 35 37 40 37 36 37 40 42 46 49 48
26 20 17 17 18 19 20 20 19 19 20 19 20 20 21 21 20 21 23 25 24 22 23 24 25 26 28 30 31 32 32 33 36 37 38 38 37 37 41 43 42 44 43
20 19 21 22 20 18 18 17 17 19 20 21 22 22 23 24 25 27 29 30 31 29 29 30 31 32 33 34 35 34 33 32 33 32 31 33 33 31 30 30 31 39 42
24 21 21 19 19 18 16 16 19 21 23 23 24 25 26 27 28 29 31 35 35 35 35 35 35 36 36 37 36 37 36 34 34 34 33 35 34 31 31 33 39 44 45
28 25 21 20 19 19 17 18 20 22 22 23 23 24 24 24 24 26 28 31 33 36 38 38 39 39 39 40 39 37 36 35 34 33 34 34 30 30 34 40 44 50 53
32 30 28 25 23 24 22 23 23 21 23 24 24 23 21 21 23 26 27 29 30 31 32 33 36 38 40 40 38 36 34 32 31 33 33 28 30 34 40 46 50 54 57
38 34 32 30 30 29 29 27 21 24 26 27 24 23 22 23 24 24 26 28 28 29 30 31 32 33 34 32 32 31 28 30 30 29 30 30 33 38 43 49 54 56 59
36 35 34 33 32 33 33 32 29 27 29 31 28 26 27 28 28 26 29 28 29 28 28 28 29 29 28 28 26 25 28 28 28 28 31 33 37 41 47 51 54 57 58
27 29 31 34 36 36 37 37 33 29 29 30 32 32 34 35 32 31 31 29 28 29 29 28 27 25 26 24 24 25 27 27 28 30 33 36 39 45 50 52 55 53 52
31 33 36 37 37 37 38 38 38 37 35 34 35 38 37 34 32 31 29 28 29 29 27 26 25 23 23 26 26 26 26 27 28 31 35 38 43 49 50 51 48 48 46
27 28 31 35 38 40 40 40 40 40 39 40 36 34 32 32 31 32 32 31 30 26 24 24 23 25 26 26 25 26 28 29 30 33 36 41 45 46 45 44 44 43 42
20 18 20 23 25 27 31 38 42 41 37 34 33 33 31 31 32 30 30 27 25 25 24 24 25 25 26 27 27 27 28 30 31 34 39 42 44 42 40 40 38 37 38
20 20 20 22 21 18 20 24 28 30 31 33 34 35 31 26 26 24 24 25 24 25 25 27 28 29 30 29 28 29 30 31 35 38 39 40 40 38 36 33 33 33 33
20 18 21 23 17 11 9 9 11 15 22 27 29 27 23 24 26 27 23 30 27 26 28 31 31 30 29 30 30 31 33 35 37 38 39 39 37 34 32 30 30 30 30
22 22 20 17 14 10 8 8 9 11 14 18 21 23 24 25 28 29 32 30 30 34 32 30 30 30 30 31 33 35 36 37 38 39 38 38 37 34 30 29 29 29 28
21 23 27 26 24 18 14 12 12 13 15 20 24 26 27 30 34 36 34 34 34 32 30 30 30 31 34 36 37 39 39 39 40 41 40 39 38 35 31 30 29 26 26
24 28 32 30 31 27 21 17 18 17 17 21 27 30 32 33 32 32 32 32 31 30 30 31 32 34 36 38 39 41 41 39 37 35 34 33 32 32 30 26 28 27 24
33 32 34 34 29 24 24 20 22 21 24 21 23 28 26 28 32 31 30 30 31 32 32 33 34 35 36 36 35 35 35 35 36 34 32 31 29 27 24 22 25 27 25
40 37 30 31 25 24 25 24 21 23 27 28 27 30 29 35 32 29 29 29 30 32 33 34 34 33 33 34 34 34 35 33 32 31 28 24 22 23 23 23 27 29 30

GFSGL_700_spd_045.txt.gz
Wind_Speed
34 34 34 34 33 33 31 27 25 23 23 20 18 18 18 16 17 19 21 21 21 20 17 14 12 11 9 8 6 5 4 4 3 4 5 7 8 12 14 16 17 18 20
34 35 35 34 34 34 32 29 27 25 24 22 21 20 19 17 17 19 23 23 23 23 22 20 17 15 13 12 11 10 9 10 10 11 13 15 16 19 20 22 24 26 27
35 35 35 36 36 34 32 31 29 28 25 24 24 22 21 19 18 18 20 23 24 24 24 23 22 21 19 17 16 16 16 18 19 19 18 22 22 25 27 29 31 32 33
34 33 35 35 35 34 32 32 31 29 27 27 25 23 22 21 20 19 19 19 21 24 24 23 22 23 21 21 21 21 22 24 26 27 27 28 28 28 30 32 35 35 37
38 36 35 34 34 34 34 33 32 32 29 28 27 26 25 25 23 20 18 16 16 17 19 21 22 23 24 25 25 25 27 28 30 31 30 30 28 27 27 29 33 34 35
35 36 35 35 36 36 36 35 34 33 31 29 28 27 26 25 22 20 19 18 17 16 15 16 16 18 20 22 24 24 26 26 27 28 25 26 26 30 33 36 39 41 43
32 31 34 34 36 36 35 36 34 33 31 29 28 26 25 24 23 22 22 22 21 20 19 19 19 19 19 20 20 22 23 24 25 25 28 31 33 37 39 41 42 42 41
28 30 29 33 35 34 33 34 32 31 30 28 26 24 24 23 22 24 24 25 25 24 23 22 23 22 23 24 25 26 26 28 30 33 35 34 35 36 39 41 41 41 34
28 28 29 29 28 29 31 31 30 29 29 28 25 24 22 21 21 23 25 27 26 24 24 24 24 24 25 27 30 31 30 32 35 36 37 37 38 39 41 41 41 39 34
28 29 26 25 27 27 27 26 26 26 26 26 25 23 22 21 22 24 26 28 27 25 24 25 26 28 29 31 35 36 36 35 36 37 36 34 34 35 36 33 31 36 38
31 28 26 23 23 24 24 25 25 25 24 24 24 22 22 23 24 26 27 28 28 29 31 31 32 32 34 36 38 38 37 37 37 37 36 34 32 32 30 28 30 34 39
31 27 26 27 27 26 26 26 26 25 25 24 24 24 25 27 28 28 28 27 27 28 28 28 29 30 34 36 38 38 39 39 39 39 36 33 29 32 30 28 32 38 42
33 30 29 30 29 28 27 27 25 25 26 26 27 28 27 25 23 23 24 24 26 27 28 28 30 31 31 32 33 35 36 36 34 33 31 29 30 28 28 29 33 39 44
37 34 34 33 32 32 30 28 27 23 23 23 21 22 23 22 23 24 23 24 26 27 27 29 31 31 32 33 33 33 33 27 34 31 29 32 28 26 29 32 35 42 47
39 38 38 35 34 33 30 28 28 25 22 24 24 25 24 24 25 25 25 25 27 29 30 30 31 33 33 32 31 31 31 31 29 29 31 28 26 27 31 34 39 45 50
43 42 42 39 35 34 29 27 31 33 34 35 30 28 26 28 28 29 31 33 32 32 31 30 30 32 31 29 28 28 26 26 28 29 29 27 28 30 32 36 42 47 50
35 33 33 28 27 35 28 25 26 28 31 34 35 33 31 31 33 35 37 37 35 33 31 27 28 28 28 28 26 25 26 28 29 29 27 28 30 32 34 38 42 46 47
22 22 39 23 25 20 21 24 25 25 26 28 30 30 30 32 36 38 38 37 35 33 30 27 29 28 26 25 25 26 27 27 27 29 30 31 32 33 37 40 42 44 43
23 20 19 21 25 30 31 32 35 36 35 33 33 34 36 39 37 35 34 35 33 31 29 28 25 26 26 26 26 26 27 29 30 30 32 32 33 35 38 41 41 42 41
28 28 27 27 26 25 25 26 29 32 36 39 39 39 38 36 33 31 29 28 28 27 27 28 29 26 25 26 28 29 30 30 31 32 32 33 35 37 39 42 43 41 38
28 31 29 27 25 22 22 23 25 25 27 27 27 28 29 28 26 26 25 23 24 29 26 25 27 27 28 30 30 30 30 31 31 32 33 34 36 39 41 43 43 41 35
22 24 22 20 20 20 22 22 24 22 19 16 17 20 21 22 24 25 25 22 25 28 29 34 30 30 31 30 30 30 31 32 33 34 36 37 39 42 43 44 43 41 36
23 23 23 22 22 21 22 21 21 21 20 19 19 20 23 24 26 25 26 29 30 34 36 34 33 32 31 31 30 30 31 34 36 37 39 39 40 41 42 40 37 35 34
23 24 28 30 29 27 26 26 26 26 24 23 20 20 22 24 28 32 34 35 35 36 35 34 33 34 33 33 33 34 35 35 36 36 37 37 37 38 39 38 34 30 30
26 25 26 29 31 30 30 31 33 32 31 29 26 24 22 25 29 32 36 35 33 34 35 35 34 33 33 33 35 36 36 35 35 36 36 36 37 37 36 33 28 26 23
34 31 30 33 33 32 32 32 33 36 34 30 27 27 27 26 28 35 34 32 35 33 32 33 33 33 34 35 35 34 35 36 35 36 37 35 34 33 31 29 24 25 26

GFSGL_700_spd_048.txt.gz
Wind_Speed
33 34 36 36 34 33 32 29 28 26 24 23 21 19 17 16 16 17 17 18 18 16 13 11 10 10 10 8 7 6 5 4 4 5 7 9 11 15 18 20 23 26 29
31 32 33 34 34 34 33 31 30 28 26 25 23 21 19 18 17 17 19 19 19 20 19 16 14 13 12 11 10 9 9 10 10 11 14 16 17 21 23 27 29 32 35
27 32 33 34 35 34 32 32 33 31 28 27 25 24 21 19 18 17 19 21 21 22 23 22 20 18 15 14 14 14 15 16 17 17 17 20 23 26 29 31 34 35 36
30 30 33 33 33 32 32 33 33 32 30 29 28 25 23 22 21 19 18 20 22 24 24 24 23 23 21 20 21 21 22 22 23 24 25 26 28 29 30 29 30 32 35
33 31 31 32 31 32 34 35 34 33 31 30 30 28 26 25 23 20 19 18 20 22 25 26 24 23 23 23 24 25 26 27 28 29 29 29 26 24 25 28 34 36 39
33 34 32 30 33 34 34 35 36 35 32 31 31 30 29 27 25 22 21 20 20 20 20 21 22 23 24 25 26 27 28 28 27 28 27 25 24 28 32 35 38 42 39
34 35 36 34 32 33 34 35 37 36 34 33 32 31 29 27 24 23 23 23 22 22 20 19 19 19 20 21 22 24 25 24 22 21 22 24 29 34 36 38 39 40 42
35 34 35 37 37 36 35 36 36 36 36 34 33 31 29 27 25 24 24 24 25 24 23 21 21 21 20 20 22 23 23 25 27 28 28 30 34 37 41 42 40 39 40
38 35 31 31 33 36 37 38 36 36 37 34 32 30 29 26 25 25 25 27 27 25 24 24 23 23 23 24 25 26 28 29 31 33 35 38 40 42 43 43 41 39 34
38 36 28 29 31 30 37 36 34 33 33 32 31 31 28 27 27 27 28 29 27 25 25 24 24 25 25 27 30 33 34 33 37 39 41 42 42 42 41 41 37 33 37
37 37 30 32 30 28 27 32 35 34 34 33 33 31 29 28 29 30 30 31 28 26 25 25 26 27 28 32 35 38 39 39 41 43 43 42 41 39 36 35 31 33 34
38 35 30 32 28 31 33 34 35 35 34 33 32 31 30 29 29 29 30 30 29 28 29 30 31 32 30 33 36 36 36 38 40 40 40 39 36 33 30 30 32 31 31
40 35 33 31 29 27 30 33 35 34 34 33 33 32 30 30 29 30 30 30 31 29 27 26 26 26 27 29 30 31 33 34 36 36 34 28 30 31 32 34 31 30 31
44 40 38 35 32 32 32 32 33 34 34 34 34 34 34 33 31 30 27 26 24 24 24 25 27 28 29 30 30 32 35 35 35 32 31 32 32 31 32 31 30 31 31
48 46 41 39 36 37 38 39 39 38 38 36 35 33 30 29 28 26 26 25 24 22 24 27 29 31 33 34 35 36 36 33 33 31 29 33 29 28 29 30 30 31 32
50 47 45 41 39 39 40 40 40 37 33 31 30 29 30 30 28 26 28 27 26 27 30 31 32 34 37 36 36 36 35 35 32 31 30 28 28 28 28 30 31 32 34
43 45 42 44 45 43 42 44 45 43 39 36 34 34 33 29 29 30 29 28 28 30 33 36 36 37 37 37 35 33 32 31 28 27 28 28 28 28 29 31 32 33 35
48 39 43 40 42 42 44 47 47 43 31 35 34 33 31 30 30 32 32 31 31 33 36 36 35 36 37 36 33 29 31 29 28 28 28 28 30 31 31 32 33 34 36
29 29 28 25 40 42 32 21 41 28 23 25 30 33 34 34 34 34 33 34 34 35 35 35 34 33 33 33 30 29 29 30 29 29 29 31 32 33 33 33 34 35 36
33 29 28 26 22 20 24 39 32 36 31 30 32 34 35 37 39 38 37 35 33 34 34 33 31 31 31 28 29 29 29 30 30 31 32 33 33 33 32 33 34 37 38
24 25 28 32 31 24 33 38 36 24 24 27 32 33 35 37 38 37 34 31 30 30 29 27 25 27 27 30 30 30 32 33 34 34 34 33 32 32 33 34 35 37 39
23 26 27 26 25 22 25 24 22 26 27 27 29 30 30 31 30 29 29 29 28 27 27 27 26 24 26 28 32 35 34 34 33 32 32 32 33 34 35 36 37 36 38
17 22 24 23 22 23 26 25 24 26 27 29 29 28 27 28 28 27 25 26 28 25 26 30 31 32 32 32 32 31 31 32 32 32 32 33 34 35 36 36 37 36 37
20 19 22 24 25 24 25 26 28 28 27 27 27 28 28 29 27 28 28 28 30 29 32 34 36 35 33 33 32 31 31 32 32 33 34 35 35 36 36 36 36 38 36
24 28 24 28 29 28 25 24 25 25 26 27 27 28 28 29 28 28 28 28 28 28 29 31 33 32 32 34 35 33 32 32 33 34 35 36 35 35 36 35 35 34 34
32 27 26 27 30 34 30 30 33 33 33 34 35 34 34 35 35 33 32 31 31 32 30 29 30 34 36 35 36 36 35 34 34 34 36 37 36 36 36 38 36 33 32

GFSGL_700_spd_051.txt.gz
Wind_Speed
32 33 34 35 36 35 34 31 29 27 24 24 20 19 17 16 15 16 16 15 14 12 9 8 10 9 9 8 6 5 3 3 4 5 7 10 13 16 20 26 30 33 35
28 30 31 33 35 37 35 33 31 28 26 24 22 21 19 17 16 17 17 17 16 17 15 12 10 10 10 9 8 8 8 9 9 10 13 15 19 22 25 26 28 30 32
29 29 31 33 35 37 35 34 32 30 27 26 24 24 22 19 18 17 18 18 18 18 18 17 16 14 13 12 12 13 13 14 15 16 16 18 22 26 29 30 29 28 30
25 26 30 31 32 35 34 33 33 30 28 27 26 25 24 22 20 19 19 19 19 20 19 19 19 20 18 17 17 17 18 19 20 21 22 23 25 27 27 25 30 34 37
28 28 25 28 30 31 33 33 32 31 29 27 27 27 27 25 24 21 20 19 18 19 20 21 20 20 21 21 21 21 22 22 23 24 26 27 26 24 25 28 32 36 41
30 28 25 22 28 31 31 33 33 32 30 29 29 28 28 28 26 23 21 21 20 19 20 19 21 22 22 23 24 23 25 25 24 25 26 25 23 25 29 34 37 38 39
32 33 31 27 25 26 31 31 33 33 32 32 31 30 30 29 28 25 24 23 23 22 21 19 20 21 21 22 22 23 23 23 23 22 22 22 26 28 32 35 38 42 43
34 34 34 29 27 27 27 31 32 33 34 33 32 31 30 29 28 27 26 26 26 24 23 22 21 20 20 19 20 20 20 22 23 26 26 28 31 34 37 39 41 45 45
37 36 34 34 29 30 30 28 29 31 33 34 32 32 31 29 28 27 27 28 28 25 24 23 23 21 21 22 23 22 23 24 27 28 30 33 36 39 42 44 45 46 44
39 37 34 35 30 28 29 30 29 28 30 31 32 32 31 28 28 28 29 30 29 27 26 25 24 23 22 23 24 26 27 28 31 34 37 39 43 45 47 46 43 40 35
41 43 39 36 31 27 28 30 32 31 30 32 33 32 31 30 29 29 31 32 29 28 26 25 24 24 24 25 27 30 32 34 36 40 42 43 44 44 42 39 34 31 31
37 44 43 40 34 31 29 29 30 34 34 33 34 33 32 31 30 32 34 33 31 28 26 26 26 27 28 27 30 35 37 36 37 37 37 38 39 40 34 33 36 35 33
34 38 44 42 37 32 31 31 31 31 36 39 37 37 34 33 34 35 35 35 34 32 30 30 28 30 30 27 28 31 33 34 35 36 37 36 33 31 31 34 33 30 30
38 39 48 46 39 37 33 35 35 35 34 35 38 37 36 35 36 37 36 37 37 35 32 30 30 28 28 28 28 29 31 34 35 36 36 34 29 27 31 35 33 29 29
42 39 46 43 42 38 36 34 30 37 38 38 37 36 36 36 38 37 35 36 34 33 32 30 29 29 26 26 29 31 33 34 36 37 35 33 31 32 30 30 29 29 29
43 42 43 47 45 43 38 36 34 33 34 35 35 35 34 34 31 34 35 35 32 32 31 30 29 26 27 29 32 35 36 36 36 36 34 32 31 27 28 29 28 29 29
44 51 47 48 51 47 41 39 38 36 37 37 38 36 38 38 34 35 33 29 32 30 31 31 31 30 31 33 36 37 37 37 36 34 30 30 28 27 28 28 28 30 31
50 51 50 46 56 51 46 43 40 42 44 41 41 38 39 36 32 31 31 33 32 31 31 33 33 33 35 35 35 35 36 34 32 31 30 29 28 28 28 30 30 30 30
37 41 41 42 45 42 40 40 39 38 40 40 40 37 35 34 36 36 36 38 36 34 36 37 35 35 36 34 34 34 34 34 30 30 28 28 29 29 31 31 31 30 30
41 43 43 32 29 34 36 42 38 37 24 37 39 38 41 35 35 34 38 40 34 36 37 37 37 39 37 36 32 32 34 32 29 31 30 30 31 32 32 32 31 31 32
35 35 36 36 45 50 43 46 27 29 22 26 30 37 43 38 28 33 37 35 35 38 41 43 42 40 35 31 29 29 31 33 32 31 32 33 34 33 32 31 31 33 35
24 34 38 38 38 37 35 32 39 43 43 37 40 47 39 37 38 40 41 38 37 39 42 40 36 32 29 27 28 29 29 30 31 33 35 34 33 32 32 31 32 33 34
23 26 32 33 32 31 28 25 27 33 34 33 35 37 37 36 36 36 37 38 36 35 34 34 31 29 31 32 31 32 33 33 33 32 32 32 33 34 33 32 33 34 35
18 18 22 26 27 28 31 34 34 31 31 33 37 33 31 31 32 36 35 35 32 33 34 32 34 34 34 36 37 35 33 31 31 32 31 32 34 35 34 34 34 35 35
23 21 21 20 22 25 29 28 31 29 28 26 26 27 26 33 35 35 34 36 34 33 34 37 37 34 34 33 32 29 28 30 31 32 33 34 36 36 38 37 37 35 35
31 32 31 31 31 31 23 21 23 27 28 28 30 30 30 34 38 39 38 37 36 36 36 37 36 35 33 30 29 30 32 33 33 32 34 36 36 38 38 38 39 38 35

GFSGL_700_spd_057.txt.gz
Wind_Speed
29 28 28 28 29 28 25 23 20 18 18 14 10 10 11 10 10 10 11 12 12 11 9 9 8 10 12 11 10 10 9 7 4 2 2 6 10 14 18 20 18 14 16
32 30 29 28 28 31 29 25 23 21 21 18 14 12 11 11 11 12 13 12 13 13 11 11 11 10 9 10 10 9 8 7 6 4 5 7 10 14 16 17 15 16 21
34 34 32 31 30 31 31 28 26 24 23 22 18 14 15 14 13 13 13 14 14 14 14 13 12 13 12 11 10 9 9 9 8 7 7 10 12 15 16 16 16 20 25
32 33 32 30 30 30 31 31 30 28 26 24 22 19 16 16 15 15 14 14 13 15 16 16 17 15 14 14 14 13 12 12 12 13 12 12 13 15 16 15 17 23 26
30 30 25 30 29 30 31 31 31 31 28 26 24 22 22 20 19 18 16 15 14 14 15 17 18 19 20 20 19 17 17 16 16 16 15 17 14 13 14 17 21 25 27
32 29 25 22 29 30 29 30 31 29 30 30 28 27 25 24 21 20 19 17 17 17 15 15 17 20 21 21 21 19 19 18 17 17 18 15 12 13 16 21 25 29 31
34 31 29 26 23 29 28 28 28 30 29 31 31 29 28 25 24 23 22 21 19 18 18 17 16 17 19 21 22 21 20 19 18 18 16 12 14 17 21 24 27 31 34
26 30 30 32 27 24 28 30 29 28 30 30 30 31 30 28 25 25 24 24 23 22 21 20 19 18 18 19 19 20 18 18 16 16 16 17 18 21 24 28 31 34 34
32 28 29 30 30 25 23 22 27 29 29 30 29 30 31 29 28 26 26 27 26 25 23 22 22 21 20 21 20 19 18 17 16 18 19 19 20 23 27 30 34 34 32
20 22 26 30 32 29 25 25 22 21 24 28 29 29 29 29 28 27 27 28 27 26 26 25 24 22 22 22 23 21 18 15 18 19 20 21 24 27 30 32 30 30 31
24 20 24 28 29 27 28 29 27 24 23 22 26 29 29 30 30 29 28 29 29 27 28 26 25 24 23 23 24 25 22 21 22 23 24 24 26 27 27 28 29 31 31
31 30 33 28 32 34 32 31 32 31 29 27 26 26 29 30 30 30 30 31 29 31 29 27 27 26 26 26 26 25 24 24 24 25 27 28 26 26 26 27 28 30 29
35 36 36 33 30 36 37 35 34 35 33 31 31 31 28 29 29 29 29 30 30 32 32 30 30 29 29 29 29 28 26 25 25 26 27 26 26 26 27 29 29 29 26
43 44 42 39 32 34 39 40 38 36 37 35 32 31 33 33 32 31 31 30 30 32 33 34 32 31 32 31 29 26 25 24 26 26 24 25 25 27 28 30 31 28 25
37 43 41 38 36 32 35 39 41 39 38 36 30 27 28 28 31 29 29 29 29 32 32 34 35 35 33 32 31 28 26 27 28 25 25 26 27 29 30 32 30 26 24
39 37 44 44 41 38 36 34 38 40 40 39 31 30 31 29 26 26 30 29 28 29 31 33 33 33 34 33 33 31 30 29 26 27 26 27 30 33 33 30 29 24 24
36 36 40 45 46 43 41 39 37 36 41 42 35 33 33 32 34 30 28 26 25 24 27 29 27 28 31 33 33 33 33 29 28 26 26 30 32 32 32 29 29 25 25
39 33 39 43 48 47 46 44 43 39 40 43 37 35 35 29 32 34 32 25 21 22 24 24 24 26 28 27 29 29 29 27 24 24 27 30 32 32 32 31 27 28 25
39 35 39 41 45 44 47 48 47 43 39 43 42 38 38 31 27 23 21 22 24 26 27 28 33 33 31 32 29 26 22 25 27 27 31 32 35 34 34 32 25 27 27
42 45 42 41 47 44 42 43 51 48 43 46 43 41 33 33 31 27 24 24 28 30 30 31 34 39 40 52 45 26 21 27 27 30 35 36 36 34 33 31 30 28 28
33 37 43 47 48 45 40 43 46 44 40 45 45 38 35 35 34 31 28 26 29 32 31 31 32 36 46 41 56 49 46 27 26 34 41 40 33 30 29 29 29 29 28
37 36 33 41 43 43 46 48 46 45 40 38 39 42 41 39 34 30 34 32 31 33 33 34 35 34 37 37 25 27 29 25 32 37 35 34 31 31 32 30 29 27 28
30 36 25 31 40 41 43 46 45 49 49 16 35 35 29 27 28 30 33 33 33 36 34 31 29 28 28 28 19 24 27 30 30 33 33 31 33 33 35 37 32 28 28
29 27 23 35 35 41 44 48 45 36 37 31 49 40 31 34 34 30 29 33 34 33 35 33 29 32 30 24 20 23 25 24 29 25 25 34 35 35 34 33 30 29 30
27 18 26 15 27 24 37 31 26 26 30 33 34 36 33 32 27 27 32 29 22 24 24 26 26 25 17 19 22 22 26 34 37 33 33 34 33 30 28 30 32 33 33
12 15 13 12 11 10 14 21 17 16 16 11 14 18 21 24 25 27 18 19 24 21 23 18 25 28 27 26 23 23 25 28 32 35 32 33 33 32 33 34 35 36 35

GFSGL_700_spd_060.txt.gz
Wind_Speed
31 33 34 34 33 30 27 24 21 19 18 16 16 17 15 16 15 15 14 13 10 9 9 12 12 12 16 17 16 12 11 9 8 6 4 2 5 9 13 14 14 11 13
33 33 35 34 34 34 31 27 24 21 20 17 15 12 15 16 15 15 16 16 15 12 10 11 13 15 15 14 13 11 11 10 8 6 5 7 9 12 14 14 13 12 16
31 35 35 36 36 37 36 32 29 27 24 21 19 17 17 15 14 15 16 16 17 17 16 14 14 16 17 17 16 14 13 12 11 11 10 10 10 14 14 14 13 14 19
30 33 38 38 37 36 37 37 34 31 30 27 23 19 18 18 17 17 17 17 19 19 20 19 17 16 17 18 18 17 16 15 14 13 12 12 12 15 16 15 12 16 19
31 33 35 38 38 37 37 38 36 34 33 32 30 26 23 22 21 19 18 17 18 21 21 21 22 21 20 20 20 19 18 17 17 16 15 15 14 16 17 15 16 19 21
30 33 33 33 39 38 39 38 39 38 35 34 33 30 27 25 23 21 20 20 19 20 21 23 23 23 24 24 24 23 23 22 21 21 18 17 16 16 16 15 18 21 24
30 33 35 33 34 37 37 39 38 40 38 37 37 35 32 29 26 24 23 23 23 22 21 21 22 23 24 25 25 25 25 25 24 22 21 19 17 15 16 17 20 23 26
40 36 37 35 33 31 33 36 37 38 39 38 37 37 36 33 30 28 26 26 25 25 24 23 23 22 21 22 23 25 26 25 24 24 23 17 18 16 18 21 21 25 28
46 38 38 33 33 29 31 29 34 36 37 36 34 36 36 35 33 31 30 31 28 26 26 26 25 24 22 22 23 22 22 22 21 21 21 19 18 19 21 22 24 28 28
44 45 40 28 25 24 31 31 27 30 32 33 33 32 33 34 34 33 32 32 32 29 28 28 27 26 25 25 26 25 24 20 21 24 23 20 19 20 22 24 26 26 28
44 45 41 31 27 23 26 28 33 31 28 29 33 32 31 32 33 34 35 36 34 32 30 29 28 27 26 25 25 27 25 22 22 24 21 19 19 21 23 25 25 26 27
55 51 47 37 30 20 24 26 31 36 35 32 29 29 33 33 32 33 34 35 33 33 32 29 27 26 26 26 27 26 26 25 25 24 22 19 21 23 24 25 25 26 27
33 50 34 36 32 27 25 25 26 34 39 37 35 31 28 29 31 33 32 33 33 34 32 31 29 28 27 28 28 27 27 26 25 24 22 22 24 25 24 23 25 28 30
29 37 36 36 37 32 33 33 30 31 37 40 39 36 34 32 29 29 31 31 31 33 33 32 31 31 31 31 30 29 29 28 27 27 25 25 25 24 22 23 26 29 31
27 28 35 36 38 37 38 38 33 34 36 37 39 39 37 34 31 30 30 29 27 28 28 32 34 34 33 31 29 30 30 28 27 25 26 27 26 24 22 25 28 29 31
29 29 26 35 36 42 41 43 37 35 36 34 33 38 39 38 35 33 31 30 32 32 36 36 36 34 33 31 30 30 29 28 27 27 27 27 26 25 25 27 28 28 26
36 34 32 34 40 47 48 46 41 36 33 31 30 34 40 40 38 35 32 31 29 33 38 39 36 34 32 32 32 33 31 28 28 27 26 27 26 26 26 26 27 25 25
46 38 38 38 42 45 46 47 42 40 37 35 33 30 34 42 39 37 35 35 35 32 31 31 31 30 33 35 35 32 31 31 26 20 20 23 26 26 26 28 29 28 26
53 45 41 42 43 43 45 48 46 42 42 41 38 37 31 38 41 38 33 33 34 32 33 32 30 30 31 32 28 26 27 32 37 35 41 32 26 26 27 32 34 32 30
52 53 53 48 44 44 40 37 37 38 39 41 41 40 38 36 42 40 31 28 26 28 29 29 26 26 26 25 26 26 28 31 35 42 52 52 34 28 29 33 34 32 31
51 51 52 49 45 45 43 38 39 39 40 38 37 39 40 36 42 37 33 33 31 31 31 31 29 27 26 27 28 28 31 34 39 40 43 49 50 55 47 30 31 30 29
49 50 48 44 45 47 50 46 44 46 47 44 39 38 37 36 35 36 35 32 30 32 33 33 30 29 28 27 27 30 34 30 29 30 34 43 38 31 31 31 35 34 31
44 42 41 42 45 46 45 48 48 48 48 46 38 38 35 40 42 41 36 34 36 38 38 34 32 30 29 27 28 30 27 23 23 21 22 27 32 30 30 34 33 31 32
29 33 42 34 25 33 37 32 43 50 47 48 42 36 31 37 47 40 39 39 43 36 34 33 32 34 34 31 29 26 27 29 30 31 31 27 29 30 29 29 29 29 30
35 29 29 35 24 26 37 32 30 42 34 41 48 44 46 38 40 52 50 38 39 33 32 34 35 37 37 34 30 28 28 28 28 32 30 27 28 31 29 29 29 28 29
22 25 28 21 24 22 28 36 37 38 40 29 38 41 46 36 42 48 45 44 40 33 36 30 23 24 25 22 20 22 26 25 25 28 26 24 27 30 29 28 28 31 34

GFSGL_700_spd_063.txt.gz
Wind_Speed
24 25 29 29 27 26 25 23 20 17 17 16 17 17 16 15 13 12 12 11 10 10 10 11 13 15 17 20 20 17 15 14 12 10 8 6 7 8 11 15 12 10 13
20 24 27 29 30 30 28 25 24 21 19 17 16 18 19 16 16 16 15 13 13 12 12 12 12 13 16 20 19 17 14 13 12 10 9 8 9 12 14 14 14 12 14
21 24 27 29 31 32 31 29 27 25 24 23 21 20 17 18 17 17 18 17 16 15 14 13 14 15 16 18 18 17 16 14 13 12 11 11 11 15 15 17 15 13 16
30 25 28 30 30 31 32 32 31 29 28 27 25 23 21 19 18 17 19 19 19 20 19 18 17 17 18 19 19 19 18 17 17 16 15 15 15 17 19 19 14 16 16
39 34 28 27 27 29 32 33 35 34 32 30 29 27 24 23 22 22 21 21 21 22 23 23 22 21 21 22 22 22 22 21 21 21 19 18 16 18 21 21 18 18 16
38 35 30 29 27 28 31 33 35 37 37 36 34 32 30 27 25 23 23 23 23 23 24 25 25 27 26 25 25 24 25 25 24 23 22 20 18 20 22 21 21 22 19
35 33 30 31 30 29 29 33 36 38 39 39 38 37 35 32 29 27 26 27 25 26 25 26 27 28 28 28 29 29 29 28 27 27 25 23 22 22 23 21 22 22 21
32 29 31 31 31 30 28 32 34 37 39 40 40 40 39 37 34 31 29 30 29 28 28 27 28 28 28 29 29 30 30 29 28 28 27 25 25 23 23 23 22 21 21
37 37 35 33 31 28 28 32 31 35 36 38 39 41 40 38 37 35 33 34 33 31 30 31 30 30 28 28 29 29 28 26 26 27 28 27 25 22 21 23 22 23 23
40 41 38 37 33 31 26 26 32 32 31 33 35 36 37 37 37 36 37 36 36 34 32 32 32 32 30 30 30 30 29 24 24 25 27 27 24 21 23 25 23 22 24
32 32 36 35 33 32 27 26 29 36 32 31 30 32 33 32 34 36 37 39 38 36 35 34 32 31 31 31 32 33 30 27 28 28 30 28 25 24 24 25 23 23 25
34 36 38 40 39 36 32 28 28 36 37 34 31 28 32 33 32 33 35 38 37 38 36 34 33 31 32 33 34 34 33 32 32 29 30 26 24 23 24 25 25 25 25
21 28 36 37 40 38 32 32 33 34 38 37 34 31 30 30 31 32 33 34 36 38 36 34 33 33 33 34 36 35 34 34 33 31 29 27 24 26 26 25 27 25 23
16 16 24 22 34 41 40 37 35 31 36 40 37 35 34 32 30 29 29 31 33 34 35 35 34 35 36 37 36 36 36 34 33 32 30 28 26 26 27 27 25 25 24
26 21 29 26 27 33 40 42 41 34 35 37 37 34 36 35 34 32 30 29 28 27 28 32 35 37 37 38 37 35 34 34 33 32 31 29 28 29 27 26 25 24 24
35 27 27 33 34 39 41 40 38 33 34 34 28 30 32 35 35 35 36 37 36 35 36 36 37 38 38 36 36 35 34 35 33 34 34 32 32 32 28 26 24 24 24
41 36 31 29 29 46 35 41 43 35 33 32 31 33 34 32 33 36 37 38 37 37 41 43 44 44 40 37 36 36 36 36 35 37 37 34 34 33 30 28 28 25 24
54 44 37 32 30 27 29 33 49 48 41 38 37 35 33 33 35 36 36 37 38 37 40 39 36 39 39 40 39 39 39 38 34 32 32 32 33 30 32 33 33 36 32
58 50 43 38 35 32 34 35 36 46 44 40 38 38 36 35 35 31 30 36 38 39 41 40 37 36 34 33 36 39 40 35 32 27 24 25 23 22 27 32 38 46 50
59 65 56 52 46 42 40 39 39 44 44 41 41 40 39 40 36 34 32 32 39 41 39 37 36 36 37 35 33 34 32 28 26 29 28 26 30 35 34 35 40 41 42
57 59 69 59 55 51 46 44 42 42 43 44 37 36 36 35 35 38 36 37 39 41 37 37 35 33 33 34 35 36 35 31 29 27 29 32 39 42 41 36 41 44 50
57 55 62 61 60 56 50 49 48 47 45 45 42 39 37 38 37 37 36 37 37 42 42 39 34 31 35 35 35 33 31 30 29 32 36 36 38 39 40 37 35 36 34
55 57 61 64 64 58 53 52 50 52 48 44 45 44 42 41 39 39 38 38 36 40 40 40 40 37 35 34 37 33 31 33 36 37 36 32 32 33 29 29 30 28 24
48 49 55 56 57 53 55 52 49 50 47 47 46 44 48 48 47 44 40 37 39 39 39 41 43 42 41 40 32 39 41 38 40 36 35 30 31 30 29 28 26 28 31
29 33 39 41 42 46 45 47 47 48 49 48 48 49 50 46 47 42 45 42 38 38 40 43 46 45 40 37 42 42 39 40 38 39 37 33 33 32 29 27 28 29 30
28 29 28 29 29 36 41 39 41 46 42 44 40 43 42 41 47 46 41 43 42 41 42 44 50 51 50 48 46 46 39 34 35 37 33 29 26 28 30 30 30 31 30

GFSGL_700_spd_066.txt.gz
Wind_Speed
18 18 19 20 20 21 21 20 19 17 17 19 19 17 15 12 11 10 10 9 9 9 9 11 13 15 16 18 18 17 16 15 14 13 12 11 11 10 11 13 14 14 13
17 17 19 19 21 23 23 22 21 19 19 17 19 19 18 16 15 13 12 12 11 10 11 11 11 13 16 19 20 20 18 16 15 15 14 13 12 13 13 15 17 18 16
24 25 23 21 23 23 23 24 24 23 22 20 20 18 19 19 18 18 16 15 14 13 13 12 13 13 13 16 20 21 20 18 17 16 15 14 14 15 17 20 20 19 18
31 30 33 29 25 25 24 26 27 26 25 24 23 20 19 19 21 21 21 18 17 17 16 15 15 15 14 16 18 20 21 20 19 19 17 16 17 18 21 22 20 20 19
30 31 32 32 30 29 28 26 27 29 28 27 27 26 23 23 22 22 23 21 20 20 20 20 19 18 18 18 20 20 22 22 22 22 21 20 19 21 24 25 24 22 18
29 27 33 33 32 32 31 29 28 28 29 31 31 30 29 28 26 25 25 24 24 24 23 23 23 23 23 22 23 23 24 25 25 26 25 24 23 23 26 26 25 25 22
25 26 33 39 35 32 31 32 31 31 30 31 32 34 34 32 30 28 27 28 27 27 27 26 26 26 27 27 28 28 27 27 28 28 27 27 27 27 27 27 27 25 24
27 17 24 31 32 32 34 34 32 32 33 32 32 33 35 35 33 32 30 31 31 30 30 29 29 30 30 30 30 31 31 31 32 32 32 30 29 29 29 29 27 25 24
32 24 20 26 33 35 33 34 32 32 32 32 32 34 36 35 36 35 34 35 35 34 32 32 32 32 31 31 33 33 32 31 31 31 31 31 31 30 31 29 27 27 25
35 30 28 30 31 35 32 33 32 32 31 30 33 34 35 36 37 37 36 37 38 36 35 35 34 33 32 32 35 34 33 27 29 29 29 30 31 30 29 26 27 28 27
24 28 32 32 34 34 31 32 34 36 33 31 30 30 33 34 34 35 37 38 38 37 37 37 34 32 32 34 35 36 33 30 31 32 33 32 32 31 28 27 29 31 28
16 19 31 32 33 32 33 31 32 37 36 35 34 31 29 31 32 33 33 36 35 37 37 36 35 33 33 34 37 37 36 36 37 37 37 34 33 32 30 31 31 31 28
22 15 16 22 27 29 32 32 32 33 35 34 36 36 31 31 31 33 32 32 33 35 35 34 33 34 35 36 38 38 38 40 40 40 38 34 31 32 34 34 33 32 30
26 22 17 15 16 21 27 31 32 36 35 32 32 34 33 31 30 30 30 31 31 32 31 30 30 33 34 37 39 40 41 40 40 40 38 36 34 34 35 35 34 33 32
38 33 28 21 16 20 21 24 32 36 35 33 32 31 34 34 34 34 32 29 27 25 27 29 31 33 33 34 37 39 39 40 41 39 37 36 36 36 35 35 35 34 32
57 49 44 35 27 23 24 23 27 32 34 33 31 32 37 36 33 33 33 32 32 34 36 33 31 32 33 33 34 36 38 39 39 38 38 38 38 38 37 37 36 35 32
58 61 56 47 35 30 26 29 26 28 35 35 34 33 36 33 32 30 29 31 35 37 39 38 39 39 35 32 32 31 31 33 35 37 39 41 40 39 40 40 38 36 34
64 61 61 57 46 37 36 33 33 32 28 35 36 32 31 32 34 32 30 34 36 39 38 38 39 41 37 34 34 34 35 35 37 39 42 41 39 40 41 41 39 32 28
68 64 59 63 58 47 44 41 32 32 39 34 37 40 37 32 33 37 37 40 40 39 41 41 39 39 39 36 33 32 32 34 37 40 40 39 37 36 37 37 33 32 30
63 66 64 66 71 63 52 47 37 33 35 38 35 41 45 37 34 33 39 42 40 38 38 37 39 40 42 40 39 37 37 37 37 36 34 32 33 33 33 31 32 33 35
61 62 65 70 73 68 61 56 45 40 39 41 34 35 36 40 41 43 42 38 41 42 41 37 33 37 38 40 41 39 38 38 36 34 34 34 36 34 35 35 36 37 47
56 60 62 66 65 68 67 66 52 44 42 43 36 33 35 39 47 38 38 38 38 40 43 39 37 37 40 41 41 38 36 33 33 37 39 42 38 35 34 36 42 47 51
48 53 59 60 59 63 65 68 62 50 44 40 39 36 34 36 40 42 43 42 41 41 41 39 40 42 43 42 41 40 39 39 38 41 39 37 37 35 35 38 48 51 41
46 50 53 58 59 61 63 67 65 60 52 47 43 43 42 44 43 42 44 44 44 45 43 43 43 43 42 46 46 45 45 45 44 42 42 50 39 41 43 50 46 39 34
40 47 47 47 52 57 60 60 61 63 64 59 52 49 46 49 43 46 48 47 49 49 48 47 51 42 44 44 47 49 48 46 46 46 42 39 43 53 47 40 37 37 34
30 35 42 45 46 50 53 55 56 59 61 62 56 53 48 49 47 49 46 47 47 48 44 43 43 43 43 47 48 47 48 50 52 49 48 47 48 48 41 42 41 35 35

GFSGL_700_spd_069.txt.gz
Wind_Speed
22 20 18 16 14 15 18 18 15 14 16 17 17 16 15 13 11 10 9 8 8 7 8 11 14 16 17 18 18 19 18 18 16 15 13 13 13 14 14 16 16 16 19
22 22 21 17 17 17 19 19 18 16 16 15 16 18 18 17 14 12 11 10 9 9 9 9 12 15 17 19 20 20 20 20 19 17 16 16 15 16 16 17 17 18 21
27 26 24 22 21 19 19 20 21 20 19 18 17 17 19 20 18 16 15 14 13 12 11 10 11 13 14 18 20 21 22 22 20 18 18 18 17 18 18 19 20 21 23
32 32 30 26 23 21 20 21 22 24 23 22 21 18 19 20 21 20 19 17 17 16 15 14 14 13 14 16 19 22 23 23 22 21 19 19 19 19 21 22 21 22 23
33 35 34 32 30 29 28 26 24 25 27 26 25 25 23 23 22 21 21 21 21 21 20 19 17 17 17 18 19 19 22 23 23 23 21 21 21 21 23 24 25 25 23
31 32 33 33 33 33 34 33 31 30 29 30 30 29 29 28 25 22 22 22 23 24 23 23 23 22 21 21 21 22 23 24 24 25 24 24 23 24 26 26 26 28 28
30 29 28 31 32 35 36 37 37 35 33 32 31 32 32 31 29 26 25 27 27 27 26 26 27 26 26 26 26 26 25 26 27 27 26 25 26 26 29 28 29 29 29
43 32 28 30 34 36 41 39 37 36 36 34 33 33 33 33 32 31 30 31 32 31 31 30 29 29 29 29 29 30 30 30 30 29 29 28 29 30 31 31 31 30 29
37 41 32 27 31 35 46 40 36 37 36 35 35 35 35 34 33 33 34 36 37 35 34 33 33 32 30 29 32 32 32 31 32 31 32 31 31 31 32 31 30 30 29
39 38 25 30 26 32 42 44 38 38 36 36 36 36 35 34 34 34 36 38 40 38 37 37 36 34 32 32 34 34 35 31 31 32 32 32 32 31 31 30 28 27 28
28 31 37 36 29 32 37 41 41 40 39 38 37 36 35 34 33 33 35 38 39 39 39 39 38 36 35 34 33 36 35 32 35 36 35 34 33 33 32 31 30 29 30
22 25 29 33 32 30 34 36 40 40 40 41 40 38 34 31 29 28 30 34 34 38 39 38 37 37 37 38 37 36 35 36 39 40 38 36 34 33 33 34 35 34 32
25 18 20 23 20 24 28 32 41 40 40 40 41 40 38 34 29 28 27 29 32 34 35 36 35 35 37 40 41 39 39 41 40 40 39 37 36 35 35 36 37 37 36
35 29 24 18 15 18 19 25 33 37 41 40 42 41 40 37 35 33 30 29 31 33 31 32 32 34 35 37 40 42 43 43 42 41 40 37 36 35 35 35 37 37 38
44 43 38 31 25 19 18 19 23 24 33 37 40 40 37 36 33 30 31 31 31 28 28 31 35 36 35 34 35 38 39 40 40 39 38 38 37 36 35 35 37 37 40
53 47 49 43 36 28 26 24 23 25 24 29 36 41 38 36 33 32 31 32 33 34 35 32 30 30 32 33 33 34 35 37 37 37 37 37 37 37 36 36 37 39 40
62 57 56 55 48 40 35 33 31 28 26 27 28 35 39 37 33 33 32 31 33 35 34 34 33 33 31 32 31 29 27 25 28 31 32 33 34 35 36 37 37 38 40
65 64 59 61 55 53 51 42 39 35 34 29 27 29 33 35 34 34 34 33 34 35 34 34 34 35 34 35 36 34 34 34 33 32 35 37 37 36 38 38 37 39 41
63 64 64 62 61 62 57 48 49 46 40 38 35 28 29 34 35 35 36 36 34 34 34 35 34 35 35 37 38 38 38 37 35 35 35 37 38 40 41 40 40 39 39
59 64 64 64 64 63 58 60 56 51 48 41 38 40 31 31 36 38 33 29 28 30 33 35 34 36 37 37 39 43 43 41 40 37 36 37 36 36 37 37 38 40 39
50 58 62 64 65 65 66 65 61 56 56 47 41 40 39 34 32 40 40 33 30 26 28 32 36 38 38 38 37 41 44 44 44 41 40 40 39 39 38 37 37 37 38
40 46 55 61 64 67 67 66 66 65 64 56 46 43 37 42 35 32 37 45 48 46 40 37 38 40 42 43 43 42 41 43 44 45 44 42 41 42 41 40 39 41 43
42 42 48 58 63 66 67 66 67 69 69 66 51 50 48 39 35 33 37 41 41 38 47 41 38 45 44 45 46 45 43 42 45 47 47 45 43 43 42 42 43 46 44
37 39 43 49 58 63 64 65 66 68 70 64 65 56 54 48 41 38 39 40 39 38 38 41 45 46 46 46 45 45 47 44 47 48 49 47 47 46 46 44 42 40 43
35 37 37 41 46 57 60 62 63 65 69 72 72 63 59 53 47 44 44 44 41 43 43 45 45 45 45 46 46 47 47 45 46 50 51 50 49 48 50 49 46 46 47
30 33 35 36 38 47 56 57 60 61 65 66 65 64 59 62 54 51 50 48 50 49 44 46 50 48 47 44 44 46 42 45 46 49 51 52 50 51 49 49 54 52 49

GFSGL_700_spd_072.txt.gz
Wind_Speed
25 23 22 19 16 15 17 18 17 16 16 14 11 11 10 10 10 8 7 6 8 9 10 13 16 17 19 22 22 22 21 19 18 17 15 16 14 14 15 16 17 18 20
25 25 22 20 20 19 17 17 18 18 16 17 15 14 13 13 13 11 9 8 8 8 8 10 13 16 19 22 23 23 24 23 21 20 19 17 17 17 17 17 18 19 20
31 28 25 25 23 24 20 18 19 20 18 18 17 16 13 15 16 15 13 12 11 10 9 10 11 14 17 20 23 24 24 24 23 22 20 20 20 20 20 20 20 21 22
34 33 32 28 28 27 25 22 20 21 22 21 20 18 17 16 18 18 17 16 14 14 13 12 12 12 15 18 21 24 25 26 26 24 23 22 22 22 21 21 22 24 25
35 35 32 32 31 30 27 27 23 23 23 24 24 24 23 21 20 20 20 19 19 18 18 18 16 15 16 17 18 20 23 25 26 27 26 25 24 24 24 24 25 26 25
37 36 35 34 33 35 32 30 31 27 27 27 29 29 28 26 25 22 20 21 20 21 21 20 21 21 19 19 19 20 21 22 23 25 26 26 26 26 26 27 27 28 27
35 35 35 36 35 35 35 37 37 35 32 33 32 33 33 31 30 27 24 25 25 24 23 23 23 24 23 24 23 24 23 23 24 24 26 26 27 28 29 28 28 29 30
32 33 34 31 33 40 39 36 35 35 38 38 36 36 36 35 34 32 29 30 31 30 28 27 26 26 27 26 27 27 27 27 27 27 27 27 28 30 31 32 31 30 30
24 35 30 31 31 31 33 35 37 42 41 40 38 37 38 36 36 35 35 36 37 35 33 31 30 30 28 29 30 30 30 30 30 29 30 30 30 31 31 32 31 30 28
26 26 34 42 43 50 32 36 36 40 47 45 42 39 37 35 35 35 37 39 41 40 37 37 36 34 33 32 32 33 33 29 29 31 33 30 32 32 31 31 28 29 28
28 33 31 34 46 48 34 29 34 36 45 47 43 40 39 36 34 34 36 39 40 39 39 39 39 38 36 36 35 35 34 32 33 35 36 34 32 33 32 32 30 30 29
25 25 32 31 44 51 48 46 38 37 39 45 45 44 39 37 36 35 35 37 37 38 37 36 37 38 38 38 39 39 38 37 39 39 39 36 35 34 34 35 34 31 32
30 28 25 29 30 43 52 52 44 40 42 44 47 46 44 40 37 34 34 35 35 37 34 33 35 36 37 39 41 41 42 43 42 42 41 38 37 35 36 36 36 35 35
44 38 32 33 34 32 35 34 34 34 31 41 47 47 46 45 41 37 35 37 36 35 32 32 33 34 37 38 39 41 44 45 44 44 44 43 40 39 39 37 35 34 35
57 51 46 40 34 34 31 28 28 28 31 42 42 46 47 46 43 42 41 39 39 37 32 30 31 33 35 34 35 37 39 42 43 43 43 42 41 40 39 37 36 35 36
57 62 58 52 46 42 39 35 30 28 30 37 32 31 42 47 46 46 43 40 39 38 37 37 35 31 30 31 34 36 38 38 37 37 38 39 38 37 36 36 36 36 37
55 58 65 64 58 55 50 44 39 35 31 31 34 28 29 39 44 45 43 41 40 39 41 40 36 33 32 33 32 30 28 28 27 28 29 30 33 33 33 33 34 36 36
56 55 58 67 68 63 58 57 50 42 39 33 32 32 30 30 35 42 46 42 41 40 41 39 36 33 32 32 33 34 33 34 36 36 35 33 32 33 34 35 36 37 37
53 56 56 60 70 71 67 61 61 57 48 42 38 35 35 31 30 33 42 44 42 42 39 39 37 35 32 33 35 35 36 37 36 38 39 38 38 38 37 35 37 39 39
47 54 57 57 63 71 72 69 63 64 55 53 48 41 37 39 36 32 32 40 40 40 40 36 39 38 35 33 34 36 38 38 39 41 40 41 41 42 41 38 36 38 40
42 47 53 57 59 65 73 73 69 64 68 64 57 51 45 45 43 40 36 33 39 38 37 39 39 39 40 38 37 37 38 40 40 41 42 41 40 43 44 43 41 41 42
38 43 48 51 55 60 66 71 70 69 68 66 66 63 56 50 48 44 43 39 35 37 40 41 41 36 32 30 34 37 39 41 41 42 42 42 43 45 48 49 47 45 44
35 40 43 43 48 55 57 63 68 69 70 70 66 65 59 54 51 50 43 43 39 38 38 41 40 45 48 45 46 37 37 38 40 41 42 46 47 47 48 49 50 48 48
30 35 39 42 42 45 49 54 61 67 69 70 68 68 65 59 56 58 49 48 45 39 40 40 41 42 40 38 39 48 45 47 43 42 47 47 49 49 50 53 51 50 49
25 29 34 39 43 48 49 48 53 60 65 68 68 68 68 67 64 64 58 54 51 46 43 42 41 40 40 41 40 40 42 42 40 46 50 51 52 49 47 48 50 51 50
19 23 30 34 38 39 42 43 49 51 57 62 65 66 67 69 67 65 64 60 57 56 51 48 41 41 43 43 44 45 47 44 45 48 50 52 53 51 51 47 47 49 51

GFSGL_700_spd_075.txt.gz
Wind_Speed
25 23 21 19 16 15 15 16 16 16 15 15 14 11 8 6 7 5 5 4 6 7 8 13 16 16 16 12 12 14 15 18 18 16 15 15 12 14 14 15 17 20 24
28 27 24 22 21 19 17 16 17 17 17 16 14 13 11 10 10 9 7 7 5 5 7 8 12 16 16 17 19 21 22 23 21 20 18 19 19 17 17 18 19 19 20
28 29 29 28 26 21 19 18 18 19 18 17 18 16 15 13 13 11 11 11 9 8 7 8 9 12 15 18 21 22 23 24 25 24 23 22 21 21 21 20 21 22 22
33 29 30 29 27 24 22 23 22 21 21 20 19 18 17 16 16 15 15 15 14 12 11 11 11 11 11 15 17 20 22 25 25 25 25 24 24 24 24 23 22 24 26
35 30 30 37 33 29 29 28 26 26 24 23 23 23 21 20 19 19 19 18 18 17 16 15 14 13 12 13 15 16 19 22 24 25 25 26 25 26 26 25 26 26 27
36 37 38 36 37 35 29 28 31 30 28 27 27 27 26 25 22 21 20 20 21 22 20 19 18 18 16 16 16 17 17 18 20 22 22 24 25 25 26 27 28 28 27
35 32 34 35 38 34 33 32 31 31 31 30 30 30 31 29 27 26 24 24 24 23 22 21 21 21 20 20 20 20 21 20 20 21 22 22 23 25 27 27 28 28 27
32 35 37 37 42 39 37 36 35 35 35 34 34 33 34 33 31 31 30 29 30 29 28 26 24 23 24 23 22 24 23 24 24 25 25 24 26 26 28 29 30 29 29
26 27 33 39 40 41 40 38 37 37 36 33 33 34 35 34 34 33 34 34 34 35 33 32 30 28 26 27 27 26 26 25 24 24 26 28 28 28 29 32 30 30 28
20 24 25 32 40 38 40 38 37 38 38 38 37 39 41 38 34 34 35 37 39 37 37 36 34 33 31 30 31 31 31 27 27 26 30 29 28 28 29 31 31 30 29
24 24 23 25 28 38 39 39 36 37 33 35 38 41 42 43 38 36 36 38 39 39 39 38 36 35 35 35 35 35 34 33 33 33 34 33 32 31 31 30 29 31 30
29 29 31 31 32 31 41 45 46 43 37 38 35 36 36 42 42 38 38 38 38 40 40 39 38 38 38 37 38 38 37 37 39 39 39 37 35 34 33 32 34 32 29
38 35 33 32 34 31 35 41 43 49 48 39 35 36 35 38 42 41 40 38 39 42 40 40 40 41 41 39 38 37 37 41 43 44 42 39 37 37 38 37 36 39 38
47 46 42 40 38 36 37 37 37 45 49 44 48 45 41 39 41 43 43 41 40 42 41 41 39 39 40 40 42 39 38 40 43 45 44 42 42 41 40 40 39 37 38
47 48 51 51 46 43 40 40 41 40 49 58 56 52 47 42 40 43 45 41 43 42 41 40 38 38 37 37 39 40 36 36 38 39 41 41 41 40 39 38 37 38 38
43 48 52 53 57 55 51 47 46 43 41 43 42 43 41 42 42 42 43 47 42 42 40 35 40 40 41 39 37 37 36 34 34 34 33 34 35 35 35 35 35 36 37
42 43 49 54 56 58 61 59 56 50 48 45 43 41 40 40 42 42 41 49 48 45 43 44 43 44 41 40 38 37 36 34 31 28 28 28 27 27 28 29 31 33 34
41 43 44 49 54 57 58 64 63 61 55 52 45 41 40 40 39 36 36 44 49 49 45 44 44 42 39 39 39 40 38 32 33 30 30 31 32 34 35 36 34 32 32
43 42 44 46 49 55 58 60 64 67 64 58 54 47 42 40 38 38 36 37 38 44 47 48 46 42 39 38 39 38 39 38 35 34 33 34 35 35 38 36 37 38 37
42 44 44 46 48 51 54 56 59 60 66 67 63 57 51 49 45 40 38 39 34 33 40 46 45 45 42 39 37 37 38 38 36 36 34 33 34 35 37 38 39 41 38
41 42 45 46 47 50 52 54 56 59 58 64 70 68 62 60 56 49 44 41 41 35 32 36 45 44 46 45 41 41 39 39 37 35 36 35 33 33 33 33 34 39 43
42 40 42 45 46 48 50 53 55 56 58 59 63 71 72 69 66 59 51 44 42 41 41 38 39 44 46 46 44 43 40 39 38 34 34 35 36 34 34 36 37 34 36
39 37 38 41 45 47 49 51 52 54 57 60 61 63 71 75 72 70 64 56 52 47 47 45 44 44 45 48 40 37 36 37 36 34 30 31 33 37 37 37 37 37 38
36 35 35 34 38 44 47 50 50 50 53 56 59 63 65 73 75 73 69 65 65 53 50 47 46 46 37 38 41 40 40 25 41 50 49 48 45 44 47 45 47 41 41
28 29 30 35 36 39 44 47 49 46 45 50 55 61 63 66 70 73 70 72 69 65 54 52 49 46 43 42 43 45 42 40 40 38 39 41 44 43 43 46 43 43 49
25 24 26 30 32 37 41 45 48 48 50 46 47 51 55 62 66 68 71 76 67 67 62 54 56 51 49 49 45 45 44 40 39 39 37 37 38 39 43 46 44 47 54

GFSGL_700_spd_078.txt.gz
Wind_Speed
26 24 23 21 20 19 17 15 12 11 11 14 10 8 7 6 5 3 2 3 4 4 5 11 20 15 12 16 19 26 25 24 20 16 15 12 8 10 12 14 17 19 19
28 25 24 23 22 21 18 16 15 13 14 14 11 10 7 8 7 6 6 4 5 3 5 6 9 18 20 17 17 18 24 27 24 23 18 18 18 16 16 16 17 19 21
27 28 26 26 25 24 21 18 17 15 15 15 14 13 13 12 11 10 10 9 6 5 4 5 6 10 13 15 17 18 17 20 22 21 20 20 20 20 21 21 20 20 22
28 32 34 32 31 27 23 20 18 17 16 17 17 16 16 15 16 15 14 13 11 9 8 7 7 6 8 12 16 16 17 20 21 22 21 20 21 22 24 24 23 20 22
24 33 32 28 31 30 23 23 21 21 20 18 19 19 18 18 18 16 16 16 15 14 13 13 11 10 9 10 11 12 14 16 17 18 20 21 20 21 22 23 24 23 22
30 33 34 22 19 20 23 27 27 24 22 23 23 22 22 21 19 18 17 16 16 17 17 17 16 15 14 13 12 13 14 14 15 16 16 17 17 20 20 22 23 25 24
36 32 30 24 24 21 26 31 28 26 24 25 26 26 25 23 21 21 21 20 19 19 18 19 19 19 19 18 18 18 18 18 17 17 18 17 19 20 23 23 24 25 25
29 35 36 30 34 34 30 31 31 31 29 28 27 28 28 26 25 24 25 26 25 25 25 23 22 21 21 20 20 21 22 21 22 23 22 21 23 23 25 27 27 27 26
21 26 33 36 37 33 33 34 33 33 32 32 30 28 29 28 26 27 29 30 31 29 28 29 28 25 22 23 26 25 24 22 22 23 25 25 24 24 25 27 26 29 27
18 20 23 27 33 33 34 35 35 37 37 35 32 31 30 29 28 29 31 34 35 33 32 31 31 31 29 27 28 29 32 26 27 25 27 27 27 25 24 26 27 27 28
21 21 22 22 27 31 37 35 34 35 38 39 40 40 38 34 32 32 34 37 38 36 35 34 33 32 32 33 35 35 32 31 33 34 33 31 31 31 29 28 27 27 25
27 26 27 26 25 26 28 30 33 39 38 42 41 36 35 34 32 32 33 37 37 39 37 35 35 36 34 33 34 35 35 35 36 37 37 36 34 33 32 32 31 31 29
36 36 35 33 31 31 33 33 31 35 39 44 43 42 38 37 36 36 36 34 36 39 39 35 35 37 38 38 36 34 33 34 36 38 39 38 39 37 35 34 34 36 36
36 37 39 41 41 40 39 36 37 36 34 37 46 46 48 47 44 42 35 34 38 40 39 38 39 40 40 40 40 39 39 38 37 37 38 38 39 40 37 33 33 31 34
32 34 37 40 43 46 48 46 45 43 41 39 38 39 39 45 51 49 45 43 40 41 37 38 40 41 41 40 40 41 41 37 37 36 36 36 37 36 34 31 29 29 31
32 33 35 37 39 44 48 51 53 52 48 47 43 43 40 39 44 40 40 42 42 39 38 39 38 37 40 40 39 39 40 38 35 35 35 35 34 35 34 30 28 28 27
33 35 36 37 38 40 43 50 54 57 58 55 52 48 45 41 42 43 40 42 44 45 47 45 36 44 36 41 37 37 39 40 38 37 36 35 32 30 28 28 27 24 23
34 36 38 40 41 42 41 44 49 56 59 63 62 57 52 49 46 43 42 44 46 47 48 45 38 36 46 47 46 45 41 36 37 38 34 32 26 26 25 26 26 27 26
34 38 39 42 43 44 45 44 46 50 56 60 62 66 63 57 52 49 48 48 47 46 43 40 39 37 44 48 48 42 39 39 37 38 35 38 33 33 31 28 30 29 29
36 39 41 43 44 46 47 47 47 48 51 56 61 61 65 67 63 56 54 50 48 47 44 41 38 36 36 41 47 45 42 40 40 38 38 37 35 33 33 32 29 28 26
38 40 41 44 46 47 48 48 48 49 50 52 57 60 61 63 70 67 62 59 55 51 46 43 41 39 38 39 40 43 45 44 41 40 41 39 36 34 34 32 31 29 28
38 40 43 46 48 48 49 48 48 49 49 51 54 57 58 60 62 71 71 66 62 58 52 47 44 43 42 41 39 39 42 42 42 42 41 37 33 31 31 32 30 30 29
38 42 45 47 47 47 46 45 45 47 49 51 52 55 56 58 61 60 67 72 68 66 61 58 52 46 44 45 43 42 42 43 41 42 39 36 30 27 28 28 26 27 30
39 41 42 42 43 43 43 43 44 43 47 52 52 54 55 56 58 60 59 60 68 71 70 68 64 56 51 46 45 44 46 40 46 47 44 39 39 31 39 40 41 41 40
40 39 36 36 36 38 41 43 45 45 46 50 51 51 52 53 54 57 58 59 58 64 67 74 72 69 60 53 47 45 45 46 41 42 42 39 35 34 35 38 39 40 44
38 39 36 33 32 33 34 38 41 42 43 46 47 48 50 52 53 52 54 55 61 64 65 74 77 75 72 64 59 51 49 46 41 41 40 43 43 43 44 43 41 40 40

GFSGL_700_spd_081.txt.gz
Wind_Speed
21 20 20 18 17 15 15 15 13 14 13 7 9 8 7 5 6 5 5 6 9 8 9 24 27 24 24 31 28 25 26 23 18 19 12 6 7 9 9 10 14 14 15
26 25 21 20 19 17 17 17 17 15 12 11 9 10 8 5 6 6 5 5 5 7 7 13 23 21 17 22 26 28 28 26 25 24 17 16 17 15 15 14 14 16 16
27 29 25 23 19 18 16 15 14 15 12 12 12 11 7 10 9 8 7 7 6 6 6 8 12 17 22 20 17 16 19 26 28 27 25 23 21 20 19 19 17 17 17
31 28 26 25 23 20 17 17 17 16 16 14 13 12 13 15 13 10 11 12 10 9 8 7 7 9 12 15 16 14 15 17 21 24 23 21 20 19 21 21 19 17 16
37 25 29 29 25 23 23 20 19 19 17 16 14 14 13 13 12 12 13 14 14 12 12 10 9 9 10 12 13 13 15 16 17 16 16 17 16 18 19 18 18 17 17
21 17 28 32 21 28 30 24 23 23 19 17 17 16 16 16 15 15 15 14 15 15 15 14 14 14 12 13 12 12 13 14 14 15 15 14 13 15 16 18 19 20 20
13 13 19 23 23 19 16 14 23 25 24 22 20 21 19 18 17 18 19 18 17 16 16 16 16 15 15 15 15 18 18 16 15 16 16 15 17 17 20 21 22 23 23
21 16 12 19 12 20 20 25 22 25 26 24 22 21 22 21 20 19 20 21 20 19 19 19 20 18 17 18 18 18 19 20 20 21 20 18 20 20 22 25 25 25 24
14 21 28 24 28 30 28 27 26 27 26 26 26 27 26 23 23 23 22 24 24 23 22 22 23 22 21 22 24 23 22 20 21 22 23 23 22 22 23 26 23 25 23
12 12 15 23 27 31 33 37 31 27 29 29 30 30 29 28 28 27 26 26 27 27 26 27 26 27 26 25 26 26 29 24 26 25 25 26 27 26 26 27 26 26 24
16 16 16 16 18 23 28 29 29 30 31 31 31 30 32 32 31 31 31 32 30 30 32 30 29 29 29 28 29 31 30 27 29 30 32 32 29 29 29 29 30 30 27
23 22 21 20 21 21 21 22 25 27 28 30 32 31 32 35 35 34 33 31 31 30 29 31 31 30 31 32 32 32 31 31 33 33 34 34 33 31 31 32 32 32 29
28 29 29 29 29 29 27 27 27 28 29 28 29 28 36 38 35 34 33 32 32 33 33 31 34 34 34 36 36 34 33 34 35 36 36 35 32 32 33 33 33 32 33
28 30 31 33 34 35 36 36 36 34 33 32 31 30 30 33 39 42 40 38 38 38 37 33 29 32 34 37 39 38 37 35 35 36 34 33 32 32 32 32 33 31 33
25 26 28 30 32 34 36 39 42 43 44 42 39 39 39 37 34 37 41 45 45 47 48 44 37 33 34 36 36 37 38 39 39 37 36 33 33 32 32 32 33 31 32
21 23 25 27 29 31 33 34 36 41 45 48 49 49 45 45 43 40 39 37 37 41 46 45 42 36 34 33 34 32 36 38 38 37 37 35 34 33 32 33 34 32 30
22 23 24 26 28 29 31 34 36 37 38 42 49 52 54 52 50 50 46 43 41 39 41 40 41 40 37 37 36 35 35 35 35 35 36 38 38 37 34 33 33 33 30
22 23 26 27 29 32 34 36 39 41 41 41 43 47 53 56 57 57 54 51 46 46 41 41 41 40 39 39 40 40 43 45 43 40 41 41 39 36 34 30 29 27 26
23 24 26 29 32 34 36 38 40 42 45 47 46 45 47 52 59 62 62 60 56 51 47 43 42 41 42 41 38 41 44 49 48 43 41 40 40 37 33 32 28 29 30
25 26 28 32 36 39 40 41 42 44 45 48 50 50 49 51 54 60 65 66 64 59 54 52 48 46 45 45 42 40 43 50 55 49 43 43 39 38 38 34 35 34 32
27 30 34 38 40 41 43 45 46 47 48 49 50 49 51 53 54 56 60 65 67 66 64 60 56 51 50 48 45 43 41 39 40 43 40 40 41 40 39 42 40 42 38
28 31 35 40 43 45 46 46 48 49 51 52 52 52 50 54 56 57 58 60 65 66 66 67 64 59 54 53 47 45 43 41 39 36 39 37 38 40 42 43 48 44 38
27 32 36 39 43 47 48 49 51 52 52 52 54 54 54 53 55 58 59 60 62 65 66 64 63 67 63 60 58 52 48 45 43 42 40 38 39 39 43 44 26 19 30
29 33 36 40 44 48 52 53 52 51 51 50 50 51 53 54 55 56 58 59 60 61 64 65 64 63 66 66 64 61 56 51 45 42 42 40 39 36 41 43 57 45 40
33 34 35 39 44 47 49 49 48 47 47 46 46 46 49 51 54 55 55 57 58 60 62 64 69 65 64 65 68 68 65 61 54 49 45 41 41 38 34 32 25 23 27
33 34 35 40 43 43 42 41 40 41 42 42 42 43 46 48 51 54 53 54 55 58 60 64 67 67 61 62 67 71 70 68 65 57 54 46 43 42 39 34 38 40 37

GFSGL_700_spd_084.txt.gz
Wind_Speed
20 19 19 19 18 19 20 19 16 12 12 7 10 10 7 7 8 7 7 10 12 19 20 22 32 33 30 24 23 23 22 20 18 18 18 8 6 7 10 11 13 14 15
21 22 21 21 20 18 16 19 18 15 14 14 12 13 12 10 8 6 5 8 11 11 15 20 29 33 33 32 28 28 28 28 27 24 23 18 15 16 17 16 16 19 17
23 23 23 23 22 19 16 16 16 14 14 15 16 13 13 11 11 9 8 7 8 8 9 11 24 28 24 26 26 34 34 32 31 30 30 28 25 24 23 23 22 21 19
29 23 24 25 25 23 21 21 20 16 15 14 14 15 15 15 15 12 10 10 9 9 8 8 10 17 26 29 24 22 26 27 26 27 31 31 31 31 31 27 24 21 19
12 23 30 30 27 25 25 24 22 20 18 16 16 16 15 15 14 13 14 15 12 12 12 11 10 11 12 15 17 19 21 21 21 23 24 24 24 26 27 24 22 21 19
6 14 19 28 27 27 29 28 26 24 23 21 18 18 15 14 15 16 15 15 14 15 14 15 15 16 14 14 14 16 17 18 18 20 19 19 17 18 19 20 21 20 17
13 12 12 15 20 31 31 27 30 27 24 24 20 20 19 17 16 17 19 19 18 17 16 16 16 17 17 17 18 18 20 20 18 18 18 17 18 17 21 21 23 22 20
22 18 22 9 17 18 21 26 15 34 28 27 24 25 23 21 20 20 20 22 21 20 20 19 19 19 18 19 19 21 20 20 20 22 21 18 20 20 23 25 26 25 22
14 22 19 14 15 13 17 9 21 25 22 21 25 27 27 24 22 24 24 25 24 23 21 21 22 22 22 23 25 25 25 23 21 23 23 22 23 23 25 27 26 27 23
10 10 15 20 24 21 21 20 23 25 20 23 28 26 29 28 27 27 27 29 28 28 27 26 25 24 23 25 29 29 31 27 26 27 28 29 29 29 30 31 30 29 30
14 13 13 13 15 19 25 29 31 34 33 33 26 29 30 29 29 30 30 30 30 30 30 32 30 30 30 30 31 33 33 30 31 33 34 34 33 33 32 32 31 33 33
20 20 20 20 19 19 20 21 21 23 26 26 29 33 31 31 34 34 34 34 33 33 33 33 32 29 28 32 34 34 33 35 36 37 38 36 35 33 30 32 32 33 34
27 27 27 28 28 27 26 25 26 27 25 25 24 24 29 34 39 40 37 37 38 38 37 36 34 31 30 30 31 35 37 37 37 39 38 37 35 34 34 33 33 33 35
30 30 31 32 32 33 33 33 33 33 33 33 31 29 28 28 30 34 37 39 40 41 40 39 37 36 34 32 30 34 39 40 37 37 36 35 35 36 35 32 33 32 35
27 28 29 30 32 33 34 35 36 38 39 39 40 40 38 36 35 36 36 35 34 38 45 46 46 45 44 44 42 39 35 39 40 37 37 36 35 34 34 33 33 32 34
21 22 23 24 25 26 27 29 31 33 35 39 43 45 46 47 45 45 45 46 43 41 39 40 42 45 49 50 49 44 38 37 37 36 36 37 37 35 34 33 34 35 35
18 19 20 21 22 23 24 25 25 26 29 31 34 39 43 47 49 51 53 55 54 52 48 45 44 40 37 39 42 41 36 36 37 39 39 38 36 33 32 32 35 39 37
16 17 17 18 20 22 23 25 27 29 29 30 34 38 39 41 45 49 53 55 56 57 58 55 51 48 45 40 41 43 42 39 40 42 43 44 45 41 36 37 38 39 36
16 16 17 18 19 21 24 27 30 33 37 39 40 41 43 43 44 47 51 54 57 57 59 59 58 56 53 49 44 44 45 44 41 41 43 45 44 43 43 37 39 39 37
17 18 18 19 21 24 28 30 33 35 38 41 43 46 48 50 51 49 50 54 57 59 60 60 59 59 60 58 54 49 48 46 43 41 41 42 42 38 44 47 46 42 40
19 20 21 23 25 28 31 32 33 36 40 41 43 45 48 52 54 55 56 55 56 58 59 62 63 61 62 63 61 59 55 53 49 45 45 43 42 37 36 41 45 45 42
23 24 24 25 28 30 34 36 38 40 43 44 45 46 47 50 54 57 59 60 60 58 59 62 64 64 63 63 63 64 63 59 55 50 48 47 44 39 36 37 37 38 41
25 26 27 29 33 36 39 42 44 48 50 49 49 49 49 51 53 56 59 61 62 62 62 62 64 65 65 64 65 65 67 66 63 59 54 50 48 45 41 38 35 40 38
26 27 29 31 33 36 41 45 47 51 53 53 53 52 52 52 53 54 56 58 60 62 62 63 64 64 66 67 66 66 67 67 67 66 63 58 54 48 44 41 41 34 30
27 28 29 30 32 36 39 43 47 50 51 51 49 49 49 49 50 51 52 53 56 59 61 63 64 65 66 68 68 67 68 66 67 68 67 65 63 53 49 44 40 37 36
28 27 27 27 29 33 37 42 45 48 48 48 48 46 45 45 45 47 48 49 50 54 58 60 62 64 65 66 69 69 69 68 65 65 68 67 66 63 54 50 44 40 37

GFSGL_700_spd_087.txt.gz
Wind_Speed
17 18 19 19 19 17 17 16 13 12 12 12 12 11 10 8 8 8 10 14 15 19 23 24 28 30 28 24 22 20 20 19 19 19 18 17 14 10 12 15 15 18 20
26 22 23 23 24 22 20 18 17 15 14 16 14 12 10 7 7 7 7 10 12 16 22 23 23 33 34 33 28 24 24 24 24 25 24 22 22 21 19 21 21 21 23
36 25 23 24 24 24 23 20 19 19 19 17 16 13 10 12 12 11 10 9 8 11 13 15 16 23 30 36 34 31 29 29 31 29 28 28 29 30 29 28 28 26 28
27 30 25 26 26 25 23 22 21 20 20 20 18 15 14 14 14 14 13 12 12 12 13 13 14 15 20 28 31 32 31 31 32 34 32 31 32 32 32 32 31 31 29
14 14 19 28 28 27 26 24 23 21 20 18 18 19 18 17 16 15 16 17 16 15 16 15 13 12 13 23 30 32 33 31 30 29 30 28 26 25 28 30 30 28 25
9 5 9 16 32 29 29 28 27 26 24 22 21 21 18 17 16 16 17 18 19 18 18 18 17 17 16 17 18 19 20 21 21 24 25 25 21 21 22 25 25 24 21
16 13 12 12 21 35 27 27 31 30 28 27 26 23 21 20 19 18 19 20 20 20 19 18 20 21 21 21 21 22 22 22 22 21 20 19 19 18 23 23 25 25 23
20 18 13 11 12 19 20 35 39 33 30 33 28 25 23 23 23 23 22 23 22 21 20 20 21 21 21 22 23 24 24 24 24 24 25 22 23 24 26 28 28 27 25
24 22 21 22 18 16 14 16 18 31 36 33 28 27 24 26 28 25 25 26 25 25 24 23 22 22 21 24 26 27 27 26 25 26 27 26 25 27 28 32 31 31 27
10 10 15 22 23 21 15 15 15 21 19 20 29 28 27 28 28 27 29 29 28 29 27 28 28 28 27 26 30 31 33 30 30 31 33 33 32 31 31 33 33 33 33
14 12 12 13 16 21 26 18 23 26 25 25 28 25 33 30 30 30 30 31 33 32 32 32 32 32 31 30 30 32 33 34 34 36 37 38 37 35 34 33 34 35 36
18 17 17 18 18 18 18 21 28 31 32 32 31 31 35 36 39 34 32 32 34 34 36 35 37 36 34 32 33 32 31 34 36 37 38 37 36 35 34 35 35 35 37
24 25 26 26 25 25 24 24 24 26 26 26 28 25 26 32 37 40 41 39 40 37 38 38 38 37 37 36 35 33 32 32 34 38 39 37 35 33 33 32 33 34 35
30 30 30 31 31 31 31 31 32 31 31 30 30 31 30 29 30 32 34 39 43 43 40 38 39 39 38 36 37 37 35 34 34 34 35 38 39 38 37 36 36 35 38
31 32 32 33 33 34 34 34 34 34 34 35 36 37 36 37 38 37 37 38 37 38 37 35 35 39 43 42 41 42 42 42 45 45 45 42 40 40 39 38 38 38 40
27 27 28 28 29 30 31 32 33 32 32 35 37 37 38 39 38 40 42 44 45 45 44 44 42 41 40 40 42 45 47 50 52 53 52 47 45 43 40 40 40 40 40
21 21 21 21 21 21 21 21 22 25 26 26 28 30 33 34 37 40 40 40 42 46 49 50 51 51 51 49 47 46 44 41 42 46 46 46 44 44 44 43 39 39 38
19 19 19 19 19 19 19 19 19 20 20 22 26 28 30 32 34 37 40 42 41 42 44 46 47 49 51 53 54 54 52 49 44 44 45 47 45 45 44 45 43 43 44
18 19 19 19 18 18 18 18 20 22 25 28 30 31 34 37 39 41 44 47 48 49 49 48 49 49 50 51 52 54 56 57 54 50 47 48 49 48 47 45 46 47 46
19 20 20 20 20 20 21 22 25 28 31 33 34 36 39 41 41 41 43 48 51 53 54 56 57 56 56 56 56 55 56 57 58 58 54 50 49 49 49 48 46 43 41
21 21 22 22 22 23 25 27 30 32 34 34 36 38 40 43 44 43 45 47 50 54 56 59 61 62 63 64 63 61 60 59 57 58 60 57 53 53 52 50 48 46 42
20 21 21 23 24 26 28 30 31 32 34 36 37 38 43 46 47 51 52 52 55 58 60 63 64 64 64 65 67 68 66 64 61 60 61 62 61 57 54 52 49 44 43
20 20 21 23 25 27 28 31 33 36 38 41 42 44 46 48 52 56 59 60 59 59 62 66 68 70 69 67 67 69 69 70 68 65 61 62 61 59 57 55 54 48 45
21 22 23 25 26 27 30 32 35 38 40 42 44 48 52 55 57 59 58 57 57 58 61 65 67 70 71 71 70 67 68 69 69 68 65 62 63 59 54 58 57 51 46
23 21 23 25 27 29 32 33 33 35 39 43 48 51 53 53 54 55 55 56 58 59 60 61 64 67 68 69 69 68 66 67 67 68 66 65 65 65 65 60 59 56 54
27 27 26 26 27 28 29 29 31 34 38 42 46 49 52 52 52 51 51 51 51 52 54 56 58 62 65 67 67 66 65 64 65 66 66 67 66 65 65 66 64 57 49

GFSGL_700_spd_090.txt.gz
Wind_Speed
24 17 16 18 20 20 18 19 14 12 12 8 9 12 9 8 9 8 9 8 10 14 17 23 23 24 24 24 21 17 23 20 19 19 20 20 19 18 18 19 21 21 22
22 18 19 21 23 24 22 21 21 18 15 14 13 10 11 11 9 8 8 6 8 10 14 17 22 23 26 28 28 27 23 24 24 23 23 24 25 26 27 28 28 29 29
25 31 25 22 24 25 24 20 20 19 18 17 16 15 12 16 13 12 10 9 9 10 12 12 16 20 21 23 30 32 33 30 27 26 27 30 30 28 29 32 32 32 31
22 22 31 26 26 25 26 23 21 19 18 21 20 17 17 17 15 16 13 11 11 11 12 12 13 15 17 19 24 28 33 32 32 31 30 29 28 28 29 29 27 29 28
16 16 19 32 26 26 25 24 22 21 19 19 21 21 20 18 17 17 16 16 15 14 14 15 15 16 16 16 17 18 23 26 28 29 32 30 26 25 26 28 27 27 24
10 17 12 13 27 27 26 26 25 25 24 22 20 21 20 19 18 19 19 18 18 18 17 17 19 19 18 17 16 17 21 24 24 24 24 23 21 21 22 25 27 27 25
12 12 7 8 8 23 35 29 26 26 26 26 25 25 24 22 21 20 20 18 17 17 18 18 19 20 22 22 21 22 22 22 23 24 23 21 22 21 25 26 27 28 27
20 17 13 13 12 14 23 34 30 28 34 29 29 29 28 27 26 25 22 22 21 20 19 20 20 19 21 23 24 26 26 26 27 28 28 25 25 25 27 30 31 31 30
22 21 21 18 14 14 14 17 25 27 30 39 35 33 33 32 29 25 23 23 23 24 24 24 24 23 22 24 28 26 26 26 27 28 30 31 30 29 30 33 32 34 33
18 20 25 23 25 22 22 18 16 20 18 25 28 32 39 34 31 26 23 23 25 24 24 25 28 28 28 28 29 29 30 29 30 30 32 34 34 33 33 35 36 37 37
16 17 14 14 19 24 27 24 26 20 20 21 24 23 27 42 41 37 25 23 29 29 29 29 30 31 32 32 32 32 33 34 34 33 33 34 35 36 36 36 37 38 39
16 16 16 16 17 19 21 24 26 27 24 25 25 23 25 26 28 32 41 41 32 30 30 33 34 33 34 34 34 34 35 35 36 36 34 30 31 33 34 35 36 38 39
22 22 23 23 22 22 23 22 22 23 28 29 29 32 34 32 30 33 34 37 39 39 37 34 36 36 36 35 37 37 38 37 38 39 37 34 31 27 28 31 35 37 38
27 27 27 27 28 28 29 29 28 28 28 28 29 29 32 33 34 31 31 29 30 35 38 41 42 40 39 38 38 37 38 38 38 40 42 41 39 38 36 36 36 38 42
31 32 33 33 33 33 32 33 33 33 33 34 34 34 34 34 36 36 37 37 36 36 36 37 37 35 34 35 35 36 39 42 43 42 45 47 47 48 47 47 45 44 44
29 30 31 32 34 34 34 33 32 33 34 34 33 35 36 36 35 35 36 38 40 42 43 44 43 44 43 42 42 41 40 40 40 43 44 48 50 51 50 51 50 47 45
29 28 28 28 27 27 27 27 27 26 26 27 27 27 28 30 31 31 30 31 33 35 39 40 43 45 47 49 50 50 50 50 50 49 48 48 47 46 45 44 46 45 44
25 24 23 22 22 22 22 21 21 21 21 21 21 20 21 22 24 27 29 30 31 34 36 37 38 38 40 42 43 45 46 47 49 51 52 53 53 53 50 47 44 46 46
21 20 20 20 19 19 19 19 19 19 19 19 20 22 24 26 29 32 34 37 38 39 40 42 44 45 46 48 48 48 48 48 47 48 48 50 51 53 55 53 50 46 48
19 19 19 19 20 20 20 20 20 21 22 23 26 28 30 31 33 35 37 38 39 40 40 42 44 47 49 50 52 54 55 56 56 56 55 53 52 52 54 55 54 52 50
19 20 20 20 22 22 23 23 24 25 26 28 31 33 35 37 38 39 39 40 43 44 45 45 49 51 50 51 55 58 59 61 61 60 61 61 61 59 55 54 55 55 51
20 21 22 22 23 23 24 24 26 27 30 32 33 35 37 39 40 42 43 45 46 48 49 53 54 54 57 60 62 60 61 64 66 65 66 66 65 64 61 57 56 56 56
20 21 21 21 22 22 23 24 26 28 29 32 33 35 37 39 41 43 46 48 51 53 56 59 60 63 66 68 69 70 72 71 70 69 69 70 71 72 69 65 59 57 57
19 18 19 21 22 23 24 26 27 29 30 32 34 36 38 39 41 44 47 50 53 57 61 63 67 69 70 71 73 74 75 75 76 76 71 70 71 73 74 71 64 60 59
25 24 22 22 23 23 24 26 27 28 30 32 33 35 36 39 42 46 49 54 57 58 58 58 59 60 63 66 68 70 72 74 74 75 75 73 69 69 72 73 71 64 60
29 28 27 27 30 31 29 28 27 28 29 30 31 34 36 40 43 47 51 53 54 54 54 54 54 54 55 57 59 62 65 67 69 70 71 73 72 69 67 67 69 67 62

GFSGL_700_spd_093.txt.gz
Wind_Speed
26 23 19 15 19 23 21 18 17 15 15 13 13 12 10 9 8 8 9 10 10 11 13 16 20 23 24 24 22 23 21 22 22 21 20 21 21 22 22 24 25 26 26
24 21 22 19 19 23 24 22 20 16 15 16 14 10 12 12 11 10 10 9 9 10 12 13 16 21 23 25 27 27 27 27 26 26 26 25 25 26 28 30 29 29 30
29 24 28 26 21 23 25 24 21 23 20 17 15 13 13 11 14 12 11 11 10 9 9 10 12 16 18 21 22 26 30 31 31 31 28 27 27 28 30 30 30 31 30
15 14 16 26 26 23 25 26 23 21 22 21 19 18 17 17 16 17 17 15 13 11 10 10 11 12 13 16 18 20 23 28 32 32 29 27 27 26 29 28 26 28 26
10 10 13 18 30 28 25 25 25 23 21 20 20 22 20 19 18 19 18 18 16 15 13 13 12 13 14 14 16 17 18 18 22 23 24 25 26 25 25 25 26 27 25
19 16 14 9 14 36 27 22 23 23 22 20 18 19 23 23 21 19 18 19 19 18 17 17 17 17 16 17 17 16 17 16 18 21 22 21 20 22 23 25 27 28 27
20 14 13 9 7 19 16 19 27 25 23 22 21 22 23 23 21 20 20 20 19 18 18 17 18 18 19 19 21 21 19 21 21 21 22 21 22 22 25 26 28 30 29
19 16 14 12 8 9 14 20 27 25 22 18 22 25 27 25 25 24 23 23 22 21 20 19 20 20 20 21 22 23 23 23 23 26 26 25 26 26 27 30 30 30 30
25 23 21 18 16 15 17 14 14 27 25 28 27 28 30 29 29 28 27 25 25 25 24 23 24 25 24 25 24 24 24 24 26 26 27 27 28 28 30 33 32 34 33
20 25 24 24 22 20 15 16 11 20 28 30 30 25 29 35 31 32 31 28 27 26 25 25 24 26 25 25 27 29 28 28 28 29 30 30 30 31 32 34 35 36 36
17 19 21 21 24 25 25 23 21 20 21 21 27 26 22 25 29 33 36 33 27 24 26 26 24 26 28 27 28 30 31 31 31 32 33 32 31 32 32 34 34 36 37
18 21 20 19 17 18 19 22 25 28 27 27 26 26 23 22 22 17 17 25 31 35 39 35 33 31 33 35 34 34 34 34 35 34 34 34 33 33 32 30 29 29 30
17 18 19 19 19 18 18 21 22 25 25 27 28 28 25 25 26 28 28 25 22 24 31 40 40 37 41 39 36 34 35 35 36 38 39 38 36 36 36 35 32 32 32
21 22 23 23 23 23 24 25 25 26 26 26 26 26 28 32 31 33 33 31 30 29 28 29 32 36 38 39 37 35 36 38 39 37 37 39 40 39 39 39 40 42 42
22 24 26 28 28 28 28 28 29 30 31 31 31 31 32 32 32 32 32 34 36 36 36 36 37 36 35 35 36 35 36 36 37 37 36 36 38 40 41 44 45 45 46
26 28 28 28 28 29 31 31 31 31 32 33 33 34 34 34 34 34 33 34 35 35 36 38 40 41 41 41 40 41 41 41 41 43 44 44 44 44 44 43 44 44 43
30 31 31 31 31 31 31 30 30 29 28 29 29 30 30 31 31 29 30 30 28 28 29 30 32 34 38 40 42 41 41 41 41 41 43 45 46 48 50 50 50 52 51
28 29 30 29 28 27 26 27 27 26 25 24 23 23 23 22 21 20 21 22 24 26 27 28 30 32 34 35 36 38 40 43 43 43 42 42 43 44 44 46 47 48 50
25 25 25 25 24 22 21 21 21 21 21 21 20 20 19 20 21 22 25 27 29 31 33 34 35 35 36 38 40 41 42 43 45 46 49 49 49 49 49 49 48 48 49
23 22 22 21 21 20 20 19 19 20 20 21 21 22 22 23 25 28 30 32 34 36 37 39 40 41 41 41 42 43 44 46 48 50 51 52 53 54 55 55 54 53 52
22 22 20 20 20 20 20 20 20 21 22 23 25 26 27 28 31 32 33 35 36 37 38 39 40 42 43 45 46 46 48 48 51 54 55 57 58 60 59 59 60 58 57
21 22 21 20 20 20 21 21 22 23 24 25 27 29 30 32 33 34 36 37 38 39 41 42 44 45 46 48 48 52 55 58 62 63 64 65 65 66 67 67 66 66 64
22 22 21 21 21 21 21 21 22 23 25 26 28 29 31 32 33 35 36 38 39 41 43 46 49 51 53 57 61 64 66 67 68 69 71 72 73 72 71 71 72 73 72
24 23 22 21 21 21 21 22 23 23 24 26 27 29 30 32 33 34 35 36 38 40 43 46 50 53 57 62 66 67 69 71 74 76 76 76 75 75 75 73 71 71 73
30 28 25 24 22 21 20 20 22 24 26 27 28 29 30 31 32 33 34 36 38 41 45 48 51 54 55 56 57 59 62 66 69 71 72 74 75 75 76 75 74 72 69
35 33 32 29 28 27 24 22 25 26 27 27 28 29 30 31 33 34 35 36 39 42 45 48 50 51 52 52 53 53 54 56 58 60 63 67 70 72 72 71 70 69 67

GFSGL_700_spd_096.txt.gz
Wind_Speed
24 21 20 18 16 17 20 19 17 17 15 14 12 10 9 8 9 9 10 11 12 13 14 14 17 19 23 23 23 23 23 22 22 16 19 20 24 25 26 27 29 29 29
32 29 25 24 18 17 20 22 19 16 15 16 14 12 13 13 12 12 12 11 11 12 13 14 15 18 20 23 24 27 27 28 29 31 29 29 31 30 31 32 32 31 32
31 32 30 26 24 20 19 23 23 20 18 15 14 15 13 14 14 14 11 10 10 10 10 10 12 13 15 19 21 24 23 27 31 32 34 33 35 31 32 31 31 31 28
30 29 14 30 26 32 22 23 25 23 21 21 19 17 17 17 14 12 12 12 12 13 11 10 11 11 12 12 14 17 19 20 22 25 27 27 28 26 27 26 25 25 25
12 2 7 7 9 21 30 22 24 24 24 20 22 22 21 20 18 16 15 15 14 14 14 13 14 12 11 12 13 14 15 16 16 17 17 17 16 17 19 22 23 23 22
18 12 10 13 14 16 26 27 21 24 24 23 22 21 20 22 20 19 18 18 17 17 17 18 19 16 16 17 16 16 17 16 16 16 16 16 16 18 20 21 23 24 24
17 9 12 16 16 13 16 35 28 22 21 22 24 23 22 19 19 20 19 20 19 18 20 20 19 19 21 20 19 19 18 18 19 20 20 19 20 21 22 22 24 24 26
23 21 16 17 13 6 10 18 31 28 27 24 24 22 19 19 20 22 22 22 22 22 21 21 21 22 21 21 20 21 21 20 22 22 23 21 22 22 24 25 25 26 27
24 23 22 21 17 11 10 13 17 20 24 29 26 20 20 19 23 26 27 26 26 25 26 24 24 24 23 23 24 23 23 24 25 25 25 25 25 26 27 29 28 29 29
27 27 26 24 23 19 17 16 18 18 18 28 28 28 27 22 18 25 29 29 28 28 27 26 26 25 26 26 26 25 26 26 28 28 29 29 28 27 28 31 31 32 32
20 23 26 26 26 25 24 23 20 19 14 20 25 25 23 23 19 17 25 30 29 33 34 31 29 27 26 25 25 26 27 27 28 29 30 31 31 31 31 32 32 30 31
24 24 24 24 19 20 21 26 27 26 25 22 21 25 24 22 23 20 19 19 18 24 37 33 29 29 29 30 30 31 32 33 31 31 33 32 33 33 33 34 34 34 33
14 13 15 16 18 19 20 21 19 22 25 27 29 31 28 28 28 25 22 22 24 24 22 22 23 29 29 36 38 40 40 38 40 36 35 36 36 35 35 35 35 37 36
15 17 18 19 20 20 21 21 21 22 24 24 25 26 26 26 25 27 28 29 29 31 29 26 26 26 27 27 29 30 34 38 37 35 33 34 35 35 36 37 37 37 38
17 17 20 22 25 25 25 26 26 26 27 27 28 30 30 31 30 29 29 30 30 31 32 32 33 33 33 35 34 34 34 34 34 35 36 36 36 36 37 38 39 39 39
20 20 20 22 24 25 26 28 30 31 31 32 32 33 32 33 32 32 31 31 32 32 33 34 35 35 35 36 36 35 34 35 35 34 35 36 38 39 40 40 42 45 46
27 26 27 28 29 29 29 30 31 30 29 30 31 32 32 32 33 32 31 30 29 29 28 28 29 29 30 30 30 31 32 32 33 34 34 36 37 38 38 38 39 39 41
28 28 29 30 30 30 29 30 30 31 30 29 29 28 28 28 27 27 26 25 24 23 23 24 26 27 28 30 31 33 34 35 36 36 37 38 39 40 40 41 42 43 43
28 27 26 26 27 29 28 27 26 27 28 28 26 24 23 23 22 22 21 21 22 23 25 26 28 30 32 33 34 36 37 38 40 40 41 42 42 42 43 44 44 46 47
27 26 25 24 23 24 25 25 24 24 23 22 23 22 21 21 21 21 22 24 25 27 29 30 32 33 34 35 36 37 38 40 41 42 44 46 46 47 49 50 51 51 50
25 24 23 23 22 21 22 22 22 22 21 21 21 21 22 23 24 25 27 28 30 31 32 33 34 35 36 38 39 40 41 41 44 46 47 48 51 54 56 59 60 59 60
26 24 23 23 23 22 22 22 22 22 22 22 23 23 24 25 27 28 30 31 32 32 33 34 34 35 36 37 39 41 43 45 48 51 54 57 59 61 61 62 63 64 64
28 26 24 24 24 24 23 23 22 22 22 22 23 24 25 26 27 28 29 30 31 32 33 34 35 36 38 39 41 43 46 49 53 56 59 61 62 63 64 66 67 67 67
32 29 26 25 24 23 23 23 23 22 22 22 22 23 24 25 26 27 29 30 31 32 33 35 37 39 41 44 47 50 53 56 59 61 63 65 66 67 68 69 69 69 68
39 34 29 26 27 24 22 21 21 21 21 22 23 24 25 26 27 28 28 29 31 33 34 35 37 39 41 43 46 48 51 54 57 59 62 65 67 68 68 69 69 68 67
43 40 36 32 34 27 27 26 24 23 22 22 22 23 24 25 26 27 29 31 32 33 34 36 37 39 41 43 45 48 50 51 53 54 56 58 59 60 61 62 62 63 64

GFSGL_700_spd_099.txt.gz
Wind_Speed
24 23 19 18 16 14 17 19 17 15 14 11 8 8 7 7 9 9 8 10 10 12 13 16 15 18 19 20 16 18 19 17 17 17 22 20 29 32 30 29 31 32 32
31 29 24 22 20 19 19 18 20 18 17 14 14 13 11 10 10 9 10 10 10 11 12 13 14 15 18 19 22 24 25 26 27 30 28 29 30 33 37 36 33 30 29
34 30 29 27 28 23 22 19 21 22 18 15 15 16 14 12 11 12 12 11 11 10 9 9 10 12 14 16 20 23 22 22 22 24 27 27 28 28 26 27 26 24 21
8 32 32 30 33 29 27 27 22 22 23 19 17 16 16 15 13 12 11 12 10 11 11 10 10 11 11 12 13 16 18 19 19 19 19 16 18 17 17 19 18 19 18
19 20 27 25 19 29 37 33 29 23 25 23 20 21 19 18 18 16 15 15 15 13 14 15 13 13 12 12 12 13 12 13 15 12 14 10 12 18 17 19 20 17 16
17 17 16 13 11 13 14 17 26 23 21 23 22 21 21 23 19 18 18 18 17 18 16 16 17 18 17 17 16 15 16 16 16 18 17 16 14 17 18 20 21 22 22
20 18 15 15 15 13 13 17 23 26 20 23 23 23 20 20 18 17 18 20 20 18 19 18 18 21 19 15 17 18 18 18 18 18 18 17 18 18 19 19 21 22 24
21 21 17 15 15 13 12 12 20 26 22 18 21 21 22 21 18 18 18 19 21 20 21 20 19 21 20 19 19 20 19 20 20 20 19 19 19 20 21 22 23 23 22
29 27 27 25 23 16 11 4 4 13 26 25 26 25 24 22 21 21 20 21 25 25 23 23 24 23 22 23 24 24 23 22 24 23 23 24 23 23 26 27 26 28 26
33 32 31 27 25 21 17 12 10 12 17 21 23 27 28 26 22 17 19 21 25 28 28 27 28 26 25 24 26 26 25 26 25 22 23 24 25 26 26 29 29 29 26
26 25 25 25 25 25 24 21 19 18 17 17 15 14 24 23 22 19 19 18 20 25 28 28 27 31 30 28 27 27 25 24 24 25 24 25 26 26 27 27 32 30 31
21 26 25 25 25 27 27 27 28 23 21 21 17 14 18 21 20 19 17 17 18 19 20 17 15 20 34 35 31 29 29 30 32 36 37 39 31 33 32 33 32 33 33
24 22 25 21 26 24 24 21 17 22 21 22 22 23 23 23 23 25 23 22 20 19 20 21 21 20 18 18 20 25 31 31 37 38 37 34 36 40 38 34 33 33 33
16 13 16 14 17 16 17 18 16 21 21 20 20 22 27 27 24 21 21 21 23 24 24 25 25 24 24 24 25 25 27 28 30 32 32 31 32 33 35 35 34 33 34
13 13 14 15 16 18 20 20 22 22 24 24 24 24 24 27 23 26 25 26 26 27 28 28 29 30 30 30 30 30 30 29 29 29 30 31 32 33 34 34 36 36 37
16 16 16 18 18 20 22 23 24 25 27 28 30 29 27 30 30 29 29 29 29 30 30 30 31 31 31 31 30 29 30 31 29 28 29 29 29 30 31 30 32 34 34
22 22 23 23 25 26 26 26 29 30 29 30 30 31 31 31 32 32 32 30 29 30 30 29 28 27 27 27 27 27 28 29 29 29 30 31 33 34 34 34 34 35 35
29 31 32 32 31 30 29 28 29 31 31 33 32 31 32 31 30 30 29 29 27 27 26 26 25 25 25 26 27 28 30 31 32 32 34 35 36 37 37 38 37 40 41
29 29 27 29 29 27 27 26 27 28 28 31 27 29 28 27 26 26 24 24 25 25 23 24 24 25 26 27 28 30 31 33 35 35 37 38 39 40 40 40 41 43 45
27 27 26 28 28 26 25 24 25 26 25 26 26 26 22 22 23 23 22 22 23 23 23 24 25 27 28 29 31 32 34 35 37 38 39 40 41 42 43 45 46 49 50
27 26 24 24 24 25 24 22 23 23 24 24 25 20 21 21 22 22 23 23 24 25 25 27 28 30 31 32 32 33 34 36 37 39 40 42 43 45 48 50 52 53 55
31 31 25 24 24 24 23 22 22 22 23 23 24 21 21 21 23 24 24 25 26 26 28 28 28 29 30 31 33 34 35 36 38 39 41 43 46 49 50 52 53 55 56
38 36 32 27 25 25 23 23 23 23 24 24 24 25 22 23 24 24 24 25 26 26 27 27 28 29 30 32 34 35 37 38 40 42 44 46 48 50 52 54 56 57 59
38 44 40 35 32 29 27 25 24 24 24 25 24 24 24 23 23 24 24 25 25 26 27 27 28 30 31 33 35 37 40 41 44 46 49 52 54 56 58 60 61 61 62
39 38 35 41 38 33 30 28 26 24 24 23 23 23 23 24 23 25 25 25 25 25 26 28 30 31 33 35 37 38 41 43 45 48 51 53 55 57 59 60 60 61 60
38 44 37 34 32 40 33 30 26 26 24 22 21 22 23 23 23 23 23 23 23 25 27 28 30 32 33 35 37 38 39 41 42 45 48 50 52 52 53 54 55 56 56

GFSGL_700_spd_102.txt.gz
Wind_Speed
19 16 14 18 17 15 14 14 16 16 9 9 7 7 8 6 6 8 9 8 8 8 10 13 12 12 16 19 20 17 14 18 16 19 16 22 25 27 31 35 32 28 22
16 25 26 22 22 16 16 11 16 19 17 13 13 12 11 9 8 7 7 7 7 8 9 11 10 12 12 15 18 19 26 24 23 24 23 25 24 20 22 23 17 20 17
17 21 27 31 24 20 17 17 14 15 17 18 14 15 14 11 11 10 9 10 9 8 8 8 8 10 9 10 12 14 17 21 23 21 18 18 16 14 12 10 10 13 21
14 24 19 24 27 24 24 23 24 25 19 19 17 15 13 15 14 10 11 11 11 11 9 9 8 9 10 10 10 11 13 12 14 16 17 9 4 13 16 18 10 16 20
10 13 9 24 22 20 20 29 33 28 30 24 24 21 21 16 14 13 12 15 12 13 13 13 12 12 11 11 12 11 12 11 13 14 13 13 14 12 11 14 15 16 14
9 8 10 18 19 21 20 10 14 23 35 36 31 28 22 16 17 15 16 16 14 14 15 16 16 17 15 15 15 15 16 15 15 16 16 16 15 16 16 16 18 18 16
22 18 17 15 14 14 13 12 12 15 19 26 29 25 24 19 16 16 15 15 16 17 18 19 16 18 16 15 15 16 16 17 17 17 16 16 16 18 19 18 18 19 19
21 21 21 18 16 16 14 15 15 16 17 20 17 17 21 22 20 17 17 17 17 18 18 18 20 17 19 17 17 18 18 18 19 19 19 17 18 19 20 22 22 21 19
21 24 23 22 21 18 15 13 12 8 13 21 16 15 17 21 20 18 19 21 19 18 20 21 21 21 21 22 23 23 22 21 21 20 21 20 18 18 20 22 21 23 22
24 27 27 25 26 26 23 20 16 8 6 13 18 19 20 26 27 25 21 18 16 19 20 23 24 23 23 24 25 25 26 25 23 21 20 18 19 18 19 22 22 21 23
28 27 29 31 32 29 24 22 20 16 14 13 15 16 18 21 25 26 22 18 19 19 21 19 18 20 25 25 28 31 29 26 26 25 22 21 24 28 31 36 36 32 29
21 25 28 25 24 24 24 23 24 24 24 21 20 20 18 15 17 20 19 18 18 19 17 17 16 16 14 16 15 14 24 32 29 29 29 31 36 42 37 28 29 30 31
19 24 20 24 24 26 27 26 25 27 28 22 21 20 21 17 16 19 20 21 22 21 18 17 17 19 19 19 19 18 18 20 21 20 22 24 28 28 27 29 29 31 30
17 14 20 24 20 23 21 23 23 20 17 18 17 17 18 18 20 22 22 21 20 19 19 20 21 20 22 22 24 23 23 24 24 25 26 27 28 29 31 31 31 31 30
15 14 12 12 16 14 13 14 16 15 18 17 19 18 21 21 19 21 22 23 23 24 24 25 25 26 27 26 26 27 28 27 26 27 29 28 27 28 28 29 30 30 31
13 13 13 13 13 15 14 15 16 19 19 20 19 20 23 25 25 25 26 27 27 28 28 28 28 29 29 29 28 28 28 26 26 26 25 26 27 28 28 28 30 30 31
20 20 19 19 21 21 21 21 21 23 25 25 25 28 28 28 28 28 27 27 28 28 29 29 28 27 27 26 26 26 26 26 27 26 28 29 30 30 31 32 33 34 33
26 26 26 26 27 28 29 29 30 30 29 31 31 31 32 30 29 29 29 29 28 28 28 28 26 24 23 23 23 24 25 26 27 27 28 29 31 32 33 35 36 37 38
28 28 25 28 29 28 27 26 25 27 30 32 28 29 28 27 27 27 26 26 26 28 25 25 24 24 23 23 23 24 26 27 28 29 30 31 33 34 35 36 37 38 40
29 28 26 25 26 23 24 24 23 25 26 28 27 27 21 23 23 23 23 22 23 24 22 24 22 23 24 25 26 28 29 30 31 32 33 35 36 37 38 39 40 42 43
31 29 26 24 24 22 21 20 20 22 22 24 25 24 19 21 21 21 21 21 23 24 24 24 25 26 27 27 29 30 31 31 32 33 34 36 37 38 39 41 43 44 46
30 32 29 23 24 22 20 21 20 21 21 23 24 22 19 19 21 23 22 21 23 23 25 24 25 27 28 28 29 30 31 31 32 34 35 36 38 39 41 43 45 47 49
31 33 37 31 28 26 22 19 20 20 21 22 24 25 20 20 23 24 24 23 25 24 26 25 26 28 28 28 29 30 31 32 33 35 36 37 39 42 43 45 47 50 52
34 31 33 38 33 30 26 23 21 23 22 22 23 23 23 23 23 24 24 24 25 24 25 26 26 27 27 28 30 31 31 33 35 37 39 40 42 43 45 48 50 52 54
32 31 27 32 32 33 23 24 22 23 24 23 25 24 24 23 23 23 25 24 25 25 26 26 26 26 27 29 29 30 33 34 36 38 39 40 41 43 45 47 49 51 52
30 31 30 38 33 31 27 27 25 24 25 26 23 24 24 24 24 23 24 25 25 26 25 25 26 27 27 30 29 31 32 34 35 35 36 37 39 40 43 44 45 45 46

GFSGL_700_spd_105.txt.gz
Wind_Speed
11 12 10 13 12 13 13 13 10 10 8 5 4 6 6 6 5 6 8 8 6 9 11 12 11 13 13 20 22 20 22 21 19 18 17 20 20 21 23 18 8 9 10
18 15 14 15 14 14 13 12 9 11 11 11 10 10 10 8 6 6 7 7 5 5 7 9 9 10 12 15 18 21 18 21 26 23 23 22 21 16 16 17 14 4 9
16 20 20 19 19 18 15 15 12 10 13 11 14 12 11 12 10 11 11 12 9 8 9 7 8 8 7 8 9 10 13 16 21 22 20 18 14 16 11 12 13 9 14
18 23 22 21 23 22 21 15 13 16 19 16 13 15 15 15 13 11 10 12 12 12 10 9 9 9 7 7 7 8 7 8 9 9 9 9 9 9 11 12 11 13 15
19 19 17 16 19 15 23 20 15 20 26 22 20 20 21 21 13 11 13 13 12 8 10 10 10 11 12 11 10 10 10 9 10 11 11 10 11 11 11 12 14 13 11
18 17 12 10 13 17 16 14 12 14 13 22 29 27 28 26 18 14 14 15 14 13 12 12 13 12 12 13 13 13 12 11 11 12 12 13 12 14 13 14 14 13 10
17 14 14 13 11 9 10 11 9 9 14 17 15 23 29 32 25 15 14 16 15 15 15 15 16 14 13 12 11 13 13 13 12 12 11 11 10 14 15 15 15 17 17
22 19 18 19 16 13 12 11 11 13 15 11 11 13 16 20 28 31 20 17 18 15 16 16 17 17 16 16 16 14 15 15 14 15 14 14 14 15 17 17 16 15 15
21 21 20 20 20 18 14 11 11 11 14 11 9 7 9 10 13 17 19 19 18 18 18 15 14 16 18 19 20 19 19 19 19 19 18 18 18 16 18 17 17 17 15
20 20 20 22 22 23 21 20 17 16 13 8 6 11 11 12 16 19 23 23 20 19 17 17 17 19 20 21 22 21 20 23 23 22 21 20 20 20 20 20 22 24 28
20 23 24 25 27 27 24 24 21 19 18 13 9 10 15 17 17 20 24 25 22 20 18 18 18 18 15 14 15 16 14 16 23 25 23 22 24 25 25 27 32 34 31
17 22 24 25 26 26 25 25 21 19 19 19 18 16 15 16 19 19 14 19 22 21 18 18 18 17 15 15 14 15 16 14 11 11 16 22 28 27 27 28 26 24 27
20 20 21 22 24 23 21 20 22 20 23 25 25 23 20 17 17 19 15 18 20 20 21 23 23 20 18 19 20 19 17 17 17 18 18 19 21 22 24 25 26 27 27
10 12 15 15 17 21 22 21 25 19 25 22 21 19 16 14 13 18 19 20 22 24 24 22 21 20 21 22 22 22 22 23 22 23 23 24 25 25 27 28 29 28 28
10 12 13 13 12 13 16 15 11 12 13 16 18 18 17 15 15 18 19 20 20 22 23 24 24 25 26 26 26 26 26 26 26 27 27 27 28 27 27 28 28 28 29
11 11 11 11 10 10 10 10 12 13 13 14 15 14 19 19 20 20 22 22 24 26 27 27 27 27 28 28 28 28 26 26 25 26 27 27 27 27 27 27 28 29 29
15 15 15 16 16 15 16 16 17 18 19 20 19 20 21 24 25 26 26 25 26 27 28 28 27 27 27 26 26 24 25 25 25 26 26 25 26 27 27 28 29 31 32
21 22 22 22 24 26 26 26 25 25 26 26 27 27 27 27 28 29 29 30 30 32 32 30 28 26 25 25 24 24 25 24 24 25 25 26 27 28 29 30 32 33 34
25 25 25 25 24 24 25 25 26 27 28 28 26 25 25 25 26 28 27 27 27 29 28 26 24 23 22 22 22 23 24 25 25 26 27 28 29 30 31 33 34 35 37
26 25 25 25 26 23 23 24 24 25 27 25 23 22 21 23 22 22 23 24 26 27 25 23 21 23 23 22 23 24 26 27 27 28 29 30 31 32 34 36 37 38 39
26 26 26 26 27 24 22 21 20 20 21 23 22 18 17 20 22 22 20 20 22 22 21 21 22 24 24 23 26 27 28 28 28 29 30 32 33 35 36 37 39 41 42
30 31 28 26 25 23 20 18 16 17 17 19 21 19 15 17 20 22 21 19 21 22 21 22 24 26 25 25 27 28 27 28 29 30 32 33 34 36 37 39 41 42 44
33 32 30 21 24 25 25 20 18 17 16 17 18 19 18 17 19 22 22 20 21 20 22 22 24 26 25 26 27 27 27 29 30 32 33 34 35 37 38 40 41 42 43
39 34 30 34 26 26 29 24 20 22 20 19 20 20 20 19 19 21 22 21 22 22 22 22 23 24 26 26 27 27 29 31 32 32 33 34 35 36 38 38 39 40 41
30 31 32 33 35 34 31 30 24 22 24 22 22 21 21 21 22 22 22 23 22 21 21 23 23 25 26 27 26 27 29 30 31 32 33 33 34 35 36 36 37 38 40
27 31 32 31 36 37 34 23 31 25 24 20 21 23 23 25 25 24 23 23 21 20 20 23 25 25 26 27 27 27 28 29 29 30 31 31 31 31 32 33 35 37 38

GFSGL_700_spd_108.txt.gz
Wind_Speed
13 14 13 11 13 14 13 12 12 10 10 9 9 14 10 7 7 10 11 11 12 13 18 18 19 18 19 20 20 20 22 22 23 21 22 21 18 21 22 21 16 15 8
23 21 18 16 11 14 12 13 13 14 13 11 9 9 8 8 9 9 9 10 11 10 12 12 14 17 18 19 19 20 21 22 22 20 21 25 22 21 18 12 10 8 3
27 28 17 19 13 14 14 13 14 12 11 10 12 14 15 12 14 12 12 11 11 12 12 12 12 12 12 14 16 16 17 17 17 16 16 18 19 15 10 4 11 11 10
21 19 19 12 13 13 17 17 17 15 15 15 14 15 15 13 14 14 15 16 14 13 14 12 11 10 10 10 11 12 12 13 13 12 11 11 12 11 11 10 11 12 12
30 21 17 16 15 17 20 25 22 17 16 19 21 20 18 18 17 14 17 17 13 13 20 18 13 13 13 15 12 13 12 12 14 13 13 13 13 13 13 13 13 11 13
24 21 16 17 16 12 10 10 20 16 17 17 17 24 24 21 24 23 18 20 15 14 13 14 13 12 11 12 13 15 15 14 13 12 12 12 13 15 14 15 16 14 12
21 22 19 13 10 7 9 12 12 13 14 14 13 14 21 24 23 25 26 19 17 14 14 14 14 14 15 14 14 13 14 14 12 13 14 14 14 17 16 15 17 17 16
22 21 17 13 13 14 12 10 13 12 12 12 13 13 16 18 20 20 24 19 12 14 16 15 15 16 17 17 17 17 16 16 16 16 17 17 18 19 18 18 17 14 13
24 24 21 19 18 16 16 14 12 10 10 11 10 12 13 14 14 14 20 24 22 20 20 19 18 16 16 18 19 20 21 22 21 21 20 20 21 20 19 18 18 18 17
24 25 22 21 18 18 20 19 19 18 15 12 12 11 13 11 11 12 13 16 20 23 21 19 18 17 18 19 21 24 24 23 22 25 26 26 24 23 21 21 22 23 25
24 23 21 20 19 20 22 24 23 22 19 16 15 13 12 16 17 17 18 19 21 25 24 21 19 19 20 20 19 17 16 18 17 19 21 27 25 24 25 27 27 30 30
23 24 22 20 22 23 23 25 25 25 22 16 18 17 14 16 17 18 19 21 20 17 21 21 20 20 19 17 18 16 15 15 17 20 19 15 16 19 20 21 24 27 29
19 22 19 19 18 22 21 22 19 16 14 17 20 19 21 22 23 23 22 21 21 18 22 21 20 22 22 20 19 19 20 21 20 20 21 21 21 23 23 25 27 29 30
14 16 18 17 13 15 16 16 17 17 19 22 22 23 24 23 17 21 21 18 20 21 22 22 23 24 22 20 21 21 22 23 24 24 24 24 25 26 27 27 26 27 28
12 12 12 12 12 11 12 12 15 15 13 14 14 15 16 18 20 21 19 19 23 23 25 27 26 24 25 25 25 26 26 26 27 27 27 27 27 27 27 28 28 29 30
11 11 12 13 13 12 12 12 13 13 14 14 16 17 18 18 19 21 20 23 25 26 26 26 26 27 27 28 28 29 29 29 29 29 28 28 29 29 29 30 30 30 31
13 13 14 14 14 14 14 14 15 15 16 17 19 19 19 20 21 23 25 25 27 27 27 26 26 26 27 28 28 28 28 27 27 27 27 27 28 28 28 29 29 30 31
17 18 19 19 20 20 20 20 21 23 25 27 26 26 27 28 28 29 29 29 30 30 29 28 26 26 27 27 27 26 25 24 24 24 25 26 27 28 29 30 31 32 33
21 22 23 24 25 26 27 27 28 28 28 28 28 28 28 29 29 29 30 30 30 30 28 25 23 23 23 22 23 23 23 23 23 25 26 27 28 29 30 31 31 32 33
26 27 27 26 26 25 25 27 28 29 30 30 30 29 27 28 27 26 26 25 25 24 22 21 22 21 20 20 22 22 23 23 26 27 28 29 30 30 30 31 33 33 35
22 24 29 31 28 24 25 26 26 28 28 28 27 24 23 25 25 23 23 22 21 21 20 21 21 20 19 21 22 23 24 25 27 27 28 28 29 30 31 32 34 36 38
33 30 31 32 32 27 29 26 24 24 25 24 23 22 21 21 23 21 21 21 20 19 20 20 21 21 20 22 23 24 25 26 27 27 27 28 30 31 33 34 35 37 39
38 40 40 37 32 26 34 30 28 26 25 25 23 21 20 21 22 23 21 19 19 19 19 20 22 23 23 23 23 23 25 26 27 28 29 30 31 32 33 34 36 38 39
35 36 36 35 37 34 32 32 33 29 28 27 26 23 23 21 21 22 22 20 20 20 19 20 21 23 23 22 23 24 25 26 27 28 30 31 31 32 33 34 34 35 36
32 32 34 33 33 33 32 34 32 26 26 31 30 28 26 24 23 22 21 21 20 20 19 19 20 22 21 21 22 23 25 27 27 28 29 29 30 31 31 32 32 32 33
31 32 29 30 32 33 30 31 35 35 30 33 30 28 27 27 26 25 23 21 19 19 17 18 20 22 24 24 24 24 25 26 25 26 27 27 28 29 29 29 30 31 31

GFSGL_700_spd_111.txt.gz
Wind_Speed
14 14 15 15 17 17 17 17 14 13 11 11 11 12 12 10 10 11 14 17 17 18 19 20 20 20 22 23 22 23 24 21 21 20 19 21 20 22 21 20 17 11 14
17 18 18 17 18 16 14 14 15 16 14 13 11 8 13 12 10 10 11 14 15 15 15 14 15 17 20 22 21 23 21 21 21 20 21 21 22 21 17 15 11 11 12
23 23 22 21 21 19 18 16 16 15 15 16 17 16 15 15 12 12 11 12 14 15 15 14 15 16 17 17 19 21 21 20 19 18 16 16 16 14 13 11 10 12 12
33 29 20 24 19 18 16 20 15 17 18 16 16 15 15 17 16 15 16 16 16 16 18 17 15 15 15 14 16 16 14 14 15 15 14 13 12 12 11 11 12 15 14
30 28 26 20 13 11 10 11 18 19 20 17 15 16 18 18 19 18 17 18 17 16 16 21 21 19 19 19 18 17 18 17 16 16 16 16 16 16 16 15 14 12 14
29 28 27 22 18 15 12 12 14 24 23 19 17 18 20 24 24 22 21 19 19 17 17 12 11 21 18 17 13 13 19 19 18 16 15 16 18 18 17 17 16 14 13
34 34 27 20 18 12 10 9 11 10 10 9 11 15 18 21 27 25 23 24 23 22 22 19 15 16 16 15 16 17 17 17 16 18 18 17 18 18 17 17 19 18 17
31 21 16 17 18 16 11 9 8 10 10 11 12 14 13 17 20 26 30 28 28 18 17 15 13 17 18 18 20 19 20 20 21 19 18 20 21 20 19 19 19 18 18
23 21 22 20 18 14 13 13 12 11 11 10 13 13 12 13 14 19 22 21 22 18 16 16 17 20 20 19 18 19 20 22 23 24 24 23 24 24 24 23 21 20 20
30 27 21 22 19 17 16 16 17 16 16 16 13 13 11 11 11 9 9 12 17 22 23 21 22 20 20 20 20 21 22 24 24 24 22 22 23 25 27 25 23 23 23
16 17 22 23 21 19 18 19 21 20 18 17 17 16 13 13 14 13 13 14 16 18 20 23 26 24 21 20 21 21 20 18 16 16 18 17 19 20 19 21 24 26 26
17 17 17 18 17 19 22 21 21 21 21 19 17 17 17 16 14 16 17 18 19 22 23 24 23 21 21 22 21 21 20 21 20 18 19 22 22 22 23 23 23 24 25
20 21 19 22 23 22 11 14 19 17 15 16 17 17 18 20 22 23 23 25 24 23 23 21 18 20 24 22 22 23 23 22 22 23 23 24 24 25 26 28 28 29 30
16 17 18 18 19 20 19 22 25 16 16 17 19 20 24 25 25 28 27 27 27 25 22 21 22 23 22 23 23 23 22 22 23 24 26 27 28 27 27 28 29 30 31
11 12 13 15 15 16 16 17 16 19 19 18 19 20 19 21 21 22 23 22 24 23 23 23 23 25 26 28 26 26 27 27 27 28 28 29 29 29 29 29 29 30 30
9 9 10 11 11 13 13 14 15 15 15 16 15 15 17 19 20 22 23 23 24 25 23 24 24 25 27 28 29 29 30 30 30 31 30 30 29 29 29 29 30 30 31
10 11 11 11 12 12 12 13 13 14 14 15 17 18 18 20 21 21 23 24 25 26 26 26 25 26 31 29 30 29 29 30 31 30 30 29 29 29 29 30 30 31 32
15 15 16 17 18 18 19 19 20 20 21 22 23 24 25 27 28 29 30 30 30 31 31 30 29 29 29 30 30 30 30 29 29 29 28 28 28 28 29 30 31 31 33
21 23 24 25 25 26 26 26 27 27 28 30 31 31 31 32 33 33 34 34 35 34 31 28 27 27 28 28 28 26 25 25 26 26 26 26 27 28 29 30 30 30 31
20 23 26 29 31 31 31 31 32 32 32 31 31 32 32 33 34 34 34 32 32 31 29 27 25 25 25 26 25 24 24 24 25 26 26 26 27 27 28 28 29 30 31
26 28 27 28 27 29 30 31 33 33 33 33 32 31 30 30 32 32 32 30 28 28 27 26 26 25 24 23 23 23 24 24 25 25 26 26 26 27 27 28 29 31 32
32 32 34 34 33 30 29 31 33 36 34 32 28 26 26 26 27 28 27 25 24 23 24 25 24 23 22 22 23 23 24 24 25 25 25 25 25 26 27 28 30 31 32
34 34 34 35 37 39 41 40 37 34 36 33 31 29 27 25 27 28 26 24 22 21 22 23 23 22 22 22 23 24 24 25 25 25 25 25 26 27 28 29 30 31 32
33 34 34 34 36 37 36 34 34 40 36 40 33 33 31 27 27 28 27 25 22 21 20 21 21 22 22 22 23 24 25 25 24 24 24 25 26 27 28 29 29 30 30
28 28 29 31 32 34 35 34 34 36 38 36 35 37 33 30 29 29 27 26 22 19 18 18 20 21 21 21 21 22 22 24 25 25 26 26 26 27 28 28 29 29 28
20 22 24 27 30 31 32 32 33 35 35 37 40 36 32 31 30 29 28 26 23 19 18 18 20 20 20 19 19 20 23 24 24 24 24 24 25 25 26 26 27 27 27

GFSGL_700_spd_114.txt.gz
Wind_Speed
13 15 16 17 18 17 17 17 16 14 14 12 13 14 15 14 15 15 17 17 18 20 21 21 19 20 21 21 20 19 20 20 21 20 19 19 20 20 18 18 16 16 14
14 14 17 18 18 19 19 20 19 17 16 14 15 15 14 20 15 13 14 16 16 17 18 18 18 17 16 17 17 18 18 18 17 15 14 14 14 15 14 13 14 12 11
22 19 17 17 16 16 19 22 23 22 18 17 17 17 14 12 13 13 13 13 13 15 16 17 15 15 15 15 16 16 16 15 15 14 12 12 12 12 11 11 9 10 13
29 26 22 19 20 20 21 24 27 24 20 19 19 18 16 17 17 17 17 17 16 15 16 16 16 16 16 16 14 15 15 16 14 16 14 14 14 14 13 12 13 13 13
28 30 34 28 25 24 25 22 30 25 21 19 19 18 17 16 16 18 19 17 18 17 18 18 19 19 18 18 18 20 20 23 24 17 19 19 18 16 15 15 13 12 13
24 28 30 31 27 19 23 25 14 24 25 26 24 22 19 17 19 24 22 21 19 17 18 19 17 16 18 21 21 18 17 18 19 21 21 20 18 19 18 17 15 15 14
24 23 27 26 24 28 17 14 13 13 10 18 23 25 19 14 19 21 25 25 25 26 22 21 20 18 20 16 14 16 20 20 19 18 18 18 19 19 19 19 19 18 18
25 28 26 25 29 21 16 14 12 11 10 10 4 9 12 14 15 19 22 28 28 28 24 23 23 22 19 15 13 18 21 23 21 20 21 21 20 21 20 21 21 21 19
23 30 31 18 19 19 17 15 14 12 14 13 11 10 10 11 12 13 16 21 23 18 21 21 20 17 16 12 16 20 23 22 22 22 23 24 24 23 23 23 24 24 23
20 26 25 20 24 21 20 18 18 18 13 14 13 10 12 11 9 9 10 11 10 10 14 17 18 19 18 18 20 22 22 23 23 24 25 25 23 21 20 17 20 22 22
17 24 27 33 22 19 18 19 18 18 14 15 18 17 16 16 13 11 11 11 10 10 12 15 17 19 21 24 23 21 21 22 21 22 20 19 17 18 20 21 19 17 16
17 21 26 35 22 16 14 15 10 15 20 22 23 21 19 18 17 16 15 15 17 18 18 19 20 22 23 22 21 21 22 22 22 22 23 23 23 23 23 23 23 22 22
13 12 13 27 10 11 18 22 18 19 20 20 21 21 21 20 19 19 20 21 22 22 24 24 22 22 22 20 22 22 23 20 22 24 23 24 24 24 25 26 27 27 27
13 14 19 16 20 25 22 15 17 19 20 18 17 17 18 21 23 25 25 25 25 26 26 27 26 25 22 23 22 22 23 23 23 23 25 25 27 27 28 28 28 28 29
7 9 11 12 15 19 23 19 22 24 25 20 19 19 22 24 26 29 27 25 24 23 23 23 22 23 23 24 26 26 27 29 28 28 28 28 28 29 29 29 28 28 28
6 7 7 8 9 11 13 14 16 16 18 19 20 20 20 19 19 20 20 21 22 23 22 22 23 23 24 23 26 27 27 27 29 31 29 29 29 29 28 27 27 28 28
12 12 12 13 13 14 15 15 15 15 16 16 16 17 18 19 19 20 20 21 21 22 22 23 25 26 26 28 31 31 31 31 32 31 30 28 27 26 27 28 29 30 30
15 16 17 17 17 18 18 19 19 20 20 21 21 22 22 23 24 26 27 27 28 29 29 29 29 30 31 32 32 32 33 32 31 30 29 27 26 25 26 27 27 28 29
16 18 19 20 21 22 23 24 26 27 28 29 29 29 30 31 31 32 32 33 33 32 32 31 30 30 31 32 32 32 31 30 29 28 26 25 24 25 26 27 27 28 28
18 19 18 21 24 25 27 29 31 32 32 32 32 33 34 36 37 38 37 36 35 34 34 33 31 29 28 29 29 29 29 28 27 26 25 24 24 25 26 27 27 27 27
23 26 30 30 30 31 34 33 32 32 33 33 32 32 33 33 33 33 34 32 31 30 29 29 28 28 27 27 27 27 26 26 25 24 25 25 25 25 26 26 26 26 27
25 27 29 31 31 31 32 34 36 37 35 34 33 33 33 32 29 28 28 27 27 26 25 25 25 25 25 25 25 24 24 24 24 24 24 24 24 24 24 25 25 26 27
28 29 30 31 33 34 35 35 36 36 37 40 40 40 37 34 32 29 28 26 25 24 23 23 23 24 23 23 23 23 23 24 24 24 24 23 23 24 24 24 25 26 27
27 28 28 28 29 30 32 34 36 36 36 36 35 36 35 36 36 32 28 28 26 22 21 21 22 22 21 21 20 21 21 22 22 22 22 22 23 24 25 26 26 26 26
16 14 14 16 19 22 25 28 31 34 36 35 35 37 39 37 40 34 34 28 25 23 20 19 20 21 19 18 18 18 19 20 20 20 21 22 23 24 24 24 25 25 25
14 17 19 21 23 24 25 27 31 33 33 34 33 34 35 38 37 34 38 26 23 22 20 18 20 20 17 15 15 15 16 17 18 19 20 22 22 22 23 23 23 23 23

GFSGL_700_spd_117.txt.gz
Wind_Speed
19 20 19 18 19 18 17 18 17 17 16 16 17 17 15 17 16 15 16 16 16 17 18 19 19 19 18 18 20 19 18 16 16 15 15 17 17 17 16 14 13 12 11
15 15 17 19 19 19 19 19 19 18 19 19 18 16 15 16 18 17 16 16 16 16 16 18 15 15 14 14 13 14 14 14 14 12 13 13 13 12 11 9 9 8 10
19 15 15 15 17 17 19 21 22 21 22 22 21 19 18 17 17 18 17 16 15 14 14 14 15 14 13 14 13 13 13 13 12 12 11 12 12 11 10 9 10 11 13
24 23 23 19 17 18 18 19 20 22 24 25 24 24 21 20 19 18 19 18 18 19 17 15 16 15 16 16 16 15 14 12 14 15 16 17 16 15 13 12 11 12 13
28 27 28 27 24 23 22 23 24 23 25 29 29 27 25 23 20 20 21 21 21 20 21 20 20 20 20 19 20 18 18 18 18 17 16 15 15 14 13 13 13 12 11
30 34 34 32 34 35 29 29 28 31 29 28 30 29 25 22 21 20 19 21 22 23 21 21 21 21 22 19 21 22 20 16 16 17 16 16 16 16 15 15 15 15 15
35 38 34 32 34 38 35 33 21 30 36 30 31 31 34 27 23 18 20 23 24 27 25 23 21 21 22 21 19 19 15 12 14 18 20 19 19 17 17 17 18 18 17
32 33 32 29 32 29 27 32 23 23 24 25 22 23 11 27 16 17 21 22 21 24 25 23 25 25 24 26 26 23 18 14 15 21 22 22 22 20 20 21 22 23 22
20 26 26 30 30 25 26 31 27 20 18 17 13 10 8 6 6 13 16 17 18 21 24 25 26 26 19 18 16 16 17 18 19 23 23 21 22 23 24 23 22 21 23
18 20 26 24 27 25 20 29 28 22 20 19 16 12 12 11 11 12 12 13 14 15 16 18 18 16 16 18 15 17 20 22 23 23 22 21 21 20 18 16 15 16 16
14 15 16 18 25 28 28 26 23 23 25 22 17 18 17 15 15 15 15 12 14 12 11 11 13 16 17 18 20 22 23 23 21 21 21 21 20 19 17 16 18 18 17
20 21 22 13 20 26 22 21 11 16 12 3 11 19 20 20 20 18 16 17 16 16 16 16 18 20 22 23 23 22 20 21 22 23 23 22 22 22 21 22 22 21 21
19 12 12 12 5 23 16 11 7 9 14 15 19 22 20 20 21 21 21 20 19 18 19 20 21 23 24 24 25 24 22 24 23 24 23 22 23 24 24 24 24 25 25
5 5 11 16 11 17 6 12 17 14 17 15 17 18 20 22 21 21 20 21 22 24 24 24 24 26 26 28 27 26 25 26 26 25 25 26 25 26 26 28 28 27 27
10 12 11 9 15 14 17 19 19 15 18 15 17 22 23 24 22 24 24 25 26 24 23 25 24 24 25 25 27 25 24 26 27 28 29 28 28 27 29 30 29 28 27
5 5 6 9 12 14 15 18 20 21 21 24 26 23 23 22 22 23 23 23 23 22 23 23 23 25 25 25 25 24 22 27 26 24 28 28 28 29 28 30 27 26 25
6 6 7 7 8 10 12 14 16 17 18 19 19 20 20 20 20 19 19 20 20 20 21 22 23 24 26 27 28 28 28 30 31 31 32 32 30 29 28 28 27 27 27
8 9 10 10 11 12 14 14 15 16 17 18 18 19 20 21 22 23 24 24 25 26 26 27 28 29 29 31 31 31 31 33 32 33 32 32 31 29 28 27 26 26 26
12 14 15 17 18 19 21 22 24 25 26 27 28 29 29 29 30 31 31 32 32 32 32 32 32 32 31 31 32 32 32 32 32 31 30 29 28 27 26 25 25 25 26
15 16 16 17 18 20 22 23 25 27 28 29 31 34 36 36 35 35 34 34 33 33 33 33 33 32 32 32 32 32 31 31 30 28 27 26 25 25 24 25 25 26 26
17 19 20 22 25 27 28 30 32 32 32 33 32 32 34 35 36 36 35 34 32 31 30 29 28 29 29 29 30 29 28 27 26 25 25 24 24 24 24 24 24 24 24
20 22 23 25 26 27 28 29 30 31 32 33 33 35 36 37 36 34 33 32 29 28 28 26 26 26 26 26 26 25 25 24 23 23 23 23 23 23 23 23 24 24 24
19 20 22 23 24 26 27 27 28 29 30 32 32 32 34 36 40 39 36 34 34 31 28 25 23 24 24 24 24 23 23 22 21 21 21 21 21 22 22 22 22 23 24
21 21 20 18 16 16 18 20 23 26 27 29 31 33 34 34 34 34 35 38 37 32 31 23 22 22 23 23 22 21 21 21 20 20 20 20 20 20 21 22 23 23 23
16 14 14 16 18 19 20 23 24 25 27 29 32 34 34 34 34 33 38 42 32 26 26 24 23 23 22 22 21 20 19 18 18 18 18 19 20 21 22 22 22 22 22
13 14 16 17 19 22 24 25 26 27 29 34 34 32 30 28 29 30 32 35 36 36 40 32 22 22 20 20 19 17 16 15 15 16 17 18 20 21 22 22 21 21 21

GFSGL_700_spd_120.txt.gz
Wind_Speed
23 23 24 22 22 21 19 17 16 16 15 17 16 15 15 14 15 15 16 17 17 17 17 17 16 17 18 19 17 16 17 16 15 12 14 15 14 14 14 14 13 11 15
22 23 22 21 21 21 18 18 18 18 16 16 17 17 18 19 16 17 16 16 16 17 17 18 17 16 16 15 13 12 11 12 12 12 11 11 10 11 12 11 10 11 12
18 19 21 20 19 18 19 20 20 19 20 19 19 19 20 19 19 18 18 21 18 16 16 17 16 17 15 15 14 14 13 13 10 11 11 7 13 11 11 11 10 11 13
22 20 18 16 17 17 18 19 20 21 21 21 22 22 23 23 24 22 19 17 17 17 16 18 17 17 15 15 16 16 18 15 14 14 14 17 15 14 10 10 9 11 9
27 25 24 20 21 21 20 21 21 20 21 21 22 24 25 26 27 27 26 24 22 21 21 21 22 19 19 19 20 19 20 16 18 20 14 10 11 10 10 12 10 11 12
37 32 30 28 28 28 28 26 26 26 26 26 27 25 25 32 30 29 30 26 23 23 23 23 22 23 21 19 19 21 22 20 17 17 14 12 12 14 14 13 13 13 15
42 39 34 34 34 33 32 33 33 35 32 32 33 33 32 28 31 29 29 27 26 25 25 27 25 25 21 21 21 20 20 20 19 16 15 14 15 16 17 18 16 16 16
43 41 31 33 38 39 37 33 39 40 36 28 28 33 33 31 31 33 34 30 27 26 24 25 26 26 25 25 25 23 23 24 20 19 18 16 17 17 18 19 20 20 20
33 31 29 24 31 29 36 41 31 34 35 26 25 26 27 27 28 31 35 22 19 18 20 18 20 24 25 26 22 15 14 14 17 20 20 20 20 20 20 19 21 20 21
21 22 18 24 28 30 30 25 32 30 29 28 22 19 14 14 10 9 12 9 13 18 17 17 18 18 19 15 16 16 15 16 19 21 22 22 20 19 19 17 15 14 16
19 19 11 12 12 18 25 25 26 28 27 29 26 22 26 13 8 10 13 14 14 15 14 13 13 14 15 16 18 19 19 20 22 23 23 23 22 21 20 19 19 19 20
20 18 15 10 8 9 12 16 10 20 19 8 23 17 15 21 21 17 16 18 18 18 19 19 18 17 18 21 22 23 24 24 23 22 22 23 24 25 23 22 23 23 23
17 18 19 11 10 5 11 19 14 10 16 6 11 8 1 10 15 19 19 19 20 21 22 21 21 21 22 23 24 24 25 25 24 24 23 23 26 25 24 24 24 25 25
6 7 8 10 12 10 10 9 4 6 4 15 12 7 11 18 17 20 20 20 22 22 23 23 25 26 26 26 27 28 25 25 27 28 27 26 26 26 27 28 28 27 26
4 5 4 7 10 10 15 13 10 5 13 13 14 17 18 17 21 22 22 19 22 21 22 25 26 25 24 26 24 25 24 25 24 26 29 25 24 27 25 26 27 27 27
2 1 1 3 6 11 16 11 14 12 15 17 18 19 21 22 22 21 20 22 22 23 24 24 23 25 25 25 25 26 25 25 25 25 26 29 26 32 32 30 31 32 32
2 2 1 1 3 7 9 10 10 12 14 17 18 18 18 19 19 19 20 20 21 22 22 23 23 24 24 25 25 26 27 27 27 29 29 30 31 32 32 31 31 30 29
5 6 7 8 9 10 10 11 12 13 15 17 19 20 21 22 23 24 24 25 25 25 25 26 28 28 29 29 29 31 30 31 32 31 31 31 31 30 29 29 29 27 26
4 5 6 8 10 11 13 15 16 17 18 20 21 23 25 26 28 29 30 31 32 33 34 34 33 34 35 35 35 35 35 36 35 35 34 32 31 29 28 27 26 25 25
8 9 10 11 13 14 16 19 22 24 25 26 27 29 31 30 31 31 31 31 31 32 32 32 32 31 32 32 33 33 33 33 33 33 32 30 28 27 26 25 26 25 25
11 12 13 15 16 18 20 21 23 24 26 27 27 31 31 34 33 34 34 34 34 34 33 31 30 28 27 27 28 28 29 30 30 29 29 28 27 26 25 25 25 25 26
12 14 15 16 17 18 19 19 20 21 21 21 21 23 25 24 26 29 31 33 35 37 36 37 33 30 29 28 26 26 27 27 27 26 25 24 24 24 23 24 24 25 25
14 15 16 16 16 16 15 14 15 17 19 21 23 24 24 26 28 30 30 30 30 32 36 32 32 30 32 28 27 26 25 25 24 23 22 22 22 22 22 23 23 23 24
12 12 11 11 11 12 14 16 17 21 24 25 26 27 27 29 32 30 31 29 30 31 35 29 33 36 32 28 27 25 24 23 22 21 21 20 20 20 21 21 22 23 23
12 12 12 13 14 16 18 20 23 25 26 27 27 26 29 32 34 30 27 27 29 30 31 36 38 38 27 27 25 24 23 20 19 19 18 19 19 18 19 20 21 22 22
13 13 14 16 18 20 21 23 24 23 24 25 27 28 32 34 29 25 24 26 25 26 27 29 31 36 37 39 34 25 21 21 19 19 18 17 17 18 18 18 20 19 21